<?xml version="1.0" encoding="UTF-8" standalone="no" ?>
<gpx xmlns="http://www.topografix.com/GPX/1/1" xmlns:xsi="http://www.w3.org/2001/XMLSchema-instance" xsi:schemaLocation="http://www.topografix.com/GPX/1/1 http://www.topografix.com/GPX/1/1/gpx.xsd" version="1.1" creator="VisuGPX - https://www.visugpx.com">
  <metadata>
    <name>Entraînement vélo de route Sainte-Baume</name>
    <desc><![CDATA[Départ de La Roquebrussanne jusqu'à l'hostellerie de la Sainte-Baume en passant par le Caucadis et la route des glacières, retour par Nans et Mazaugues. ]]></desc>
  </metadata>
  <trk>
    <name><![CDATA[2018-05-25 14:01:28]]></name>
    <trkseg>
      <trkpt lat="43.34261" lon="5.97013">
        <ele>382.26</ele>
        <time>2018-05-25T09:14:17Z</time>
      </trkpt>
      <trkpt lat="43.34257" lon="5.97018">
        <ele>378.9</ele>
        <time>2018-05-25T09:14:36Z</time>
      </trkpt>
      <trkpt lat="43.34256" lon="5.9702">
        <ele>378.9</ele>
        <time>2018-05-25T09:14:37Z</time>
      </trkpt>
      <trkpt lat="43.34257" lon="5.97023">
        <ele>378.9</ele>
        <time>2018-05-25T09:14:38Z</time>
      </trkpt>
      <trkpt lat="43.34273" lon="5.97039">
        <ele>377.45</ele>
        <time>2018-05-25T09:14:44Z</time>
      </trkpt>
      <trkpt lat="43.34276" lon="5.97043">
        <ele>376.97</ele>
        <time>2018-05-25T09:14:45Z</time>
      </trkpt>
      <trkpt lat="43.34286" lon="5.97054">
        <ele>376.97</ele>
        <time>2018-05-25T09:14:48Z</time>
      </trkpt>
      <trkpt lat="43.3434" lon="5.97141">
        <ele>373.61</ele>
        <time>2018-05-25T09:15:04Z</time>
      </trkpt>
      <trkpt lat="43.3435" lon="5.97167">
        <ele>372.65</ele>
        <time>2018-05-25T09:15:08Z</time>
      </trkpt>
      <trkpt lat="43.34351" lon="5.97173">
        <ele>372.65</ele>
        <time>2018-05-25T09:15:09Z</time>
      </trkpt>
      <trkpt lat="43.34367" lon="5.9723">
        <ele>373.13</ele>
        <time>2018-05-25T09:15:20Z</time>
      </trkpt>
      <trkpt lat="43.34378" lon="5.97276">
        <ele>372.65</ele>
        <time>2018-05-25T09:15:28Z</time>
      </trkpt>
      <trkpt lat="43.34387" lon="5.97311">
        <ele>372.65</ele>
        <time>2018-05-25T09:15:38Z</time>
      </trkpt>
      <trkpt lat="43.34388" lon="5.97322">
        <ele>373.61</ele>
        <time>2018-05-25T09:15:48Z</time>
      </trkpt>
      <trkpt lat="43.34386" lon="5.97324">
        <ele>373.61</ele>
        <time>2018-05-25T09:15:49Z</time>
      </trkpt>
      <trkpt lat="43.34384" lon="5.97325">
        <ele>373.61</ele>
        <time>2018-05-25T09:15:50Z</time>
      </trkpt>
      <trkpt lat="43.34377" lon="5.97325">
        <ele>373.61</ele>
        <time>2018-05-25T09:15:52Z</time>
      </trkpt>
      <trkpt lat="43.34305" lon="5.97323">
        <ele>373.13</ele>
        <time>2018-05-25T09:16:03Z</time>
      </trkpt>
      <trkpt lat="43.34191" lon="5.97317">
        <ele>373.13</ele>
        <time>2018-05-25T09:16:18Z</time>
      </trkpt>
      <trkpt lat="43.34106" lon="5.97313">
        <ele>374.09</ele>
        <time>2018-05-25T09:16:30Z</time>
      </trkpt>
      <trkpt lat="43.34101" lon="5.9731">
        <ele>374.09</ele>
        <time>2018-05-25T09:16:31Z</time>
      </trkpt>
      <trkpt lat="43.34096" lon="5.97305">
        <ele>374.09</ele>
        <time>2018-05-25T09:16:32Z</time>
      </trkpt>
      <trkpt lat="43.34093" lon="5.97298">
        <ele>374.09</ele>
        <time>2018-05-25T09:16:33Z</time>
      </trkpt>
      <trkpt lat="43.34092" lon="5.97289">
        <ele>374.09</ele>
        <time>2018-05-25T09:16:34Z</time>
      </trkpt>
      <trkpt lat="43.34093" lon="5.9728">
        <ele>374.09</ele>
        <time>2018-05-25T09:16:35Z</time>
      </trkpt>
      <trkpt lat="43.34095" lon="5.97273">
        <ele>374.09</ele>
        <time>2018-05-25T09:16:36Z</time>
      </trkpt>
      <trkpt lat="43.34118" lon="5.97168">
        <ele>376.01</ele>
        <time>2018-05-25T09:16:49Z</time>
      </trkpt>
      <trkpt lat="43.34116" lon="5.97071">
        <ele>378.42</ele>
        <time>2018-05-25T09:17:03Z</time>
      </trkpt>
      <trkpt lat="43.34121" lon="5.97037">
        <ele>378.9</ele>
        <time>2018-05-25T09:17:08Z</time>
      </trkpt>
      <trkpt lat="43.34146" lon="5.96942">
        <ele>384.66</ele>
        <time>2018-05-25T09:17:24Z</time>
      </trkpt>
      <trkpt lat="43.34148" lon="5.96936">
        <ele>385.15</ele>
        <time>2018-05-25T09:17:25Z</time>
      </trkpt>
      <trkpt lat="43.34152" lon="5.96924">
        <ele>386.59</ele>
        <time>2018-05-25T09:17:27Z</time>
      </trkpt>
      <trkpt lat="43.34157" lon="5.96913">
        <ele>388.03</ele>
        <time>2018-05-25T09:17:29Z</time>
      </trkpt>
      <trkpt lat="43.3419" lon="5.96853">
        <ele>392.36</ele>
        <time>2018-05-25T09:17:42Z</time>
      </trkpt>
      <trkpt lat="43.34214" lon="5.96799">
        <ele>395.72</ele>
        <time>2018-05-25T09:17:55Z</time>
      </trkpt>
      <trkpt lat="43.34221" lon="5.96776">
        <ele>395.72</ele>
        <time>2018-05-25T09:17:59Z</time>
      </trkpt>
      <trkpt lat="43.34222" lon="5.9677">
        <ele>395.72</ele>
        <time>2018-05-25T09:18:00Z</time>
      </trkpt>
      <trkpt lat="43.34223" lon="5.96729">
        <ele>394.76</ele>
        <time>2018-05-25T09:18:06Z</time>
      </trkpt>
      <trkpt lat="43.34222" lon="5.96722">
        <ele>394.76</ele>
        <time>2018-05-25T09:18:07Z</time>
      </trkpt>
      <trkpt lat="43.3422" lon="5.96715">
        <ele>394.28</ele>
        <time>2018-05-25T09:18:08Z</time>
      </trkpt>
      <trkpt lat="43.34218" lon="5.96708">
        <ele>394.28</ele>
        <time>2018-05-25T09:18:09Z</time>
      </trkpt>
      <trkpt lat="43.34216" lon="5.96701">
        <ele>393.8</ele>
        <time>2018-05-25T09:18:10Z</time>
      </trkpt>
      <trkpt lat="43.34176" lon="5.96608">
        <ele>392.36</ele>
        <time>2018-05-25T09:18:23Z</time>
      </trkpt>
      <trkpt lat="43.34159" lon="5.96491">
        <ele>392.84</ele>
        <time>2018-05-25T09:18:37Z</time>
      </trkpt>
      <trkpt lat="43.34164" lon="5.96378">
        <ele>392.84</ele>
        <time>2018-05-25T09:18:50Z</time>
      </trkpt>
      <trkpt lat="43.34165" lon="5.9637">
        <ele>392.84</ele>
        <time>2018-05-25T09:18:51Z</time>
      </trkpt>
      <trkpt lat="43.34167" lon="5.96362">
        <ele>392.84</ele>
        <time>2018-05-25T09:18:52Z</time>
      </trkpt>
      <trkpt lat="43.34178" lon="5.96313">
        <ele>393.8</ele>
        <time>2018-05-25T09:18:58Z</time>
      </trkpt>
      <trkpt lat="43.34178" lon="5.96304">
        <ele>393.8</ele>
        <time>2018-05-25T09:18:59Z</time>
      </trkpt>
      <trkpt lat="43.34178" lon="5.96295">
        <ele>393.8</ele>
        <time>2018-05-25T09:19:00Z</time>
      </trkpt>
      <trkpt lat="43.34176" lon="5.96286">
        <ele>393.8</ele>
        <time>2018-05-25T09:19:01Z</time>
      </trkpt>
      <trkpt lat="43.34175" lon="5.96277">
        <ele>393.8</ele>
        <time>2018-05-25T09:19:02Z</time>
      </trkpt>
      <trkpt lat="43.34159" lon="5.96216">
        <ele>393.32</ele>
        <time>2018-05-25T09:19:09Z</time>
      </trkpt>
      <trkpt lat="43.34155" lon="5.96208">
        <ele>393.32</ele>
        <time>2018-05-25T09:19:10Z</time>
      </trkpt>
      <trkpt lat="43.34151" lon="5.96201">
        <ele>393.32</ele>
        <time>2018-05-25T09:19:11Z</time>
      </trkpt>
      <trkpt lat="43.34147" lon="5.96194">
        <ele>393.32</ele>
        <time>2018-05-25T09:19:12Z</time>
      </trkpt>
      <trkpt lat="43.34143" lon="5.96188">
        <ele>393.32</ele>
        <time>2018-05-25T09:19:13Z</time>
      </trkpt>
      <trkpt lat="43.34098" lon="5.96126">
        <ele>394.76</ele>
        <time>2018-05-25T09:19:23Z</time>
      </trkpt>
      <trkpt lat="43.34049" lon="5.96023">
        <ele>396.2</ele>
        <time>2018-05-25T09:19:37Z</time>
      </trkpt>
      <trkpt lat="43.34015" lon="5.9599">
        <ele>396.68</ele>
        <time>2018-05-25T09:19:44Z</time>
      </trkpt>
      <trkpt lat="43.34009" lon="5.95988">
        <ele>396.68</ele>
        <time>2018-05-25T09:19:45Z</time>
      </trkpt>
      <trkpt lat="43.34003" lon="5.95987">
        <ele>396.68</ele>
        <time>2018-05-25T09:19:46Z</time>
      </trkpt>
      <trkpt lat="43.33997" lon="5.95988">
        <ele>396.68</ele>
        <time>2018-05-25T09:19:47Z</time>
      </trkpt>
      <trkpt lat="43.33991" lon="5.9599">
        <ele>397.16</ele>
        <time>2018-05-25T09:19:48Z</time>
      </trkpt>
      <trkpt lat="43.33986" lon="5.95993">
        <ele>397.16</ele>
        <time>2018-05-25T09:19:49Z</time>
      </trkpt>
      <trkpt lat="43.3398" lon="5.95997">
        <ele>397.64</ele>
        <time>2018-05-25T09:19:50Z</time>
      </trkpt>
      <trkpt lat="43.33965" lon="5.96008">
        <ele>398.6</ele>
        <time>2018-05-25T09:19:53Z</time>
      </trkpt>
      <trkpt lat="43.3396" lon="5.96009">
        <ele>399.08</ele>
        <time>2018-05-25T09:19:54Z</time>
      </trkpt>
      <trkpt lat="43.33954" lon="5.96009">
        <ele>399.57</ele>
        <time>2018-05-25T09:19:55Z</time>
      </trkpt>
      <trkpt lat="43.33949" lon="5.96006">
        <ele>400.05</ele>
        <time>2018-05-25T09:19:56Z</time>
      </trkpt>
      <trkpt lat="43.33945" lon="5.96002">
        <ele>400.53</ele>
        <time>2018-05-25T09:19:57Z</time>
      </trkpt>
      <trkpt lat="43.33942" lon="5.95996">
        <ele>401.01</ele>
        <time>2018-05-25T09:19:58Z</time>
      </trkpt>
      <trkpt lat="43.33939" lon="5.9599">
        <ele>401.49</ele>
        <time>2018-05-25T09:19:59Z</time>
      </trkpt>
      <trkpt lat="43.33918" lon="5.9593">
        <ele>400.53</ele>
        <time>2018-05-25T09:20:08Z</time>
      </trkpt>
      <trkpt lat="43.33914" lon="5.95886">
        <ele>399.08</ele>
        <time>2018-05-25T09:20:14Z</time>
      </trkpt>
      <trkpt lat="43.33915" lon="5.95878">
        <ele>399.08</ele>
        <time>2018-05-25T09:20:15Z</time>
      </trkpt>
      <trkpt lat="43.33918" lon="5.95872">
        <ele>399.08</ele>
        <time>2018-05-25T09:20:16Z</time>
      </trkpt>
      <trkpt lat="43.33922" lon="5.95867">
        <ele>399.57</ele>
        <time>2018-05-25T09:20:17Z</time>
      </trkpt>
      <trkpt lat="43.33926" lon="5.95862">
        <ele>399.57</ele>
        <time>2018-05-25T09:20:18Z</time>
      </trkpt>
      <trkpt lat="43.3398" lon="5.95807">
        <ele>403.89</ele>
        <time>2018-05-25T09:20:31Z</time>
      </trkpt>
      <trkpt lat="43.33983" lon="5.95802">
        <ele>404.37</ele>
        <time>2018-05-25T09:20:32Z</time>
      </trkpt>
      <trkpt lat="43.33986" lon="5.95795">
        <ele>404.85</ele>
        <time>2018-05-25T09:20:33Z</time>
      </trkpt>
      <trkpt lat="43.33988" lon="5.95789">
        <ele>405.33</ele>
        <time>2018-05-25T09:20:34Z</time>
      </trkpt>
      <trkpt lat="43.3399" lon="5.95782">
        <ele>405.81</ele>
        <time>2018-05-25T09:20:35Z</time>
      </trkpt>
      <trkpt lat="43.34011" lon="5.95708">
        <ele>410.62</ele>
        <time>2018-05-25T09:20:46Z</time>
      </trkpt>
      <trkpt lat="43.34012" lon="5.957">
        <ele>411.1</ele>
        <time>2018-05-25T09:20:47Z</time>
      </trkpt>
      <trkpt lat="43.34013" lon="5.95692">
        <ele>411.58</ele>
        <time>2018-05-25T09:20:48Z</time>
      </trkpt>
      <trkpt lat="43.34014" lon="5.95684">
        <ele>411.58</ele>
        <time>2018-05-25T09:20:49Z</time>
      </trkpt>
      <trkpt lat="43.34014" lon="5.95676">
        <ele>412.06</ele>
        <time>2018-05-25T09:20:50Z</time>
      </trkpt>
      <trkpt lat="43.34018" lon="5.95528">
        <ele>412.54</ele>
        <time>2018-05-25T09:21:07Z</time>
      </trkpt>
      <trkpt lat="43.34032" lon="5.95371">
        <ele>411.1</ele>
        <time>2018-05-25T09:21:23Z</time>
      </trkpt>
      <trkpt lat="43.34041" lon="5.95224">
        <ele>412.54</ele>
        <time>2018-05-25T09:21:38Z</time>
      </trkpt>
      <trkpt lat="43.3406" lon="5.95084">
        <ele>414.95</ele>
        <time>2018-05-25T09:21:54Z</time>
      </trkpt>
      <trkpt lat="43.34066" lon="5.95015">
        <ele>418.31</ele>
        <time>2018-05-25T09:22:02Z</time>
      </trkpt>
      <trkpt lat="43.34068" lon="5.95006">
        <ele>418.79</ele>
        <time>2018-05-25T09:22:03Z</time>
      </trkpt>
      <trkpt lat="43.34096" lon="5.94934">
        <ele>421.19</ele>
        <time>2018-05-25T09:22:13Z</time>
      </trkpt>
      <trkpt lat="43.34183" lon="5.94833">
        <ele>424.08</ele>
        <time>2018-05-25T09:22:30Z</time>
      </trkpt>
      <trkpt lat="43.34195" lon="5.9482">
        <ele>424.08</ele>
        <time>2018-05-25T09:22:32Z</time>
      </trkpt>
      <trkpt lat="43.342" lon="5.94813">
        <ele>424.08</ele>
        <time>2018-05-25T09:22:33Z</time>
      </trkpt>
      <trkpt lat="43.34205" lon="5.94805">
        <ele>424.08</ele>
        <time>2018-05-25T09:22:34Z</time>
      </trkpt>
      <trkpt lat="43.34209" lon="5.94797">
        <ele>424.08</ele>
        <time>2018-05-25T09:22:35Z</time>
      </trkpt>
      <trkpt lat="43.34213" lon="5.94789">
        <ele>424.08</ele>
        <time>2018-05-25T09:22:36Z</time>
      </trkpt>
      <trkpt lat="43.34217" lon="5.9478">
        <ele>424.08</ele>
        <time>2018-05-25T09:22:37Z</time>
      </trkpt>
      <trkpt lat="43.34247" lon="5.94693">
        <ele>428.4</ele>
        <time>2018-05-25T09:22:50Z</time>
      </trkpt>
      <trkpt lat="43.3427" lon="5.94598">
        <ele>435.13</ele>
        <time>2018-05-25T09:23:06Z</time>
      </trkpt>
      <trkpt lat="43.34271" lon="5.94518">
        <ele>438.02</ele>
        <time>2018-05-25T09:23:21Z</time>
      </trkpt>
      <trkpt lat="43.34269" lon="5.94446">
        <ele>438.5</ele>
        <time>2018-05-25T09:23:36Z</time>
      </trkpt>
      <trkpt lat="43.34268" lon="5.94381">
        <ele>438.98</ele>
        <time>2018-05-25T09:23:50Z</time>
      </trkpt>
      <trkpt lat="43.34265" lon="5.94348">
        <ele>437.54</ele>
        <time>2018-05-25T09:23:57Z</time>
      </trkpt>
      <trkpt lat="43.34264" lon="5.94341">
        <ele>437.06</ele>
        <time>2018-05-25T09:23:58Z</time>
      </trkpt>
      <trkpt lat="43.34263" lon="5.94326">
        <ele>436.58</ele>
        <time>2018-05-25T09:24:00Z</time>
      </trkpt>
      <trkpt lat="43.34262" lon="5.94318">
        <ele>436.1</ele>
        <time>2018-05-25T09:24:01Z</time>
      </trkpt>
      <trkpt lat="43.34263" lon="5.9431">
        <ele>436.1</ele>
        <time>2018-05-25T09:24:02Z</time>
      </trkpt>
      <trkpt lat="43.34265" lon="5.94303">
        <ele>435.61</ele>
        <time>2018-05-25T09:24:03Z</time>
      </trkpt>
      <trkpt lat="43.34267" lon="5.94296">
        <ele>435.61</ele>
        <time>2018-05-25T09:24:04Z</time>
      </trkpt>
      <trkpt lat="43.3427" lon="5.94289">
        <ele>435.13</ele>
        <time>2018-05-25T09:24:05Z</time>
      </trkpt>
      <trkpt lat="43.34274" lon="5.94283">
        <ele>435.13</ele>
        <time>2018-05-25T09:24:06Z</time>
      </trkpt>
      <trkpt lat="43.34279" lon="5.94277">
        <ele>435.13</ele>
        <time>2018-05-25T09:24:07Z</time>
      </trkpt>
      <trkpt lat="43.34283" lon="5.94272">
        <ele>434.65</ele>
        <time>2018-05-25T09:24:08Z</time>
      </trkpt>
      <trkpt lat="43.34288" lon="5.94267">
        <ele>434.65</ele>
        <time>2018-05-25T09:24:09Z</time>
      </trkpt>
      <trkpt lat="43.34292" lon="5.94263">
        <ele>434.65</ele>
        <time>2018-05-25T09:24:10Z</time>
      </trkpt>
      <trkpt lat="43.34297" lon="5.9426">
        <ele>434.65</ele>
        <time>2018-05-25T09:24:11Z</time>
      </trkpt>
      <trkpt lat="43.34302" lon="5.94259">
        <ele>434.65</ele>
        <time>2018-05-25T09:24:12Z</time>
      </trkpt>
      <trkpt lat="43.34307" lon="5.94258">
        <ele>434.65</ele>
        <time>2018-05-25T09:24:13Z</time>
      </trkpt>
      <trkpt lat="43.34311" lon="5.94258">
        <ele>434.65</ele>
        <time>2018-05-25T09:24:14Z</time>
      </trkpt>
      <trkpt lat="43.34315" lon="5.94259">
        <ele>435.13</ele>
        <time>2018-05-25T09:24:15Z</time>
      </trkpt>
      <trkpt lat="43.34335" lon="5.94248">
        <ele>436.1</ele>
        <time>2018-05-25T09:24:21Z</time>
      </trkpt>
      <trkpt lat="43.34338" lon="5.94243">
        <ele>436.58</ele>
        <time>2018-05-25T09:24:22Z</time>
      </trkpt>
      <trkpt lat="43.34353" lon="5.94208">
        <ele>437.54</ele>
        <time>2018-05-25T09:24:28Z</time>
      </trkpt>
      <trkpt lat="43.34356" lon="5.94203">
        <ele>437.54</ele>
        <time>2018-05-25T09:24:29Z</time>
      </trkpt>
      <trkpt lat="43.34364" lon="5.9419">
        <ele>438.5</ele>
        <time>2018-05-25T09:24:32Z</time>
      </trkpt>
      <trkpt lat="43.34389" lon="5.94117">
        <ele>441.86</ele>
        <time>2018-05-25T09:24:45Z</time>
      </trkpt>
      <trkpt lat="43.34429" lon="5.94058">
        <ele>445.71</ele>
        <time>2018-05-25T09:24:59Z</time>
      </trkpt>
      <trkpt lat="43.34456" lon="5.94001">
        <ele>450.03</ele>
        <time>2018-05-25T09:25:12Z</time>
      </trkpt>
      <trkpt lat="43.3448" lon="5.93937">
        <ele>453.4</ele>
        <time>2018-05-25T09:25:26Z</time>
      </trkpt>
      <trkpt lat="43.3452" lon="5.93829">
        <ele>457.24</ele>
        <time>2018-05-25T09:25:45Z</time>
      </trkpt>
      <trkpt lat="43.34549" lon="5.93737">
        <ele>462.05</ele>
        <time>2018-05-25T09:26:02Z</time>
      </trkpt>
      <trkpt lat="43.34584" lon="5.9367">
        <ele>464.93</ele>
        <time>2018-05-25T09:26:18Z</time>
      </trkpt>
      <trkpt lat="43.34606" lon="5.93631">
        <ele>468.3</ele>
        <time>2018-05-25T09:26:29Z</time>
      </trkpt>
      <trkpt lat="43.34609" lon="5.93576">
        <ele>471.18</ele>
        <time>2018-05-25T09:26:44Z</time>
      </trkpt>
      <trkpt lat="43.34608" lon="5.93519">
        <ele>475.51</ele>
        <time>2018-05-25T09:26:59Z</time>
      </trkpt>
      <trkpt lat="43.34607" lon="5.9347">
        <ele>479.35</ele>
        <time>2018-05-25T09:27:13Z</time>
      </trkpt>
      <trkpt lat="43.34606" lon="5.93461">
        <ele>479.84</ele>
        <time>2018-05-25T09:27:16Z</time>
      </trkpt>
      <trkpt lat="43.3461" lon="5.93416">
        <ele>481.28</ele>
        <time>2018-05-25T09:27:28Z</time>
      </trkpt>
      <trkpt lat="43.3462" lon="5.93351">
        <ele>486.08</ele>
        <time>2018-05-25T09:27:42Z</time>
      </trkpt>
      <trkpt lat="43.34626" lon="5.93315">
        <ele>488.49</ele>
        <time>2018-05-25T09:27:49Z</time>
      </trkpt>
      <trkpt lat="43.34649" lon="5.93275">
        <ele>490.41</ele>
        <time>2018-05-25T09:28:01Z</time>
      </trkpt>
      <trkpt lat="43.34692" lon="5.93238">
        <ele>493.77</ele>
        <time>2018-05-25T09:28:18Z</time>
      </trkpt>
      <trkpt lat="43.34702" lon="5.93193">
        <ele>496.66</ele>
        <time>2018-05-25T09:28:29Z</time>
      </trkpt>
      <trkpt lat="43.34693" lon="5.93147">
        <ele>498.1</ele>
        <time>2018-05-25T09:28:41Z</time>
      </trkpt>
      <trkpt lat="43.34694" lon="5.93141">
        <ele>498.1</ele>
        <time>2018-05-25T09:28:42Z</time>
      </trkpt>
      <trkpt lat="43.34696" lon="5.93136">
        <ele>498.1</ele>
        <time>2018-05-25T09:28:43Z</time>
      </trkpt>
      <trkpt lat="43.34698" lon="5.9313">
        <ele>497.62</ele>
        <time>2018-05-25T09:28:44Z</time>
      </trkpt>
      <trkpt lat="43.347" lon="5.93125">
        <ele>497.62</ele>
        <time>2018-05-25T09:28:45Z</time>
      </trkpt>
      <trkpt lat="43.34702" lon="5.93118">
        <ele>497.14</ele>
        <time>2018-05-25T09:28:46Z</time>
      </trkpt>
      <trkpt lat="43.34731" lon="5.93028">
        <ele>494.26</ele>
        <time>2018-05-25T09:28:56Z</time>
      </trkpt>
      <trkpt lat="43.34754" lon="5.92962">
        <ele>491.37</ele>
        <time>2018-05-25T09:29:02Z</time>
      </trkpt>
      <trkpt lat="43.34759" lon="5.92953">
        <ele>490.89</ele>
        <time>2018-05-25T09:29:03Z</time>
      </trkpt>
      <trkpt lat="43.34766" lon="5.92946">
        <ele>489.93</ele>
        <time>2018-05-25T09:29:04Z</time>
      </trkpt>
      <trkpt lat="43.34775" lon="5.92941">
        <ele>489.45</ele>
        <time>2018-05-25T09:29:05Z</time>
      </trkpt>
      <trkpt lat="43.34783" lon="5.92937">
        <ele>488.97</ele>
        <time>2018-05-25T09:29:06Z</time>
      </trkpt>
      <trkpt lat="43.34792" lon="5.92932">
        <ele>488.49</ele>
        <time>2018-05-25T09:29:07Z</time>
      </trkpt>
      <trkpt lat="43.34799" lon="5.92925">
        <ele>488.01</ele>
        <time>2018-05-25T09:29:08Z</time>
      </trkpt>
      <trkpt lat="43.34805" lon="5.92916">
        <ele>487.05</ele>
        <time>2018-05-25T09:29:09Z</time>
      </trkpt>
      <trkpt lat="43.3481" lon="5.92904">
        <ele>486.56</ele>
        <time>2018-05-25T09:29:10Z</time>
      </trkpt>
      <trkpt lat="43.34812" lon="5.92893">
        <ele>486.08</ele>
        <time>2018-05-25T09:29:11Z</time>
      </trkpt>
      <trkpt lat="43.34813" lon="5.9288">
        <ele>485.6</ele>
        <time>2018-05-25T09:29:12Z</time>
      </trkpt>
      <trkpt lat="43.34813" lon="5.92867">
        <ele>484.64</ele>
        <time>2018-05-25T09:29:13Z</time>
      </trkpt>
      <trkpt lat="43.34801" lon="5.92726">
        <ele>475.99</ele>
        <time>2018-05-25T09:29:23Z</time>
      </trkpt>
      <trkpt lat="43.34795" lon="5.92695">
        <ele>474.07</ele>
        <time>2018-05-25T09:29:25Z</time>
      </trkpt>
      <trkpt lat="43.34794" lon="5.92678">
        <ele>472.63</ele>
        <time>2018-05-25T09:29:26Z</time>
      </trkpt>
      <trkpt lat="43.34795" lon="5.92661">
        <ele>471.66</ele>
        <time>2018-05-25T09:29:27Z</time>
      </trkpt>
      <trkpt lat="43.34799" lon="5.92565">
        <ele>466.86</ele>
        <time>2018-05-25T09:29:33Z</time>
      </trkpt>
      <trkpt lat="43.34797" lon="5.92551">
        <ele>465.9</ele>
        <time>2018-05-25T09:29:34Z</time>
      </trkpt>
      <trkpt lat="43.34793" lon="5.92538">
        <ele>464.93</ele>
        <time>2018-05-25T09:29:35Z</time>
      </trkpt>
      <trkpt lat="43.34789" lon="5.92526">
        <ele>463.97</ele>
        <time>2018-05-25T09:29:36Z</time>
      </trkpt>
      <trkpt lat="43.34785" lon="5.92515">
        <ele>463.01</ele>
        <time>2018-05-25T09:29:37Z</time>
      </trkpt>
      <trkpt lat="43.34781" lon="5.92503">
        <ele>462.53</ele>
        <time>2018-05-25T09:29:38Z</time>
      </trkpt>
      <trkpt lat="43.34778" lon="5.92492">
        <ele>461.57</ele>
        <time>2018-05-25T09:29:39Z</time>
      </trkpt>
      <trkpt lat="43.34778" lon="5.92481">
        <ele>460.61</ele>
        <time>2018-05-25T09:29:40Z</time>
      </trkpt>
      <trkpt lat="43.34779" lon="5.9247">
        <ele>460.13</ele>
        <time>2018-05-25T09:29:41Z</time>
      </trkpt>
      <trkpt lat="43.34783" lon="5.92461">
        <ele>459.65</ele>
        <time>2018-05-25T09:29:42Z</time>
      </trkpt>
      <trkpt lat="43.34791" lon="5.92456">
        <ele>459.17</ele>
        <time>2018-05-25T09:29:43Z</time>
      </trkpt>
      <trkpt lat="43.34799" lon="5.92453">
        <ele>458.21</ele>
        <time>2018-05-25T09:29:44Z</time>
      </trkpt>
      <trkpt lat="43.34808" lon="5.92452">
        <ele>457.72</ele>
        <time>2018-05-25T09:29:45Z</time>
      </trkpt>
      <trkpt lat="43.34865" lon="5.92436">
        <ele>453.88</ele>
        <time>2018-05-25T09:29:51Z</time>
      </trkpt>
      <trkpt lat="43.34874" lon="5.92436">
        <ele>453.4</ele>
        <time>2018-05-25T09:29:52Z</time>
      </trkpt>
      <trkpt lat="43.34883" lon="5.92439">
        <ele>452.44</ele>
        <time>2018-05-25T09:29:53Z</time>
      </trkpt>
      <trkpt lat="43.34891" lon="5.92444">
        <ele>451.96</ele>
        <time>2018-05-25T09:29:54Z</time>
      </trkpt>
      <trkpt lat="43.34898" lon="5.9245">
        <ele>451.48</ele>
        <time>2018-05-25T09:29:55Z</time>
      </trkpt>
      <trkpt lat="43.34906" lon="5.92457">
        <ele>451</ele>
        <time>2018-05-25T09:29:56Z</time>
      </trkpt>
      <trkpt lat="43.34938" lon="5.92479">
        <ele>449.07</ele>
        <time>2018-05-25T09:30:00Z</time>
      </trkpt>
      <trkpt lat="43.34996" lon="5.92506">
        <ele>446.19</ele>
        <time>2018-05-25T09:30:08Z</time>
      </trkpt>
      <trkpt lat="43.35043" lon="5.92528">
        <ele>443.31</ele>
        <time>2018-05-25T09:30:19Z</time>
      </trkpt>
      <trkpt lat="43.35044" lon="5.92524">
        <ele>443.31</ele>
        <time>2018-05-25T09:30:20Z</time>
      </trkpt>
      <trkpt lat="43.35044" lon="5.92519">
        <ele>443.31</ele>
        <time>2018-05-25T09:30:21Z</time>
      </trkpt>
      <trkpt lat="43.35043" lon="5.92513">
        <ele>442.82</ele>
        <time>2018-05-25T09:30:22Z</time>
      </trkpt>
      <trkpt lat="43.3504" lon="5.92509">
        <ele>442.34</ele>
        <time>2018-05-25T09:30:23Z</time>
      </trkpt>
      <trkpt lat="43.35036" lon="5.92505">
        <ele>442.34</ele>
        <time>2018-05-25T09:30:24Z</time>
      </trkpt>
      <trkpt lat="43.35031" lon="5.925">
        <ele>441.86</ele>
        <time>2018-05-25T09:30:25Z</time>
      </trkpt>
      <trkpt lat="43.35026" lon="5.92496">
        <ele>441.38</ele>
        <time>2018-05-25T09:30:26Z</time>
      </trkpt>
      <trkpt lat="43.34973" lon="5.92453">
        <ele>437.06</ele>
        <time>2018-05-25T09:30:36Z</time>
      </trkpt>
      <trkpt lat="43.34969" lon="5.92446">
        <ele>437.06</ele>
        <time>2018-05-25T09:30:37Z</time>
      </trkpt>
      <trkpt lat="43.34954" lon="5.92425">
        <ele>437.06</ele>
        <time>2018-05-25T09:30:47Z</time>
      </trkpt>
      <trkpt lat="43.34953" lon="5.92424">
        <ele>437.06</ele>
        <time>2018-05-25T09:30:48Z</time>
      </trkpt>
      <trkpt lat="43.34954" lon="5.92419">
        <ele>437.06</ele>
        <time>2018-05-25T09:30:49Z</time>
      </trkpt>
      <trkpt lat="43.34951" lon="5.92408">
        <ele>437.54</ele>
        <time>2018-05-25T09:30:57Z</time>
      </trkpt>
      <trkpt lat="43.34948" lon="5.92408">
        <ele>437.54</ele>
        <time>2018-05-25T09:30:59Z</time>
      </trkpt>
      <trkpt lat="43.34947" lon="5.92404">
        <ele>437.54</ele>
        <time>2018-05-25T09:31:00Z</time>
      </trkpt>
      <trkpt lat="43.34945" lon="5.92398">
        <ele>437.54</ele>
        <time>2018-05-25T09:31:02Z</time>
      </trkpt>
      <trkpt lat="43.34942" lon="5.92381">
        <ele>437.54</ele>
        <time>2018-05-25T09:31:04Z</time>
      </trkpt>
      <trkpt lat="43.3494" lon="5.9237">
        <ele>437.54</ele>
        <time>2018-05-25T09:31:05Z</time>
      </trkpt>
      <trkpt lat="43.34935" lon="5.92356">
        <ele>437.54</ele>
        <time>2018-05-25T09:31:06Z</time>
      </trkpt>
      <trkpt lat="43.34923" lon="5.92331">
        <ele>438.02</ele>
        <time>2018-05-25T09:31:07Z</time>
      </trkpt>
      <trkpt lat="43.34917" lon="5.92322">
        <ele>438.02</ele>
        <time>2018-05-25T09:31:08Z</time>
      </trkpt>
      <trkpt lat="43.3491" lon="5.92315">
        <ele>438.02</ele>
        <time>2018-05-25T09:31:09Z</time>
      </trkpt>
      <trkpt lat="43.34897" lon="5.92308">
        <ele>438.02</ele>
        <time>2018-05-25T09:31:11Z</time>
      </trkpt>
      <trkpt lat="43.34878" lon="5.92299">
        <ele>438.02</ele>
        <time>2018-05-25T09:31:13Z</time>
      </trkpt>
      <trkpt lat="43.34831" lon="5.92287">
        <ele>437.54</ele>
        <time>2018-05-25T09:31:18Z</time>
      </trkpt>
      <trkpt lat="43.34797" lon="5.92278">
        <ele>437.06</ele>
        <time>2018-05-25T09:31:22Z</time>
      </trkpt>
      <trkpt lat="43.3477" lon="5.9227">
        <ele>437.06</ele>
        <time>2018-05-25T09:31:26Z</time>
      </trkpt>
      <trkpt lat="43.34736" lon="5.92257">
        <ele>436.58</ele>
        <time>2018-05-25T09:31:32Z</time>
      </trkpt>
      <trkpt lat="43.34731" lon="5.92257">
        <ele>436.58</ele>
        <time>2018-05-25T09:31:33Z</time>
      </trkpt>
      <trkpt lat="43.34729" lon="5.92256">
        <ele>436.58</ele>
        <time>2018-05-25T09:31:34Z</time>
      </trkpt>
      <trkpt lat="43.3473" lon="5.9225">
        <ele>436.1</ele>
        <time>2018-05-25T09:31:35Z</time>
      </trkpt>
      <trkpt lat="43.34729" lon="5.92247">
        <ele>435.61</ele>
        <time>2018-05-25T09:31:36Z</time>
      </trkpt>
      <trkpt lat="43.34725" lon="5.92241">
        <ele>435.13</ele>
        <time>2018-05-25T09:31:38Z</time>
      </trkpt>
      <trkpt lat="43.34722" lon="5.92239">
        <ele>435.13</ele>
        <time>2018-05-25T09:31:39Z</time>
      </trkpt>
      <trkpt lat="43.34721" lon="5.92236">
        <ele>435.13</ele>
        <time>2018-05-25T09:31:40Z</time>
      </trkpt>
      <trkpt lat="43.34722" lon="5.92233">
        <ele>434.65</ele>
        <time>2018-05-25T09:31:41Z</time>
      </trkpt>
      <trkpt lat="43.34722" lon="5.92232">
        <ele>434.17</ele>
        <time>2018-05-25T09:31:42Z</time>
      </trkpt>
      <trkpt lat="43.34723" lon="5.92225">
        <ele>433.69</ele>
        <time>2018-05-25T09:31:46Z</time>
      </trkpt>
      <trkpt lat="43.34725" lon="5.92221">
        <ele>433.69</ele>
        <time>2018-05-25T09:31:47Z</time>
      </trkpt>
      <trkpt lat="43.34726" lon="5.92216">
        <ele>433.69</ele>
        <time>2018-05-25T09:31:48Z</time>
      </trkpt>
      <trkpt lat="43.34755" lon="5.92173">
        <ele>433.21</ele>
        <time>2018-05-25T09:31:57Z</time>
      </trkpt>
      <trkpt lat="43.3478" lon="5.92157">
        <ele>432.73</ele>
        <time>2018-05-25T09:32:01Z</time>
      </trkpt>
      <trkpt lat="43.34819" lon="5.92121">
        <ele>431.77</ele>
        <time>2018-05-25T09:32:08Z</time>
      </trkpt>
      <trkpt lat="43.34839" lon="5.92094">
        <ele>430.81</ele>
        <time>2018-05-25T09:32:12Z</time>
      </trkpt>
      <trkpt lat="43.34843" lon="5.92087">
        <ele>430.33</ele>
        <time>2018-05-25T09:32:13Z</time>
      </trkpt>
      <trkpt lat="43.34891" lon="5.91947">
        <ele>420.23</ele>
        <time>2018-05-25T09:32:28Z</time>
      </trkpt>
      <trkpt lat="43.34945" lon="5.91805">
        <ele>412.54</ele>
        <time>2018-05-25T09:32:43Z</time>
      </trkpt>
      <trkpt lat="43.35005" lon="5.91662">
        <ele>408.22</ele>
        <time>2018-05-25T09:33:00Z</time>
      </trkpt>
      <trkpt lat="43.35086" lon="5.91496">
        <ele>401.49</ele>
        <time>2018-05-25T09:33:17Z</time>
      </trkpt>
      <trkpt lat="43.35131" lon="5.91402">
        <ele>398.12</ele>
        <time>2018-05-25T09:33:26Z</time>
      </trkpt>
      <trkpt lat="43.35137" lon="5.91397">
        <ele>397.64</ele>
        <time>2018-05-25T09:33:27Z</time>
      </trkpt>
      <trkpt lat="43.35145" lon="5.91393">
        <ele>397.64</ele>
        <time>2018-05-25T09:33:28Z</time>
      </trkpt>
      <trkpt lat="43.35229" lon="5.91341">
        <ele>394.28</ele>
        <time>2018-05-25T09:33:39Z</time>
      </trkpt>
      <trkpt lat="43.35299" lon="5.91299">
        <ele>392.36</ele>
        <time>2018-05-25T09:33:51Z</time>
      </trkpt>
      <trkpt lat="43.35303" lon="5.91295">
        <ele>392.36</ele>
        <time>2018-05-25T09:33:52Z</time>
      </trkpt>
      <trkpt lat="43.35308" lon="5.9129">
        <ele>392.36</ele>
        <time>2018-05-25T09:33:53Z</time>
      </trkpt>
      <trkpt lat="43.35312" lon="5.91285">
        <ele>391.87</ele>
        <time>2018-05-25T09:33:54Z</time>
      </trkpt>
      <trkpt lat="43.35316" lon="5.91278">
        <ele>391.87</ele>
        <time>2018-05-25T09:33:55Z</time>
      </trkpt>
      <trkpt lat="43.3532" lon="5.91271">
        <ele>391.87</ele>
        <time>2018-05-25T09:33:56Z</time>
      </trkpt>
      <trkpt lat="43.35366" lon="5.91174">
        <ele>387.55</ele>
        <time>2018-05-25T09:34:06Z</time>
      </trkpt>
      <trkpt lat="43.3537" lon="5.91162">
        <ele>387.07</ele>
        <time>2018-05-25T09:34:07Z</time>
      </trkpt>
      <trkpt lat="43.35372" lon="5.9115">
        <ele>386.59</ele>
        <time>2018-05-25T09:34:08Z</time>
      </trkpt>
      <trkpt lat="43.35374" lon="5.91137">
        <ele>386.59</ele>
        <time>2018-05-25T09:34:09Z</time>
      </trkpt>
      <trkpt lat="43.35375" lon="5.91125">
        <ele>386.59</ele>
        <time>2018-05-25T09:34:10Z</time>
      </trkpt>
      <trkpt lat="43.35398" lon="5.90975">
        <ele>384.66</ele>
        <time>2018-05-25T09:34:23Z</time>
      </trkpt>
      <trkpt lat="43.35426" lon="5.90884">
        <ele>383.7</ele>
        <time>2018-05-25T09:34:32Z</time>
      </trkpt>
      <trkpt lat="43.35502" lon="5.90754">
        <ele>382.74</ele>
        <time>2018-05-25T09:34:48Z</time>
      </trkpt>
      <trkpt lat="43.35517" lon="5.90729">
        <ele>382.26</ele>
        <time>2018-05-25T09:34:51Z</time>
      </trkpt>
      <trkpt lat="43.3552" lon="5.9072">
        <ele>382.26</ele>
        <time>2018-05-25T09:34:52Z</time>
      </trkpt>
      <trkpt lat="43.35522" lon="5.90711">
        <ele>382.26</ele>
        <time>2018-05-25T09:34:53Z</time>
      </trkpt>
      <trkpt lat="43.35523" lon="5.90701">
        <ele>382.74</ele>
        <time>2018-05-25T09:34:54Z</time>
      </trkpt>
      <trkpt lat="43.35524" lon="5.90691">
        <ele>383.22</ele>
        <time>2018-05-25T09:34:55Z</time>
      </trkpt>
      <trkpt lat="43.35532" lon="5.90637">
        <ele>385.63</ele>
        <time>2018-05-25T09:35:01Z</time>
      </trkpt>
      <trkpt lat="43.35535" lon="5.90629">
        <ele>386.11</ele>
        <time>2018-05-25T09:35:02Z</time>
      </trkpt>
      <trkpt lat="43.35539" lon="5.90622">
        <ele>386.11</ele>
        <time>2018-05-25T09:35:03Z</time>
      </trkpt>
      <trkpt lat="43.35543" lon="5.90616">
        <ele>386.11</ele>
        <time>2018-05-25T09:35:04Z</time>
      </trkpt>
      <trkpt lat="43.35548" lon="5.9061">
        <ele>386.59</ele>
        <time>2018-05-25T09:35:05Z</time>
      </trkpt>
      <trkpt lat="43.35554" lon="5.90604">
        <ele>386.59</ele>
        <time>2018-05-25T09:35:06Z</time>
      </trkpt>
      <trkpt lat="43.35637" lon="5.90504">
        <ele>386.11</ele>
        <time>2018-05-25T09:35:20Z</time>
      </trkpt>
      <trkpt lat="43.35702" lon="5.90396">
        <ele>386.59</ele>
        <time>2018-05-25T09:35:33Z</time>
      </trkpt>
      <trkpt lat="43.3576" lon="5.90258">
        <ele>386.59</ele>
        <time>2018-05-25T09:35:48Z</time>
      </trkpt>
      <trkpt lat="43.35811" lon="5.90112">
        <ele>391.39</ele>
        <time>2018-05-25T09:36:03Z</time>
      </trkpt>
      <trkpt lat="43.35852" lon="5.9002">
        <ele>392.36</ele>
        <time>2018-05-25T09:36:14Z</time>
      </trkpt>
      <trkpt lat="43.35853" lon="5.90012">
        <ele>392.36</ele>
        <time>2018-05-25T09:36:15Z</time>
      </trkpt>
      <trkpt lat="43.35856" lon="5.89897">
        <ele>393.8</ele>
        <time>2018-05-25T09:36:29Z</time>
      </trkpt>
      <trkpt lat="43.35852" lon="5.89853">
        <ele>393.8</ele>
        <time>2018-05-25T09:36:34Z</time>
      </trkpt>
      <trkpt lat="43.35853" lon="5.89844">
        <ele>393.8</ele>
        <time>2018-05-25T09:36:35Z</time>
      </trkpt>
      <trkpt lat="43.35854" lon="5.89835">
        <ele>393.8</ele>
        <time>2018-05-25T09:36:36Z</time>
      </trkpt>
      <trkpt lat="43.35871" lon="5.89747">
        <ele>394.76</ele>
        <time>2018-05-25T09:36:47Z</time>
      </trkpt>
      <trkpt lat="43.35872" lon="5.8974">
        <ele>395.24</ele>
        <time>2018-05-25T09:36:48Z</time>
      </trkpt>
      <trkpt lat="43.35889" lon="5.8965">
        <ele>398.6</ele>
        <time>2018-05-25T09:37:01Z</time>
      </trkpt>
      <trkpt lat="43.35907" lon="5.89554">
        <ele>400.53</ele>
        <time>2018-05-25T09:37:17Z</time>
      </trkpt>
      <trkpt lat="43.35916" lon="5.89438">
        <ele>400.53</ele>
        <time>2018-05-25T09:37:32Z</time>
      </trkpt>
      <trkpt lat="43.3592" lon="5.89323">
        <ele>401.97</ele>
        <time>2018-05-25T09:37:47Z</time>
      </trkpt>
      <trkpt lat="43.3592" lon="5.89316">
        <ele>401.97</ele>
        <time>2018-05-25T09:37:48Z</time>
      </trkpt>
      <trkpt lat="43.35921" lon="5.89309">
        <ele>401.97</ele>
        <time>2018-05-25T09:37:49Z</time>
      </trkpt>
      <trkpt lat="43.3593" lon="5.89208">
        <ele>405.33</ele>
        <time>2018-05-25T09:38:03Z</time>
      </trkpt>
      <trkpt lat="43.35937" lon="5.89114">
        <ele>410.14</ele>
        <time>2018-05-25T09:38:19Z</time>
      </trkpt>
      <trkpt lat="43.35951" lon="5.89017">
        <ele>414.47</ele>
        <time>2018-05-25T09:38:36Z</time>
      </trkpt>
      <trkpt lat="43.35973" lon="5.88893">
        <ele>415.91</ele>
        <time>2018-05-25T09:38:54Z</time>
      </trkpt>
      <trkpt lat="43.35972" lon="5.88803">
        <ele>418.31</ele>
        <time>2018-05-25T09:39:09Z</time>
      </trkpt>
      <trkpt lat="43.35964" lon="5.8869">
        <ele>422.16</ele>
        <time>2018-05-25T09:39:28Z</time>
      </trkpt>
      <trkpt lat="43.35962" lon="5.88659">
        <ele>423.12</ele>
        <time>2018-05-25T09:39:33Z</time>
      </trkpt>
      <trkpt lat="43.35962" lon="5.88654">
        <ele>423.12</ele>
        <time>2018-05-25T09:39:34Z</time>
      </trkpt>
      <trkpt lat="43.35968" lon="5.88546">
        <ele>427.44</ele>
        <time>2018-05-25T09:39:52Z</time>
      </trkpt>
      <trkpt lat="43.35989" lon="5.88438">
        <ele>430.33</ele>
        <time>2018-05-25T09:40:10Z</time>
      </trkpt>
      <trkpt lat="43.35997" lon="5.88405">
        <ele>431.29</ele>
        <time>2018-05-25T09:40:15Z</time>
      </trkpt>
      <trkpt lat="43.35999" lon="5.884">
        <ele>431.29</ele>
        <time>2018-05-25T09:40:16Z</time>
      </trkpt>
      <trkpt lat="43.36049" lon="5.88286">
        <ele>432.25</ele>
        <time>2018-05-25T09:40:37Z</time>
      </trkpt>
      <trkpt lat="43.36098" lon="5.88207">
        <ele>434.17</ele>
        <time>2018-05-25T09:40:54Z</time>
      </trkpt>
      <trkpt lat="43.36131" lon="5.8816">
        <ele>435.61</ele>
        <time>2018-05-25T09:41:03Z</time>
      </trkpt>
      <trkpt lat="43.36139" lon="5.88141">
        <ele>436.58</ele>
        <time>2018-05-25T09:41:06Z</time>
      </trkpt>
      <trkpt lat="43.36141" lon="5.88134">
        <ele>437.06</ele>
        <time>2018-05-25T09:41:07Z</time>
      </trkpt>
      <trkpt lat="43.36142" lon="5.88127">
        <ele>437.54</ele>
        <time>2018-05-25T09:41:08Z</time>
      </trkpt>
      <trkpt lat="43.36143" lon="5.88119">
        <ele>438.02</ele>
        <time>2018-05-25T09:41:09Z</time>
      </trkpt>
      <trkpt lat="43.36143" lon="5.88112">
        <ele>438.5</ele>
        <time>2018-05-25T09:41:10Z</time>
      </trkpt>
      <trkpt lat="43.36142" lon="5.88105">
        <ele>438.98</ele>
        <time>2018-05-25T09:41:11Z</time>
      </trkpt>
      <trkpt lat="43.3614" lon="5.88098">
        <ele>439.46</ele>
        <time>2018-05-25T09:41:12Z</time>
      </trkpt>
      <trkpt lat="43.36138" lon="5.88091">
        <ele>439.94</ele>
        <time>2018-05-25T09:41:13Z</time>
      </trkpt>
      <trkpt lat="43.36105" lon="5.87943">
        <ele>445.23</ele>
        <time>2018-05-25T09:41:34Z</time>
      </trkpt>
      <trkpt lat="43.36093" lon="5.87855">
        <ele>449.55</ele>
        <time>2018-05-25T09:41:49Z</time>
      </trkpt>
      <trkpt lat="43.36084" lon="5.87755">
        <ele>453.4</ele>
        <time>2018-05-25T09:42:07Z</time>
      </trkpt>
      <trkpt lat="43.3609" lon="5.87661">
        <ele>456.28</ele>
        <time>2018-05-25T09:42:23Z</time>
      </trkpt>
      <trkpt lat="43.36091" lon="5.87548">
        <ele>460.13</ele>
        <time>2018-05-25T09:42:41Z</time>
      </trkpt>
      <trkpt lat="43.36089" lon="5.8748">
        <ele>460.13</ele>
        <time>2018-05-25T09:42:54Z</time>
      </trkpt>
      <trkpt lat="43.36089" lon="5.87474">
        <ele>460.61</ele>
        <time>2018-05-25T09:42:55Z</time>
      </trkpt>
      <trkpt lat="43.36082" lon="5.87431">
        <ele>461.57</ele>
        <time>2018-05-25T09:43:02Z</time>
      </trkpt>
      <trkpt lat="43.36049" lon="5.87335">
        <ele>463.49</ele>
        <time>2018-05-25T09:43:19Z</time>
      </trkpt>
      <trkpt lat="43.36047" lon="5.87329">
        <ele>463.97</ele>
        <time>2018-05-25T09:43:20Z</time>
      </trkpt>
      <trkpt lat="43.36009" lon="5.87219">
        <ele>467.82</ele>
        <time>2018-05-25T09:43:38Z</time>
      </trkpt>
      <trkpt lat="43.35991" lon="5.87144">
        <ele>471.66</ele>
        <time>2018-05-25T09:43:51Z</time>
      </trkpt>
      <trkpt lat="43.35967" lon="5.87037">
        <ele>475.03</ele>
        <time>2018-05-25T09:44:09Z</time>
      </trkpt>
      <trkpt lat="43.35947" lon="5.86946">
        <ele>478.39</ele>
        <time>2018-05-25T09:44:25Z</time>
      </trkpt>
      <trkpt lat="43.35939" lon="5.86917">
        <ele>478.87</ele>
        <time>2018-05-25T09:44:30Z</time>
      </trkpt>
      <trkpt lat="43.35938" lon="5.86911">
        <ele>479.35</ele>
        <time>2018-05-25T09:44:31Z</time>
      </trkpt>
      <trkpt lat="43.3593" lon="5.86876">
        <ele>481.28</ele>
        <time>2018-05-25T09:44:38Z</time>
      </trkpt>
      <trkpt lat="43.35911" lon="5.86829">
        <ele>485.6</ele>
        <time>2018-05-25T09:44:50Z</time>
      </trkpt>
      <trkpt lat="43.35889" lon="5.86803">
        <ele>489.93</ele>
        <time>2018-05-25T09:45:04Z</time>
      </trkpt>
      <trkpt lat="43.35864" lon="5.86777">
        <ele>494.26</ele>
        <time>2018-05-25T09:45:18Z</time>
      </trkpt>
      <trkpt lat="43.35834" lon="5.86741">
        <ele>500.98</ele>
        <time>2018-05-25T09:45:34Z</time>
      </trkpt>
      <trkpt lat="43.35801" lon="5.86728">
        <ele>503.39</ele>
        <time>2018-05-25T09:45:49Z</time>
      </trkpt>
      <trkpt lat="43.35767" lon="5.86727">
        <ele>507.71</ele>
        <time>2018-05-25T09:46:03Z</time>
      </trkpt>
      <trkpt lat="43.35723" lon="5.86743">
        <ele>511.08</ele>
        <time>2018-05-25T09:46:18Z</time>
      </trkpt>
      <trkpt lat="43.35691" lon="5.86753">
        <ele>513.48</ele>
        <time>2018-05-25T09:46:31Z</time>
      </trkpt>
      <trkpt lat="43.35645" lon="5.86763">
        <ele>515.4</ele>
        <time>2018-05-25T09:46:49Z</time>
      </trkpt>
      <trkpt lat="43.35621" lon="5.86798">
        <ele>518.29</ele>
        <time>2018-05-25T09:47:03Z</time>
      </trkpt>
      <trkpt lat="43.35619" lon="5.86803">
        <ele>519.25</ele>
        <time>2018-05-25T09:47:05Z</time>
      </trkpt>
      <trkpt lat="43.35619" lon="5.86806">
        <ele>519.73</ele>
        <time>2018-05-25T09:47:06Z</time>
      </trkpt>
      <trkpt lat="43.35618" lon="5.86809">
        <ele>520.21</ele>
        <time>2018-05-25T09:47:07Z</time>
      </trkpt>
      <trkpt lat="43.35615" lon="5.86821">
        <ele>522.13</ele>
        <time>2018-05-25T09:47:11Z</time>
      </trkpt>
      <trkpt lat="43.35615" lon="5.86824">
        <ele>522.61</ele>
        <time>2018-05-25T09:47:12Z</time>
      </trkpt>
      <trkpt lat="43.35615" lon="5.86826">
        <ele>523.09</ele>
        <time>2018-05-25T09:47:13Z</time>
      </trkpt>
      <trkpt lat="43.35615" lon="5.8683">
        <ele>524.06</ele>
        <time>2018-05-25T09:47:14Z</time>
      </trkpt>
      <trkpt lat="43.35615" lon="5.86833">
        <ele>524.54</ele>
        <time>2018-05-25T09:47:15Z</time>
      </trkpt>
      <trkpt lat="43.35615" lon="5.86837">
        <ele>525.02</ele>
        <time>2018-05-25T09:47:16Z</time>
      </trkpt>
      <trkpt lat="43.35615" lon="5.86841">
        <ele>525.5</ele>
        <time>2018-05-25T09:47:17Z</time>
      </trkpt>
      <trkpt lat="43.35616" lon="5.86844">
        <ele>525.98</ele>
        <time>2018-05-25T09:47:18Z</time>
      </trkpt>
      <trkpt lat="43.35616" lon="5.86848">
        <ele>526.46</ele>
        <time>2018-05-25T09:47:19Z</time>
      </trkpt>
      <trkpt lat="43.35616" lon="5.86851">
        <ele>526.94</ele>
        <time>2018-05-25T09:47:20Z</time>
      </trkpt>
      <trkpt lat="43.35615" lon="5.86854">
        <ele>527.42</ele>
        <time>2018-05-25T09:47:21Z</time>
      </trkpt>
      <trkpt lat="43.35615" lon="5.86857">
        <ele>527.9</ele>
        <time>2018-05-25T09:47:22Z</time>
      </trkpt>
      <trkpt lat="43.35614" lon="5.8686">
        <ele>528.38</ele>
        <time>2018-05-25T09:47:23Z</time>
      </trkpt>
      <trkpt lat="43.35612" lon="5.86862">
        <ele>528.86</ele>
        <time>2018-05-25T09:47:24Z</time>
      </trkpt>
      <trkpt lat="43.35611" lon="5.86864">
        <ele>529.34</ele>
        <time>2018-05-25T09:47:25Z</time>
      </trkpt>
      <trkpt lat="43.35609" lon="5.86864">
        <ele>529.82</ele>
        <time>2018-05-25T09:47:26Z</time>
      </trkpt>
      <trkpt lat="43.35607" lon="5.86865">
        <ele>530.3</ele>
        <time>2018-05-25T09:47:27Z</time>
      </trkpt>
      <trkpt lat="43.35606" lon="5.86865">
        <ele>530.3</ele>
        <time>2018-05-25T09:47:28Z</time>
      </trkpt>
      <trkpt lat="43.356" lon="5.86869">
        <ele>528.38</ele>
        <time>2018-05-25T09:47:30Z</time>
      </trkpt>
      <trkpt lat="43.35598" lon="5.86869">
        <ele>527.9</ele>
        <time>2018-05-25T09:47:31Z</time>
      </trkpt>
      <trkpt lat="43.35596" lon="5.86867">
        <ele>527.9</ele>
        <time>2018-05-25T09:47:32Z</time>
      </trkpt>
      <trkpt lat="43.35591" lon="5.86831">
        <ele>533.19</ele>
        <time>2018-05-25T09:47:45Z</time>
      </trkpt>
      <trkpt lat="43.35572" lon="5.86787">
        <ele>536.55</ele>
        <time>2018-05-25T09:47:59Z</time>
      </trkpt>
      <trkpt lat="43.35544" lon="5.86744">
        <ele>538.96</ele>
        <time>2018-05-25T09:48:14Z</time>
      </trkpt>
      <trkpt lat="43.35515" lon="5.86695">
        <ele>540.4</ele>
        <time>2018-05-25T09:48:31Z</time>
      </trkpt>
      <trkpt lat="43.35483" lon="5.86647">
        <ele>543.28</ele>
        <time>2018-05-25T09:48:48Z</time>
      </trkpt>
      <trkpt lat="43.35456" lon="5.8661">
        <ele>544.72</ele>
        <time>2018-05-25T09:49:02Z</time>
      </trkpt>
      <trkpt lat="43.3545" lon="5.86563">
        <ele>550.97</ele>
        <time>2018-05-25T09:49:17Z</time>
      </trkpt>
      <trkpt lat="43.35445" lon="5.86519">
        <ele>553.86</ele>
        <time>2018-05-25T09:49:30Z</time>
      </trkpt>
      <trkpt lat="43.35428" lon="5.86469">
        <ele>557.22</ele>
        <time>2018-05-25T09:49:46Z</time>
      </trkpt>
      <trkpt lat="43.354" lon="5.86439">
        <ele>559.62</ele>
        <time>2018-05-25T09:50:01Z</time>
      </trkpt>
      <trkpt lat="43.35371" lon="5.86405">
        <ele>561.07</ele>
        <time>2018-05-25T09:50:16Z</time>
      </trkpt>
      <trkpt lat="43.35378" lon="5.86369">
        <ele>564.43</ele>
        <time>2018-05-25T09:50:27Z</time>
      </trkpt>
      <trkpt lat="43.35378" lon="5.86313">
        <ele>572.6</ele>
        <time>2018-05-25T09:50:42Z</time>
      </trkpt>
      <trkpt lat="43.35368" lon="5.86259">
        <ele>577.89</ele>
        <time>2018-05-25T09:50:58Z</time>
      </trkpt>
      <trkpt lat="43.35362" lon="5.8621">
        <ele>586.06</ele>
        <time>2018-05-25T09:51:14Z</time>
      </trkpt>
      <trkpt lat="43.3536" lon="5.86165">
        <ele>591.83</ele>
        <time>2018-05-25T09:51:27Z</time>
      </trkpt>
      <trkpt lat="43.3534" lon="5.86116">
        <ele>594.71</ele>
        <time>2018-05-25T09:51:43Z</time>
      </trkpt>
      <trkpt lat="43.35321" lon="5.86078">
        <ele>595.19</ele>
        <time>2018-05-25T09:51:56Z</time>
      </trkpt>
      <trkpt lat="43.3532" lon="5.86076">
        <ele>595.67</ele>
        <time>2018-05-25T09:51:57Z</time>
      </trkpt>
      <trkpt lat="43.35321" lon="5.86051">
        <ele>602.88</ele>
        <time>2018-05-25T09:52:10Z</time>
      </trkpt>
      <trkpt lat="43.35321" lon="5.86043">
        <ele>606.25</ele>
        <time>2018-05-25T09:52:14Z</time>
      </trkpt>
      <trkpt lat="43.35314" lon="5.85998">
        <ele>612.98</ele>
        <time>2018-05-25T09:52:28Z</time>
      </trkpt>
      <trkpt lat="43.35296" lon="5.85959">
        <ele>613.94</ele>
        <time>2018-05-25T09:52:41Z</time>
      </trkpt>
      <trkpt lat="43.35291" lon="5.85941">
        <ele>610.09</ele>
        <time>2018-05-25T09:52:44Z</time>
      </trkpt>
      <trkpt lat="43.35291" lon="5.85938">
        <ele>610.09</ele>
        <time>2018-05-25T09:52:45Z</time>
      </trkpt>
      <trkpt lat="43.3529" lon="5.85934">
        <ele>609.61</ele>
        <time>2018-05-25T09:52:46Z</time>
      </trkpt>
      <trkpt lat="43.35287" lon="5.85897">
        <ele>614.42</ele>
        <time>2018-05-25T09:52:59Z</time>
      </trkpt>
      <trkpt lat="43.35299" lon="5.85863">
        <ele>622.11</ele>
        <time>2018-05-25T09:53:14Z</time>
      </trkpt>
      <trkpt lat="43.35272" lon="5.85832">
        <ele>624.51</ele>
        <time>2018-05-25T09:53:28Z</time>
      </trkpt>
      <trkpt lat="43.35237" lon="5.85778">
        <ele>616.34</ele>
        <time>2018-05-25T09:53:43Z</time>
      </trkpt>
      <trkpt lat="43.35224" lon="5.8574">
        <ele>618.26</ele>
        <time>2018-05-25T09:53:55Z</time>
      </trkpt>
      <trkpt lat="43.35245" lon="5.85668">
        <ele>625.47</ele>
        <time>2018-05-25T09:54:13Z</time>
      </trkpt>
      <trkpt lat="43.35272" lon="5.85609">
        <ele>632.2</ele>
        <time>2018-05-25T09:54:28Z</time>
      </trkpt>
      <trkpt lat="43.3529" lon="5.85551">
        <ele>642.78</ele>
        <time>2018-05-25T09:54:43Z</time>
      </trkpt>
      <trkpt lat="43.35332" lon="5.85518">
        <ele>654.8</ele>
        <time>2018-05-25T09:54:58Z</time>
      </trkpt>
      <trkpt lat="43.35357" lon="5.85482">
        <ele>660.56</ele>
        <time>2018-05-25T09:55:06Z</time>
      </trkpt>
      <trkpt lat="43.35355" lon="5.8538">
        <ele>655.28</ele>
        <time>2018-05-25T09:55:17Z</time>
      </trkpt>
      <trkpt lat="43.3534" lon="5.85302">
        <ele>645.66</ele>
        <time>2018-05-25T09:55:28Z</time>
      </trkpt>
      <trkpt lat="43.35315" lon="5.85226">
        <ele>641.34</ele>
        <time>2018-05-25T09:55:44Z</time>
      </trkpt>
      <trkpt lat="43.353" lon="5.85172">
        <ele>646.14</ele>
        <time>2018-05-25T09:56:00Z</time>
      </trkpt>
      <trkpt lat="43.35306" lon="5.85134">
        <ele>657.68</ele>
        <time>2018-05-25T09:56:15Z</time>
      </trkpt>
      <trkpt lat="43.35302" lon="5.85089">
        <ele>675.94</ele>
        <time>2018-05-25T09:56:32Z</time>
      </trkpt>
      <trkpt lat="43.35302" lon="5.85084">
        <ele>679.31</ele>
        <time>2018-05-25T09:56:35Z</time>
      </trkpt>
      <trkpt lat="43.35302" lon="5.85082">
        <ele>680.27</ele>
        <time>2018-05-25T09:56:36Z</time>
      </trkpt>
      <trkpt lat="43.35304" lon="5.8508">
        <ele>681.71</ele>
        <time>2018-05-25T09:56:37Z</time>
      </trkpt>
      <trkpt lat="43.35305" lon="5.85078">
        <ele>682.67</ele>
        <time>2018-05-25T09:56:38Z</time>
      </trkpt>
      <trkpt lat="43.35307" lon="5.85075">
        <ele>683.63</ele>
        <time>2018-05-25T09:56:39Z</time>
      </trkpt>
      <trkpt lat="43.35316" lon="5.85059">
        <ele>688.44</ele>
        <time>2018-05-25T09:56:43Z</time>
      </trkpt>
      <trkpt lat="43.35318" lon="5.85054">
        <ele>689.4</ele>
        <time>2018-05-25T09:56:44Z</time>
      </trkpt>
      <trkpt lat="43.35335" lon="5.85017">
        <ele>694.21</ele>
        <time>2018-05-25T09:56:49Z</time>
      </trkpt>
      <trkpt lat="43.35336" lon="5.85008">
        <ele>695.17</ele>
        <time>2018-05-25T09:56:50Z</time>
      </trkpt>
      <trkpt lat="43.35336" lon="5.84998">
        <ele>695.65</ele>
        <time>2018-05-25T09:56:51Z</time>
      </trkpt>
      <trkpt lat="43.35334" lon="5.84988">
        <ele>696.61</ele>
        <time>2018-05-25T09:56:52Z</time>
      </trkpt>
      <trkpt lat="43.35332" lon="5.84979">
        <ele>697.57</ele>
        <time>2018-05-25T09:56:53Z</time>
      </trkpt>
      <trkpt lat="43.35329" lon="5.84971">
        <ele>698.53</ele>
        <time>2018-05-25T09:56:54Z</time>
      </trkpt>
      <trkpt lat="43.35326" lon="5.84963">
        <ele>699.5</ele>
        <time>2018-05-25T09:56:55Z</time>
      </trkpt>
      <trkpt lat="43.35299" lon="5.84868">
        <ele>701.9</ele>
        <time>2018-05-25T09:57:07Z</time>
      </trkpt>
      <trkpt lat="43.35286" lon="5.84794">
        <ele>709.11</ele>
        <time>2018-05-25T09:57:21Z</time>
      </trkpt>
      <trkpt lat="43.35276" lon="5.8471">
        <ele>705.75</ele>
        <time>2018-05-25T09:57:35Z</time>
      </trkpt>
      <trkpt lat="43.35275" lon="5.84699">
        <ele>705.75</ele>
        <time>2018-05-25T09:57:37Z</time>
      </trkpt>
      <trkpt lat="43.35275" lon="5.84693">
        <ele>705.75</ele>
        <time>2018-05-25T09:57:38Z</time>
      </trkpt>
      <trkpt lat="43.35274" lon="5.84622">
        <ele>714.88</ele>
        <time>2018-05-25T09:57:53Z</time>
      </trkpt>
      <trkpt lat="43.35263" lon="5.84565">
        <ele>731.22</ele>
        <time>2018-05-25T09:58:08Z</time>
      </trkpt>
      <trkpt lat="43.35254" lon="5.84517">
        <ele>741.31</ele>
        <time>2018-05-25T09:58:20Z</time>
      </trkpt>
      <trkpt lat="43.35248" lon="5.84461">
        <ele>750.93</ele>
        <time>2018-05-25T09:58:35Z</time>
      </trkpt>
      <trkpt lat="43.35233" lon="5.84407">
        <ele>756.21</ele>
        <time>2018-05-25T09:58:47Z</time>
      </trkpt>
      <trkpt lat="43.35212" lon="5.84344">
        <ele>749.49</ele>
        <time>2018-05-25T09:59:02Z</time>
      </trkpt>
      <trkpt lat="43.35202" lon="5.84258">
        <ele>732.18</ele>
        <time>2018-05-25T09:59:17Z</time>
      </trkpt>
      <trkpt lat="43.35195" lon="5.84195">
        <ele>725.93</ele>
        <time>2018-05-25T09:59:30Z</time>
      </trkpt>
      <trkpt lat="43.35188" lon="5.84126">
        <ele>723.53</ele>
        <time>2018-05-25T09:59:46Z</time>
      </trkpt>
      <trkpt lat="43.35183" lon="5.84063">
        <ele>716.32</ele>
        <time>2018-05-25T09:59:59Z</time>
      </trkpt>
      <trkpt lat="43.35201" lon="5.84017">
        <ele>711.03</ele>
        <time>2018-05-25T10:00:12Z</time>
      </trkpt>
      <trkpt lat="43.35233" lon="5.83959">
        <ele>705.26</ele>
        <time>2018-05-25T10:00:26Z</time>
      </trkpt>
      <trkpt lat="43.35236" lon="5.83881">
        <ele>701.42</ele>
        <time>2018-05-25T10:00:40Z</time>
      </trkpt>
      <trkpt lat="43.35227" lon="5.83808">
        <ele>693.73</ele>
        <time>2018-05-25T10:00:55Z</time>
      </trkpt>
      <trkpt lat="43.3522" lon="5.83765">
        <ele>699.02</ele>
        <time>2018-05-25T10:01:07Z</time>
      </trkpt>
      <trkpt lat="43.35232" lon="5.83738">
        <ele>704.78</ele>
        <time>2018-05-25T10:01:17Z</time>
      </trkpt>
      <trkpt lat="43.35254" lon="5.83707">
        <ele>718.24</ele>
        <time>2018-05-25T10:01:33Z</time>
      </trkpt>
      <trkpt lat="43.35271" lon="5.83677">
        <ele>728.34</ele>
        <time>2018-05-25T10:01:46Z</time>
      </trkpt>
      <trkpt lat="43.35277" lon="5.8363">
        <ele>740.35</ele>
        <time>2018-05-25T10:02:02Z</time>
      </trkpt>
      <trkpt lat="43.35283" lon="5.83585">
        <ele>750.45</ele>
        <time>2018-05-25T10:02:17Z</time>
      </trkpt>
      <trkpt lat="43.35286" lon="5.8353">
        <ele>761.02</ele>
        <time>2018-05-25T10:02:35Z</time>
      </trkpt>
      <trkpt lat="43.35281" lon="5.83472">
        <ele>763.9</ele>
        <time>2018-05-25T10:02:51Z</time>
      </trkpt>
      <trkpt lat="43.35274" lon="5.83408">
        <ele>761.5</ele>
        <time>2018-05-25T10:03:08Z</time>
      </trkpt>
      <trkpt lat="43.35266" lon="5.83341">
        <ele>762.46</ele>
        <time>2018-05-25T10:03:27Z</time>
      </trkpt>
      <trkpt lat="43.35263" lon="5.8329">
        <ele>761.5</ele>
        <time>2018-05-25T10:03:39Z</time>
      </trkpt>
      <trkpt lat="43.35262" lon="5.83226">
        <ele>761.02</ele>
        <time>2018-05-25T10:03:55Z</time>
      </trkpt>
      <trkpt lat="43.35263" lon="5.83175">
        <ele>763.42</ele>
        <time>2018-05-25T10:04:08Z</time>
      </trkpt>
      <trkpt lat="43.35255" lon="5.831">
        <ele>765.35</ele>
        <time>2018-05-25T10:04:23Z</time>
      </trkpt>
      <trkpt lat="43.35227" lon="5.83038">
        <ele>761.98</ele>
        <time>2018-05-25T10:04:36Z</time>
      </trkpt>
      <trkpt lat="43.35206" lon="5.8298">
        <ele>763.9</ele>
        <time>2018-05-25T10:04:49Z</time>
      </trkpt>
      <trkpt lat="43.35206" lon="5.82973">
        <ele>763.9</ele>
        <time>2018-05-25T10:04:50Z</time>
      </trkpt>
      <trkpt lat="43.35212" lon="5.82876">
        <ele>764.39</ele>
        <time>2018-05-25T10:05:04Z</time>
      </trkpt>
      <trkpt lat="43.35211" lon="5.82862">
        <ele>764.39</ele>
        <time>2018-05-25T10:05:06Z</time>
      </trkpt>
      <trkpt lat="43.35209" lon="5.82822">
        <ele>758.62</ele>
        <time>2018-05-25T10:05:11Z</time>
      </trkpt>
      <trkpt lat="43.35209" lon="5.82815">
        <ele>757.66</ele>
        <time>2018-05-25T10:05:12Z</time>
      </trkpt>
      <trkpt lat="43.3521" lon="5.82808">
        <ele>756.69</ele>
        <time>2018-05-25T10:05:13Z</time>
      </trkpt>
      <trkpt lat="43.35213" lon="5.82802">
        <ele>756.21</ele>
        <time>2018-05-25T10:05:14Z</time>
      </trkpt>
      <trkpt lat="43.35215" lon="5.82795">
        <ele>754.77</ele>
        <time>2018-05-25T10:05:15Z</time>
      </trkpt>
      <trkpt lat="43.35252" lon="5.82719">
        <ele>747.56</ele>
        <time>2018-05-25T10:05:29Z</time>
      </trkpt>
      <trkpt lat="43.35257" lon="5.82709">
        <ele>747.56</ele>
        <time>2018-05-25T10:05:30Z</time>
      </trkpt>
      <trkpt lat="43.35259" lon="5.82703">
        <ele>748.04</ele>
        <time>2018-05-25T10:05:31Z</time>
      </trkpt>
      <trkpt lat="43.35261" lon="5.82696">
        <ele>748.04</ele>
        <time>2018-05-25T10:05:32Z</time>
      </trkpt>
      <trkpt lat="43.35262" lon="5.8269">
        <ele>748.52</ele>
        <time>2018-05-25T10:05:33Z</time>
      </trkpt>
      <trkpt lat="43.35263" lon="5.82683">
        <ele>748.52</ele>
        <time>2018-05-25T10:05:34Z</time>
      </trkpt>
      <trkpt lat="43.35262" lon="5.82675">
        <ele>749</ele>
        <time>2018-05-25T10:05:35Z</time>
      </trkpt>
      <trkpt lat="43.35262" lon="5.82668">
        <ele>749.49</ele>
        <time>2018-05-25T10:05:36Z</time>
      </trkpt>
      <trkpt lat="43.35259" lon="5.82654">
        <ele>749.49</ele>
        <time>2018-05-25T10:05:38Z</time>
      </trkpt>
      <trkpt lat="43.35257" lon="5.82647">
        <ele>749</ele>
        <time>2018-05-25T10:05:39Z</time>
      </trkpt>
      <trkpt lat="43.35255" lon="5.8264">
        <ele>748.52</ele>
        <time>2018-05-25T10:05:40Z</time>
      </trkpt>
      <trkpt lat="43.35227" lon="5.82528">
        <ele>744.68</ele>
        <time>2018-05-25T10:05:57Z</time>
      </trkpt>
      <trkpt lat="43.35198" lon="5.82409">
        <ele>742.76</ele>
        <time>2018-05-25T10:06:17Z</time>
      </trkpt>
      <trkpt lat="43.35164" lon="5.82312">
        <ele>738.91</ele>
        <time>2018-05-25T10:06:36Z</time>
      </trkpt>
      <trkpt lat="43.35129" lon="5.82215">
        <ele>737.47</ele>
        <time>2018-05-25T10:06:56Z</time>
      </trkpt>
      <trkpt lat="43.35106" lon="5.82129">
        <ele>742.76</ele>
        <time>2018-05-25T10:07:13Z</time>
      </trkpt>
      <trkpt lat="43.35085" lon="5.8203">
        <ele>748.52</ele>
        <time>2018-05-25T10:07:32Z</time>
      </trkpt>
      <trkpt lat="43.35078" lon="5.81962">
        <ele>757.66</ele>
        <time>2018-05-25T10:07:47Z</time>
      </trkpt>
      <trkpt lat="43.3508" lon="5.81905">
        <ele>771.11</ele>
        <time>2018-05-25T10:08:01Z</time>
      </trkpt>
      <trkpt lat="43.35077" lon="5.81841">
        <ele>782.17</ele>
        <time>2018-05-25T10:08:14Z</time>
      </trkpt>
      <trkpt lat="43.35061" lon="5.81745">
        <ele>782.17</ele>
        <time>2018-05-25T10:08:28Z</time>
      </trkpt>
      <trkpt lat="43.35058" lon="5.81737">
        <ele>780.73</ele>
        <time>2018-05-25T10:08:29Z</time>
      </trkpt>
      <trkpt lat="43.35015" lon="5.8162">
        <ele>763.9</ele>
        <time>2018-05-25T10:08:44Z</time>
      </trkpt>
      <trkpt lat="43.34955" lon="5.81509">
        <ele>759.58</ele>
        <time>2018-05-25T10:08:57Z</time>
      </trkpt>
      <trkpt lat="43.3491" lon="5.81355">
        <ele>752.85</ele>
        <time>2018-05-25T10:09:12Z</time>
      </trkpt>
      <trkpt lat="43.34864" lon="5.81153">
        <ele>747.08</ele>
        <time>2018-05-25T10:09:29Z</time>
      </trkpt>
      <trkpt lat="43.3481" lon="5.80958">
        <ele>746.6</ele>
        <time>2018-05-25T10:09:45Z</time>
      </trkpt>
      <trkpt lat="43.34771" lon="5.808">
        <ele>746.12</ele>
        <time>2018-05-25T10:09:58Z</time>
      </trkpt>
      <trkpt lat="43.34744" lon="5.80621">
        <ele>743.24</ele>
        <time>2018-05-25T10:10:13Z</time>
      </trkpt>
      <trkpt lat="43.34734" lon="5.80481">
        <ele>742.28</ele>
        <time>2018-05-25T10:10:27Z</time>
      </trkpt>
      <trkpt lat="43.34731" lon="5.80347">
        <ele>740.35</ele>
        <time>2018-05-25T10:10:41Z</time>
      </trkpt>
      <trkpt lat="43.34743" lon="5.80218">
        <ele>743.24</ele>
        <time>2018-05-25T10:10:53Z</time>
      </trkpt>
      <trkpt lat="43.34751" lon="5.80113">
        <ele>744.2</ele>
        <time>2018-05-25T10:11:02Z</time>
      </trkpt>
      <trkpt lat="43.3475" lon="5.80102">
        <ele>744.2</ele>
        <time>2018-05-25T10:11:03Z</time>
      </trkpt>
      <trkpt lat="43.34748" lon="5.80091">
        <ele>744.2</ele>
        <time>2018-05-25T10:11:04Z</time>
      </trkpt>
      <trkpt lat="43.34725" lon="5.80004">
        <ele>739.87</ele>
        <time>2018-05-25T10:11:13Z</time>
      </trkpt>
      <trkpt lat="43.34721" lon="5.79995">
        <ele>738.91</ele>
        <time>2018-05-25T10:11:14Z</time>
      </trkpt>
      <trkpt lat="43.34687" lon="5.79936">
        <ele>732.18</ele>
        <time>2018-05-25T10:11:20Z</time>
      </trkpt>
      <trkpt lat="43.3459" lon="5.79812">
        <ele>722.09</ele>
        <time>2018-05-25T10:11:33Z</time>
      </trkpt>
      <trkpt lat="43.34585" lon="5.79801">
        <ele>721.61</ele>
        <time>2018-05-25T10:11:34Z</time>
      </trkpt>
      <trkpt lat="43.34582" lon="5.79789">
        <ele>721.61</ele>
        <time>2018-05-25T10:11:35Z</time>
      </trkpt>
      <trkpt lat="43.3455" lon="5.79605">
        <ele>719.2</ele>
        <time>2018-05-25T10:11:51Z</time>
      </trkpt>
      <trkpt lat="43.34511" lon="5.79472">
        <ele>719.2</ele>
        <time>2018-05-25T10:12:06Z</time>
      </trkpt>
      <trkpt lat="43.34484" lon="5.794">
        <ele>722.09</ele>
        <time>2018-05-25T10:12:18Z</time>
      </trkpt>
      <trkpt lat="43.34449" lon="5.79308">
        <ele>728.82</ele>
        <time>2018-05-25T10:12:31Z</time>
      </trkpt>
      <trkpt lat="43.34403" lon="5.79215">
        <ele>730.26</ele>
        <time>2018-05-25T10:12:45Z</time>
      </trkpt>
      <trkpt lat="43.34369" lon="5.79128">
        <ele>734.1</ele>
        <time>2018-05-25T10:12:59Z</time>
      </trkpt>
      <trkpt lat="43.34309" lon="5.79053">
        <ele>727.37</ele>
        <time>2018-05-25T10:13:10Z</time>
      </trkpt>
      <trkpt lat="43.34201" lon="5.78954">
        <ele>720.65</ele>
        <time>2018-05-25T10:13:24Z</time>
      </trkpt>
      <trkpt lat="43.34169" lon="5.78919">
        <ele>719.68</ele>
        <time>2018-05-25T10:13:29Z</time>
      </trkpt>
      <trkpt lat="43.34164" lon="5.78911">
        <ele>719.68</ele>
        <time>2018-05-25T10:13:30Z</time>
      </trkpt>
      <trkpt lat="43.34161" lon="5.78901">
        <ele>719.68</ele>
        <time>2018-05-25T10:13:31Z</time>
      </trkpt>
      <trkpt lat="43.34158" lon="5.7889">
        <ele>719.68</ele>
        <time>2018-05-25T10:13:32Z</time>
      </trkpt>
      <trkpt lat="43.34157" lon="5.7888">
        <ele>719.68</ele>
        <time>2018-05-25T10:13:33Z</time>
      </trkpt>
      <trkpt lat="43.34156" lon="5.78862">
        <ele>720.16</ele>
        <time>2018-05-25T10:13:35Z</time>
      </trkpt>
      <trkpt lat="43.34156" lon="5.78852">
        <ele>720.16</ele>
        <time>2018-05-25T10:13:36Z</time>
      </trkpt>
      <trkpt lat="43.34124" lon="5.787">
        <ele>721.13</ele>
        <time>2018-05-25T10:13:49Z</time>
      </trkpt>
      <trkpt lat="43.34059" lon="5.78538">
        <ele>719.68</ele>
        <time>2018-05-25T10:14:03Z</time>
      </trkpt>
      <trkpt lat="43.34008" lon="5.78417">
        <ele>718.72</ele>
        <time>2018-05-25T10:14:17Z</time>
      </trkpt>
      <trkpt lat="43.33968" lon="5.78271">
        <ele>720.65</ele>
        <time>2018-05-25T10:14:34Z</time>
      </trkpt>
      <trkpt lat="43.33927" lon="5.78115">
        <ele>721.13</ele>
        <time>2018-05-25T10:14:49Z</time>
      </trkpt>
      <trkpt lat="43.33867" lon="5.77913">
        <ele>720.65</ele>
        <time>2018-05-25T10:15:07Z</time>
      </trkpt>
      <trkpt lat="43.3382" lon="5.77747">
        <ele>715.84</ele>
        <time>2018-05-25T10:15:23Z</time>
      </trkpt>
      <trkpt lat="43.33779" lon="5.77577">
        <ele>711.51</ele>
        <time>2018-05-25T10:15:39Z</time>
      </trkpt>
      <trkpt lat="43.33757" lon="5.77392">
        <ele>705.75</ele>
        <time>2018-05-25T10:15:54Z</time>
      </trkpt>
      <trkpt lat="43.33725" lon="5.77214">
        <ele>702.38</ele>
        <time>2018-05-25T10:16:09Z</time>
      </trkpt>
      <trkpt lat="43.33683" lon="5.77024">
        <ele>699.98</ele>
        <time>2018-05-25T10:16:26Z</time>
      </trkpt>
      <trkpt lat="43.33651" lon="5.76887">
        <ele>698.05</ele>
        <time>2018-05-25T10:16:40Z</time>
      </trkpt>
      <trkpt lat="43.33636" lon="5.7682">
        <ele>700.46</ele>
        <time>2018-05-25T10:16:52Z</time>
      </trkpt>
      <trkpt lat="43.33612" lon="5.76705">
        <ele>705.26</ele>
        <time>2018-05-25T10:17:04Z</time>
      </trkpt>
      <trkpt lat="43.33602" lon="5.76636">
        <ele>704.3</ele>
        <time>2018-05-25T10:17:11Z</time>
      </trkpt>
      <trkpt lat="43.33603" lon="5.76628">
        <ele>704.3</ele>
        <time>2018-05-25T10:17:12Z</time>
      </trkpt>
      <trkpt lat="43.33605" lon="5.76621">
        <ele>704.3</ele>
        <time>2018-05-25T10:17:13Z</time>
      </trkpt>
      <trkpt lat="43.33608" lon="5.76584">
        <ele>703.34</ele>
        <time>2018-05-25T10:17:20Z</time>
      </trkpt>
      <trkpt lat="43.33605" lon="5.76574">
        <ele>701.9</ele>
        <time>2018-05-25T10:17:21Z</time>
      </trkpt>
      <trkpt lat="43.33602" lon="5.76566">
        <ele>699.98</ele>
        <time>2018-05-25T10:17:22Z</time>
      </trkpt>
      <trkpt lat="43.33599" lon="5.76557">
        <ele>698.53</ele>
        <time>2018-05-25T10:17:23Z</time>
      </trkpt>
      <trkpt lat="43.3359" lon="5.76533">
        <ele>697.09</ele>
        <time>2018-05-25T10:17:26Z</time>
      </trkpt>
      <trkpt lat="43.33587" lon="5.76525">
        <ele>697.09</ele>
        <time>2018-05-25T10:17:27Z</time>
      </trkpt>
      <trkpt lat="43.33586" lon="5.76517">
        <ele>697.09</ele>
        <time>2018-05-25T10:17:28Z</time>
      </trkpt>
      <trkpt lat="43.33584" lon="5.76508">
        <ele>697.09</ele>
        <time>2018-05-25T10:17:29Z</time>
      </trkpt>
      <trkpt lat="43.33584" lon="5.765">
        <ele>697.57</ele>
        <time>2018-05-25T10:17:30Z</time>
      </trkpt>
      <trkpt lat="43.33583" lon="5.76491">
        <ele>697.57</ele>
        <time>2018-05-25T10:17:31Z</time>
      </trkpt>
      <trkpt lat="43.33586" lon="5.7635">
        <ele>700.46</ele>
        <time>2018-05-25T10:17:45Z</time>
      </trkpt>
      <trkpt lat="43.3359" lon="5.7621">
        <ele>700.46</ele>
        <time>2018-05-25T10:17:59Z</time>
      </trkpt>
      <trkpt lat="43.33587" lon="5.76049">
        <ele>700.94</ele>
        <time>2018-05-25T10:18:15Z</time>
      </trkpt>
      <trkpt lat="43.33577" lon="5.75883">
        <ele>695.17</ele>
        <time>2018-05-25T10:18:32Z</time>
      </trkpt>
      <trkpt lat="43.33574" lon="5.75775">
        <ele>693.73</ele>
        <time>2018-05-25T10:18:45Z</time>
      </trkpt>
      <trkpt lat="43.33571" lon="5.75684">
        <ele>692.29</ele>
        <time>2018-05-25T10:19:02Z</time>
      </trkpt>
      <trkpt lat="43.3357" lon="5.75649">
        <ele>690.36</ele>
        <time>2018-05-25T10:19:09Z</time>
      </trkpt>
      <trkpt lat="43.33571" lon="5.75648">
        <ele>690.36</ele>
        <time>2018-05-25T10:19:10Z</time>
      </trkpt>
      <trkpt lat="43.33575" lon="5.75637">
        <ele>685.56</ele>
        <time>2018-05-25T10:19:16Z</time>
      </trkpt>
      <trkpt lat="43.33577" lon="5.75637">
        <ele>685.56</ele>
        <time>2018-05-25T10:19:17Z</time>
      </trkpt>
      <trkpt lat="43.33578" lon="5.75638">
        <ele>685.56</ele>
        <time>2018-05-25T10:19:18Z</time>
      </trkpt>
      <trkpt lat="43.33602" lon="5.75638">
        <ele>682.67</ele>
        <time>2018-05-25T10:19:33Z</time>
      </trkpt>
      <trkpt lat="43.33605" lon="5.75638">
        <ele>682.19</ele>
        <time>2018-05-25T10:19:35Z</time>
      </trkpt>
      <trkpt lat="43.33607" lon="5.75638">
        <ele>682.19</ele>
        <time>2018-05-25T10:19:36Z</time>
      </trkpt>
      <trkpt lat="43.3361" lon="5.75637">
        <ele>682.19</ele>
        <time>2018-05-25T10:19:37Z</time>
      </trkpt>
      <trkpt lat="43.33612" lon="5.75636">
        <ele>682.19</ele>
        <time>2018-05-25T10:19:38Z</time>
      </trkpt>
      <trkpt lat="43.33614" lon="5.75635">
        <ele>682.19</ele>
        <time>2018-05-25T10:19:39Z</time>
      </trkpt>
      <trkpt lat="43.33616" lon="5.75634">
        <ele>682.19</ele>
        <time>2018-05-25T10:19:40Z</time>
      </trkpt>
      <trkpt lat="43.33618" lon="5.75634">
        <ele>682.19</ele>
        <time>2018-05-25T10:19:41Z</time>
      </trkpt>
      <trkpt lat="43.33619" lon="5.75634">
        <ele>682.19</ele>
        <time>2018-05-25T10:19:42Z</time>
      </trkpt>
      <trkpt lat="43.3362" lon="5.75636">
        <ele>681.71</ele>
        <time>2018-05-25T10:19:44Z</time>
      </trkpt>
      <trkpt lat="43.3362" lon="5.75635">
        <ele>681.23</ele>
        <time>2018-05-25T10:19:45Z</time>
      </trkpt>
      <trkpt lat="43.3362" lon="5.75635">
        <ele>680.27</ele>
        <time>2018-05-25T10:19:46Z</time>
      </trkpt>
      <trkpt lat="43.33621" lon="5.75636">
        <ele>680.27</ele>
        <time>2018-05-25T10:19:47Z</time>
      </trkpt>
      <trkpt lat="43.33623" lon="5.75637">
        <ele>679.79</ele>
        <time>2018-05-25T10:19:48Z</time>
      </trkpt>
      <trkpt lat="43.33625" lon="5.75637">
        <ele>679.79</ele>
        <time>2018-05-25T10:19:49Z</time>
      </trkpt>
      <trkpt lat="43.33628" lon="5.75638">
        <ele>679.79</ele>
        <time>2018-05-25T10:19:50Z</time>
      </trkpt>
      <trkpt lat="43.3363" lon="5.75639">
        <ele>679.79</ele>
        <time>2018-05-25T10:19:51Z</time>
      </trkpt>
      <trkpt lat="43.33647" lon="5.75634">
        <ele>678.83</ele>
        <time>2018-05-25T10:20:02Z</time>
      </trkpt>
      <trkpt lat="43.33649" lon="5.75628">
        <ele>676.91</ele>
        <time>2018-05-25T10:20:19Z</time>
      </trkpt>
      <trkpt lat="43.33652" lon="5.75635">
        <ele>675.94</ele>
        <time>2018-05-25T10:20:33Z</time>
      </trkpt>
      <trkpt lat="43.33654" lon="5.75639">
        <ele>674.5</ele>
        <time>2018-05-25T10:21:10Z</time>
      </trkpt>
      <trkpt lat="43.33654" lon="5.75635">
        <ele>676.42</ele>
        <time>2018-05-25T10:21:31Z</time>
      </trkpt>
      <trkpt lat="43.33652" lon="5.7563">
        <ele>677.39</ele>
        <time>2018-05-25T10:21:49Z</time>
      </trkpt>
      <trkpt lat="43.33652" lon="5.75629">
        <ele>677.39</ele>
        <time>2018-05-25T10:21:57Z</time>
      </trkpt>
      <trkpt lat="43.33655" lon="5.7563">
        <ele>676.91</ele>
        <time>2018-05-25T10:22:09Z</time>
      </trkpt>
      <trkpt lat="43.33658" lon="5.7563">
        <ele>676.42</ele>
        <time>2018-05-25T10:22:37Z</time>
      </trkpt>
      <trkpt lat="43.33653" lon="5.75637">
        <ele>674.98</ele>
        <time>2018-05-25T10:22:57Z</time>
      </trkpt>
      <trkpt lat="43.33652" lon="5.75628">
        <ele>674.98</ele>
        <time>2018-05-25T10:23:19Z</time>
      </trkpt>
      <trkpt lat="43.33652" lon="5.75628">
        <ele>672.1</ele>
        <time>2018-05-25T10:23:48Z</time>
      </trkpt>
      <trkpt lat="43.33657" lon="5.75633">
        <ele>668.73</ele>
        <time>2018-05-25T10:24:23Z</time>
      </trkpt>
      <trkpt lat="43.33659" lon="5.75636">
        <ele>669.7</ele>
        <time>2018-05-25T10:25:03Z</time>
      </trkpt>
      <trkpt lat="43.33662" lon="5.75631">
        <ele>669.7</ele>
        <time>2018-05-25T10:25:30Z</time>
      </trkpt>
      <trkpt lat="43.33652" lon="5.75632">
        <ele>668.73</ele>
        <time>2018-05-25T10:26:00Z</time>
      </trkpt>
      <trkpt lat="43.33652" lon="5.7563">
        <ele>667.29</ele>
        <time>2018-05-25T10:26:25Z</time>
      </trkpt>
      <trkpt lat="43.33648" lon="5.75633">
        <ele>667.77</ele>
        <time>2018-05-25T10:26:44Z</time>
      </trkpt>
      <trkpt lat="43.33652" lon="5.75628">
        <ele>670.66</ele>
        <time>2018-05-25T10:27:05Z</time>
      </trkpt>
      <trkpt lat="43.33658" lon="5.7564">
        <ele>671.14</ele>
        <time>2018-05-25T10:27:27Z</time>
      </trkpt>
      <trkpt lat="43.33654" lon="5.7563">
        <ele>670.66</ele>
        <time>2018-05-25T10:27:54Z</time>
      </trkpt>
      <trkpt lat="43.33655" lon="5.75636">
        <ele>671.14</ele>
        <time>2018-05-25T10:28:16Z</time>
      </trkpt>
      <trkpt lat="43.33653" lon="5.75628">
        <ele>671.14</ele>
        <time>2018-05-25T10:28:35Z</time>
      </trkpt>
      <trkpt lat="43.33654" lon="5.75635">
        <ele>670.18</ele>
        <time>2018-05-25T10:28:54Z</time>
      </trkpt>
      <trkpt lat="43.33653" lon="5.75632">
        <ele>670.66</ele>
        <time>2018-05-25T10:29:19Z</time>
      </trkpt>
      <trkpt lat="43.33655" lon="5.75629">
        <ele>670.66</ele>
        <time>2018-05-25T10:29:52Z</time>
      </trkpt>
      <trkpt lat="43.33654" lon="5.75629">
        <ele>673.54</ele>
        <time>2018-05-25T10:30:17Z</time>
      </trkpt>
      <trkpt lat="43.33654" lon="5.75634">
        <ele>672.1</ele>
        <time>2018-05-25T10:30:36Z</time>
      </trkpt>
      <trkpt lat="43.33655" lon="5.75637">
        <ele>672.58</ele>
        <time>2018-05-25T10:30:53Z</time>
      </trkpt>
      <trkpt lat="43.3365" lon="5.75639">
        <ele>674.98</ele>
        <time>2018-05-25T10:31:32Z</time>
      </trkpt>
      <trkpt lat="43.33654" lon="5.75637">
        <ele>675.94</ele>
        <time>2018-05-25T10:32:19Z</time>
      </trkpt>
      <trkpt lat="43.33652" lon="5.75637">
        <ele>677.39</ele>
        <time>2018-05-25T10:32:58Z</time>
      </trkpt>
      <trkpt lat="43.33655" lon="5.75638">
        <ele>677.87</ele>
        <time>2018-05-25T10:33:28Z</time>
      </trkpt>
      <trkpt lat="43.33653" lon="5.75636">
        <ele>677.39</ele>
        <time>2018-05-25T10:34:06Z</time>
      </trkpt>
      <trkpt lat="43.33653" lon="5.75639">
        <ele>680.75</ele>
        <time>2018-05-25T10:34:46Z</time>
      </trkpt>
      <trkpt lat="43.33651" lon="5.75634">
        <ele>677.87</ele>
        <time>2018-05-25T10:35:27Z</time>
      </trkpt>
      <trkpt lat="43.33651" lon="5.75637">
        <ele>680.75</ele>
        <time>2018-05-25T10:36:08Z</time>
      </trkpt>
      <trkpt lat="43.33652" lon="5.75634">
        <ele>675.46</ele>
        <time>2018-05-25T10:36:38Z</time>
      </trkpt>
      <trkpt lat="43.33652" lon="5.75634">
        <ele>673.06</ele>
        <time>2018-05-25T10:36:55Z</time>
      </trkpt>
      <trkpt lat="43.33651" lon="5.75634">
        <ele>672.58</ele>
        <time>2018-05-25T10:37:34Z</time>
      </trkpt>
      <trkpt lat="43.3365" lon="5.7564">
        <ele>673.54</ele>
        <time>2018-05-25T10:38:06Z</time>
      </trkpt>
      <trkpt lat="43.3365" lon="5.7564">
        <ele>674.5</ele>
        <time>2018-05-25T10:38:40Z</time>
      </trkpt>
      <trkpt lat="43.33649" lon="5.75639">
        <ele>671.62</ele>
        <time>2018-05-25T10:39:12Z</time>
      </trkpt>
      <trkpt lat="43.33651" lon="5.7564">
        <ele>673.06</ele>
        <time>2018-05-25T10:39:39Z</time>
      </trkpt>
      <trkpt lat="43.33652" lon="5.75639">
        <ele>671.14</ele>
        <time>2018-05-25T10:40:09Z</time>
      </trkpt>
      <trkpt lat="43.33657" lon="5.7564">
        <ele>673.54</ele>
        <time>2018-05-25T10:40:45Z</time>
      </trkpt>
      <trkpt lat="43.33654" lon="5.7564">
        <ele>674.02</ele>
        <time>2018-05-25T10:41:18Z</time>
      </trkpt>
      <trkpt lat="43.33653" lon="5.75632">
        <ele>672.58</ele>
        <time>2018-05-25T10:41:33Z</time>
      </trkpt>
      <trkpt lat="43.33651" lon="5.75632">
        <ele>673.06</ele>
        <time>2018-05-25T10:41:48Z</time>
      </trkpt>
      <trkpt lat="43.33652" lon="5.7563">
        <ele>676.91</ele>
        <time>2018-05-25T10:42:12Z</time>
      </trkpt>
      <trkpt lat="43.33649" lon="5.75633">
        <ele>673.06</ele>
        <time>2018-05-25T10:42:29Z</time>
      </trkpt>
      <trkpt lat="43.33646" lon="5.75635">
        <ele>670.18</ele>
        <time>2018-05-25T10:42:42Z</time>
      </trkpt>
      <trkpt lat="43.33641" lon="5.75636">
        <ele>670.66</ele>
        <time>2018-05-25T10:42:48Z</time>
      </trkpt>
      <trkpt lat="43.3362" lon="5.75634">
        <ele>671.62</ele>
        <time>2018-05-25T10:43:00Z</time>
      </trkpt>
      <trkpt lat="43.3359" lon="5.75628">
        <ele>671.14</ele>
        <time>2018-05-25T10:43:15Z</time>
      </trkpt>
      <trkpt lat="43.33577" lon="5.75626">
        <ele>670.66</ele>
        <time>2018-05-25T10:43:22Z</time>
      </trkpt>
      <trkpt lat="43.33575" lon="5.75627">
        <ele>670.66</ele>
        <time>2018-05-25T10:43:23Z</time>
      </trkpt>
      <trkpt lat="43.33573" lon="5.75628">
        <ele>670.66</ele>
        <time>2018-05-25T10:43:24Z</time>
      </trkpt>
      <trkpt lat="43.33571" lon="5.75628">
        <ele>670.66</ele>
        <time>2018-05-25T10:43:25Z</time>
      </trkpt>
      <trkpt lat="43.33569" lon="5.75629">
        <ele>670.66</ele>
        <time>2018-05-25T10:43:26Z</time>
      </trkpt>
      <trkpt lat="43.33567" lon="5.75629">
        <ele>670.66</ele>
        <time>2018-05-25T10:43:27Z</time>
      </trkpt>
      <trkpt lat="43.33566" lon="5.7563">
        <ele>670.66</ele>
        <time>2018-05-25T10:43:28Z</time>
      </trkpt>
      <trkpt lat="43.33565" lon="5.75631">
        <ele>670.66</ele>
        <time>2018-05-25T10:43:29Z</time>
      </trkpt>
      <trkpt lat="43.33562" lon="5.75636">
        <ele>671.14</ele>
        <time>2018-05-25T10:43:31Z</time>
      </trkpt>
      <trkpt lat="43.33562" lon="5.7564">
        <ele>671.14</ele>
        <time>2018-05-25T10:43:32Z</time>
      </trkpt>
      <trkpt lat="43.33562" lon="5.75644">
        <ele>671.14</ele>
        <time>2018-05-25T10:43:33Z</time>
      </trkpt>
      <trkpt lat="43.33561" lon="5.75706">
        <ele>671.14</ele>
        <time>2018-05-25T10:43:48Z</time>
      </trkpt>
      <trkpt lat="43.33563" lon="5.75725">
        <ele>671.14</ele>
        <time>2018-05-25T10:43:53Z</time>
      </trkpt>
      <trkpt lat="43.33564" lon="5.75727">
        <ele>671.14</ele>
        <time>2018-05-25T10:43:54Z</time>
      </trkpt>
      <trkpt lat="43.33566" lon="5.75727">
        <ele>671.14</ele>
        <time>2018-05-25T10:43:55Z</time>
      </trkpt>
      <trkpt lat="43.33578" lon="5.75727">
        <ele>670.18</ele>
        <time>2018-05-25T10:44:07Z</time>
      </trkpt>
      <trkpt lat="43.33578" lon="5.75728">
        <ele>670.18</ele>
        <time>2018-05-25T10:44:25Z</time>
      </trkpt>
      <trkpt lat="43.33575" lon="5.75726">
        <ele>669.7</ele>
        <time>2018-05-25T10:44:34Z</time>
      </trkpt>
      <trkpt lat="43.33574" lon="5.75726">
        <ele>670.18</ele>
        <time>2018-05-25T10:44:35Z</time>
      </trkpt>
      <trkpt lat="43.33562" lon="5.75739">
        <ele>669.7</ele>
        <time>2018-05-25T10:44:44Z</time>
      </trkpt>
      <trkpt lat="43.33562" lon="5.75745">
        <ele>669.7</ele>
        <time>2018-05-25T10:44:45Z</time>
      </trkpt>
      <trkpt lat="43.33564" lon="5.75861">
        <ele>669.7</ele>
        <time>2018-05-25T10:45:03Z</time>
      </trkpt>
      <trkpt lat="43.33571" lon="5.75995">
        <ele>669.7</ele>
        <time>2018-05-25T10:45:20Z</time>
      </trkpt>
      <trkpt lat="43.33574" lon="5.76105">
        <ele>670.18</ele>
        <time>2018-05-25T10:45:33Z</time>
      </trkpt>
      <trkpt lat="43.33575" lon="5.76224">
        <ele>671.62</ele>
        <time>2018-05-25T10:45:47Z</time>
      </trkpt>
      <trkpt lat="43.3357" lon="5.76378">
        <ele>674.02</ele>
        <time>2018-05-25T10:46:07Z</time>
      </trkpt>
      <trkpt lat="43.33573" lon="5.76503">
        <ele>675.94</ele>
        <time>2018-05-25T10:46:25Z</time>
      </trkpt>
      <trkpt lat="43.33574" lon="5.7651">
        <ele>675.94</ele>
        <time>2018-05-25T10:46:26Z</time>
      </trkpt>
      <trkpt lat="43.33576" lon="5.76516">
        <ele>675.94</ele>
        <time>2018-05-25T10:46:27Z</time>
      </trkpt>
      <trkpt lat="43.33583" lon="5.76534">
        <ele>675.94</ele>
        <time>2018-05-25T10:46:30Z</time>
      </trkpt>
      <trkpt lat="43.33586" lon="5.7654">
        <ele>675.94</ele>
        <time>2018-05-25T10:46:31Z</time>
      </trkpt>
      <trkpt lat="43.33598" lon="5.76557">
        <ele>675.94</ele>
        <time>2018-05-25T10:46:34Z</time>
      </trkpt>
      <trkpt lat="43.33614" lon="5.76572">
        <ele>675.94</ele>
        <time>2018-05-25T10:46:37Z</time>
      </trkpt>
      <trkpt lat="43.3362" lon="5.76576">
        <ele>675.94</ele>
        <time>2018-05-25T10:46:38Z</time>
      </trkpt>
      <trkpt lat="43.33699" lon="5.76611">
        <ele>676.42</ele>
        <time>2018-05-25T10:46:51Z</time>
      </trkpt>
      <trkpt lat="43.33751" lon="5.76621">
        <ele>675.46</ele>
        <time>2018-05-25T10:46:59Z</time>
      </trkpt>
      <trkpt lat="43.33868" lon="5.76674">
        <ele>676.42</ele>
        <time>2018-05-25T10:47:16Z</time>
      </trkpt>
      <trkpt lat="43.33958" lon="5.76714">
        <ele>678.35</ele>
        <time>2018-05-25T10:47:29Z</time>
      </trkpt>
      <trkpt lat="43.34049" lon="5.76737">
        <ele>679.31</ele>
        <time>2018-05-25T10:47:43Z</time>
      </trkpt>
      <trkpt lat="43.34119" lon="5.76741">
        <ele>680.27</ele>
        <time>2018-05-25T10:47:54Z</time>
      </trkpt>
      <trkpt lat="43.34126" lon="5.76739">
        <ele>680.27</ele>
        <time>2018-05-25T10:47:55Z</time>
      </trkpt>
      <trkpt lat="43.34131" lon="5.76736">
        <ele>680.27</ele>
        <time>2018-05-25T10:47:56Z</time>
      </trkpt>
      <trkpt lat="43.34137" lon="5.76732">
        <ele>680.27</ele>
        <time>2018-05-25T10:47:57Z</time>
      </trkpt>
      <trkpt lat="43.34142" lon="5.76728">
        <ele>680.27</ele>
        <time>2018-05-25T10:47:58Z</time>
      </trkpt>
      <trkpt lat="43.34204" lon="5.76693">
        <ele>680.75</ele>
        <time>2018-05-25T10:48:09Z</time>
      </trkpt>
      <trkpt lat="43.3421" lon="5.76692">
        <ele>680.75</ele>
        <time>2018-05-25T10:48:10Z</time>
      </trkpt>
      <trkpt lat="43.34216" lon="5.76692">
        <ele>680.75</ele>
        <time>2018-05-25T10:48:11Z</time>
      </trkpt>
      <trkpt lat="43.34222" lon="5.76695">
        <ele>680.27</ele>
        <time>2018-05-25T10:48:12Z</time>
      </trkpt>
      <trkpt lat="43.34227" lon="5.76701">
        <ele>679.79</ele>
        <time>2018-05-25T10:48:13Z</time>
      </trkpt>
      <trkpt lat="43.34232" lon="5.76707">
        <ele>679.31</ele>
        <time>2018-05-25T10:48:14Z</time>
      </trkpt>
      <trkpt lat="43.34262" lon="5.76751">
        <ele>677.39</ele>
        <time>2018-05-25T10:48:20Z</time>
      </trkpt>
      <trkpt lat="43.34267" lon="5.76756">
        <ele>676.42</ele>
        <time>2018-05-25T10:48:21Z</time>
      </trkpt>
      <trkpt lat="43.34273" lon="5.76757">
        <ele>675.94</ele>
        <time>2018-05-25T10:48:22Z</time>
      </trkpt>
      <trkpt lat="43.34278" lon="5.76754">
        <ele>675.46</ele>
        <time>2018-05-25T10:48:23Z</time>
      </trkpt>
      <trkpt lat="43.34282" lon="5.76747">
        <ele>674.98</ele>
        <time>2018-05-25T10:48:24Z</time>
      </trkpt>
      <trkpt lat="43.34284" lon="5.76739">
        <ele>674.5</ele>
        <time>2018-05-25T10:48:25Z</time>
      </trkpt>
      <trkpt lat="43.34285" lon="5.76729">
        <ele>674.02</ele>
        <time>2018-05-25T10:48:26Z</time>
      </trkpt>
      <trkpt lat="43.34285" lon="5.76719">
        <ele>674.02</ele>
        <time>2018-05-25T10:48:27Z</time>
      </trkpt>
      <trkpt lat="43.34291" lon="5.76679">
        <ele>671.62</ele>
        <time>2018-05-25T10:48:31Z</time>
      </trkpt>
      <trkpt lat="43.34294" lon="5.76671">
        <ele>671.14</ele>
        <time>2018-05-25T10:48:32Z</time>
      </trkpt>
      <trkpt lat="43.34299" lon="5.76665">
        <ele>670.66</ele>
        <time>2018-05-25T10:48:33Z</time>
      </trkpt>
      <trkpt lat="43.34305" lon="5.76661">
        <ele>670.18</ele>
        <time>2018-05-25T10:48:34Z</time>
      </trkpt>
      <trkpt lat="43.34312" lon="5.76658">
        <ele>669.7</ele>
        <time>2018-05-25T10:48:35Z</time>
      </trkpt>
      <trkpt lat="43.34319" lon="5.76655">
        <ele>668.73</ele>
        <time>2018-05-25T10:48:36Z</time>
      </trkpt>
      <trkpt lat="43.34327" lon="5.76654">
        <ele>667.77</ele>
        <time>2018-05-25T10:48:37Z</time>
      </trkpt>
      <trkpt lat="43.34335" lon="5.76653">
        <ele>667.29</ele>
        <time>2018-05-25T10:48:38Z</time>
      </trkpt>
      <trkpt lat="43.34343" lon="5.76653">
        <ele>666.33</ele>
        <time>2018-05-25T10:48:39Z</time>
      </trkpt>
      <trkpt lat="43.34351" lon="5.76652">
        <ele>665.85</ele>
        <time>2018-05-25T10:48:40Z</time>
      </trkpt>
      <trkpt lat="43.34358" lon="5.76649">
        <ele>665.37</ele>
        <time>2018-05-25T10:48:41Z</time>
      </trkpt>
      <trkpt lat="43.34364" lon="5.76644">
        <ele>664.89</ele>
        <time>2018-05-25T10:48:42Z</time>
      </trkpt>
      <trkpt lat="43.34369" lon="5.76637">
        <ele>664.89</ele>
        <time>2018-05-25T10:48:43Z</time>
      </trkpt>
      <trkpt lat="43.34374" lon="5.7663">
        <ele>664.41</ele>
        <time>2018-05-25T10:48:44Z</time>
      </trkpt>
      <trkpt lat="43.34379" lon="5.76624">
        <ele>664.41</ele>
        <time>2018-05-25T10:48:45Z</time>
      </trkpt>
      <trkpt lat="43.34388" lon="5.76614">
        <ele>663.93</ele>
        <time>2018-05-25T10:48:47Z</time>
      </trkpt>
      <trkpt lat="43.34393" lon="5.76611">
        <ele>663.45</ele>
        <time>2018-05-25T10:48:48Z</time>
      </trkpt>
      <trkpt lat="43.34399" lon="5.7661">
        <ele>662.97</ele>
        <time>2018-05-25T10:48:49Z</time>
      </trkpt>
      <trkpt lat="43.34404" lon="5.76612">
        <ele>662.49</ele>
        <time>2018-05-25T10:48:50Z</time>
      </trkpt>
      <trkpt lat="43.3441" lon="5.76616">
        <ele>662.49</ele>
        <time>2018-05-25T10:48:51Z</time>
      </trkpt>
      <trkpt lat="43.34415" lon="5.76621">
        <ele>661.52</ele>
        <time>2018-05-25T10:48:52Z</time>
      </trkpt>
      <trkpt lat="43.3442" lon="5.76627">
        <ele>661.04</ele>
        <time>2018-05-25T10:48:53Z</time>
      </trkpt>
      <trkpt lat="43.34423" lon="5.76635">
        <ele>660.56</ele>
        <time>2018-05-25T10:48:54Z</time>
      </trkpt>
      <trkpt lat="43.34426" lon="5.76644">
        <ele>660.08</ele>
        <time>2018-05-25T10:48:55Z</time>
      </trkpt>
      <trkpt lat="43.34428" lon="5.76654">
        <ele>659.6</ele>
        <time>2018-05-25T10:48:56Z</time>
      </trkpt>
      <trkpt lat="43.34435" lon="5.76685">
        <ele>657.68</ele>
        <time>2018-05-25T10:48:59Z</time>
      </trkpt>
      <trkpt lat="43.34437" lon="5.76695">
        <ele>656.72</ele>
        <time>2018-05-25T10:49:00Z</time>
      </trkpt>
      <trkpt lat="43.3444" lon="5.76705">
        <ele>656.24</ele>
        <time>2018-05-25T10:49:01Z</time>
      </trkpt>
      <trkpt lat="43.34445" lon="5.76715">
        <ele>655.28</ele>
        <time>2018-05-25T10:49:02Z</time>
      </trkpt>
      <trkpt lat="43.34452" lon="5.76722">
        <ele>654.8</ele>
        <time>2018-05-25T10:49:03Z</time>
      </trkpt>
      <trkpt lat="43.34459" lon="5.76728">
        <ele>654.31</ele>
        <time>2018-05-25T10:49:04Z</time>
      </trkpt>
      <trkpt lat="43.34468" lon="5.76734">
        <ele>653.83</ele>
        <time>2018-05-25T10:49:05Z</time>
      </trkpt>
      <trkpt lat="43.34476" lon="5.76739">
        <ele>653.35</ele>
        <time>2018-05-25T10:49:06Z</time>
      </trkpt>
      <trkpt lat="43.34512" lon="5.76757">
        <ele>651.43</ele>
        <time>2018-05-25T10:49:10Z</time>
      </trkpt>
      <trkpt lat="43.3452" lon="5.76765">
        <ele>650.95</ele>
        <time>2018-05-25T10:49:11Z</time>
      </trkpt>
      <trkpt lat="43.34553" lon="5.76796">
        <ele>648.55</ele>
        <time>2018-05-25T10:49:15Z</time>
      </trkpt>
      <trkpt lat="43.34563" lon="5.76802">
        <ele>648.07</ele>
        <time>2018-05-25T10:49:16Z</time>
      </trkpt>
      <trkpt lat="43.34572" lon="5.76806">
        <ele>648.07</ele>
        <time>2018-05-25T10:49:17Z</time>
      </trkpt>
      <trkpt lat="43.34582" lon="5.7681">
        <ele>647.59</ele>
        <time>2018-05-25T10:49:18Z</time>
      </trkpt>
      <trkpt lat="43.3459" lon="5.76815">
        <ele>647.1</ele>
        <time>2018-05-25T10:49:19Z</time>
      </trkpt>
      <trkpt lat="43.34599" lon="5.76819">
        <ele>646.62</ele>
        <time>2018-05-25T10:49:20Z</time>
      </trkpt>
      <trkpt lat="43.34608" lon="5.76822">
        <ele>646.14</ele>
        <time>2018-05-25T10:49:21Z</time>
      </trkpt>
      <trkpt lat="43.34618" lon="5.76823">
        <ele>645.66</ele>
        <time>2018-05-25T10:49:22Z</time>
      </trkpt>
      <trkpt lat="43.34628" lon="5.76824">
        <ele>645.18</ele>
        <time>2018-05-25T10:49:23Z</time>
      </trkpt>
      <trkpt lat="43.34709" lon="5.76816">
        <ele>640.38</ele>
        <time>2018-05-25T10:49:31Z</time>
      </trkpt>
      <trkpt lat="43.34753" lon="5.76827">
        <ele>637.01</ele>
        <time>2018-05-25T10:49:36Z</time>
      </trkpt>
      <trkpt lat="43.3476" lon="5.76834">
        <ele>636.53</ele>
        <time>2018-05-25T10:49:37Z</time>
      </trkpt>
      <trkpt lat="43.34766" lon="5.76842">
        <ele>636.05</ele>
        <time>2018-05-25T10:49:38Z</time>
      </trkpt>
      <trkpt lat="43.34771" lon="5.76851">
        <ele>635.57</ele>
        <time>2018-05-25T10:49:39Z</time>
      </trkpt>
      <trkpt lat="43.34775" lon="5.76862">
        <ele>635.09</ele>
        <time>2018-05-25T10:49:40Z</time>
      </trkpt>
      <trkpt lat="43.3484" lon="5.77014">
        <ele>627.88</ele>
        <time>2018-05-25T10:49:53Z</time>
      </trkpt>
      <trkpt lat="43.34891" lon="5.77202">
        <ele>618.75</ele>
        <time>2018-05-25T10:50:06Z</time>
      </trkpt>
      <trkpt lat="43.34913" lon="5.77353">
        <ele>612.5</ele>
        <time>2018-05-25T10:50:16Z</time>
      </trkpt>
      <trkpt lat="43.34913" lon="5.77368">
        <ele>611.54</ele>
        <time>2018-05-25T10:50:17Z</time>
      </trkpt>
      <trkpt lat="43.34909" lon="5.77446">
        <ele>608.65</ele>
        <time>2018-05-25T10:50:22Z</time>
      </trkpt>
      <trkpt lat="43.34883" lon="5.77586">
        <ele>601.44</ele>
        <time>2018-05-25T10:50:32Z</time>
      </trkpt>
      <trkpt lat="43.34871" lon="5.77618">
        <ele>599.52</ele>
        <time>2018-05-25T10:50:35Z</time>
      </trkpt>
      <trkpt lat="43.34866" lon="5.77627">
        <ele>598.56</ele>
        <time>2018-05-25T10:50:36Z</time>
      </trkpt>
      <trkpt lat="43.34861" lon="5.77635">
        <ele>598.08</ele>
        <time>2018-05-25T10:50:37Z</time>
      </trkpt>
      <trkpt lat="43.34857" lon="5.77644">
        <ele>597.12</ele>
        <time>2018-05-25T10:50:38Z</time>
      </trkpt>
      <trkpt lat="43.34855" lon="5.77654">
        <ele>596.64</ele>
        <time>2018-05-25T10:50:39Z</time>
      </trkpt>
      <trkpt lat="43.34855" lon="5.77665">
        <ele>596.15</ele>
        <time>2018-05-25T10:50:40Z</time>
      </trkpt>
      <trkpt lat="43.34856" lon="5.77677">
        <ele>595.19</ele>
        <time>2018-05-25T10:50:41Z</time>
      </trkpt>
      <trkpt lat="43.34858" lon="5.77688">
        <ele>594.71</ele>
        <time>2018-05-25T10:50:42Z</time>
      </trkpt>
      <trkpt lat="43.34859" lon="5.77699">
        <ele>594.23</ele>
        <time>2018-05-25T10:50:43Z</time>
      </trkpt>
      <trkpt lat="43.3486" lon="5.77709">
        <ele>593.75</ele>
        <time>2018-05-25T10:50:44Z</time>
      </trkpt>
      <trkpt lat="43.34863" lon="5.77717">
        <ele>593.27</ele>
        <time>2018-05-25T10:50:45Z</time>
      </trkpt>
      <trkpt lat="43.34869" lon="5.77722">
        <ele>592.79</ele>
        <time>2018-05-25T10:50:46Z</time>
      </trkpt>
      <trkpt lat="43.34876" lon="5.77725">
        <ele>592.79</ele>
        <time>2018-05-25T10:50:47Z</time>
      </trkpt>
      <trkpt lat="43.34884" lon="5.77728">
        <ele>592.79</ele>
        <time>2018-05-25T10:50:48Z</time>
      </trkpt>
      <trkpt lat="43.34908" lon="5.77736">
        <ele>591.83</ele>
        <time>2018-05-25T10:50:51Z</time>
      </trkpt>
      <trkpt lat="43.34915" lon="5.77741">
        <ele>591.35</ele>
        <time>2018-05-25T10:50:52Z</time>
      </trkpt>
      <trkpt lat="43.34923" lon="5.77746">
        <ele>591.35</ele>
        <time>2018-05-25T10:50:53Z</time>
      </trkpt>
      <trkpt lat="43.34951" lon="5.77774">
        <ele>588.95</ele>
        <time>2018-05-25T10:50:57Z</time>
      </trkpt>
      <trkpt lat="43.34957" lon="5.77782">
        <ele>588.46</ele>
        <time>2018-05-25T10:50:58Z</time>
      </trkpt>
      <trkpt lat="43.34962" lon="5.77792">
        <ele>587.5</ele>
        <time>2018-05-25T10:50:59Z</time>
      </trkpt>
      <trkpt lat="43.34966" lon="5.77803">
        <ele>587.02</ele>
        <time>2018-05-25T10:51:00Z</time>
      </trkpt>
      <trkpt lat="43.34969" lon="5.77814">
        <ele>586.54</ele>
        <time>2018-05-25T10:51:01Z</time>
      </trkpt>
      <trkpt lat="43.34971" lon="5.77827">
        <ele>586.06</ele>
        <time>2018-05-25T10:51:02Z</time>
      </trkpt>
      <trkpt lat="43.34973" lon="5.7784">
        <ele>585.58</ele>
        <time>2018-05-25T10:51:03Z</time>
      </trkpt>
      <trkpt lat="43.34983" lon="5.77955">
        <ele>579.81</ele>
        <time>2018-05-25T10:51:12Z</time>
      </trkpt>
      <trkpt lat="43.34981" lon="5.77965">
        <ele>579.33</ele>
        <time>2018-05-25T10:51:13Z</time>
      </trkpt>
      <trkpt lat="43.34978" lon="5.77985">
        <ele>577.89</ele>
        <time>2018-05-25T10:51:15Z</time>
      </trkpt>
      <trkpt lat="43.3498" lon="5.77994">
        <ele>577.41</ele>
        <time>2018-05-25T10:51:16Z</time>
      </trkpt>
      <trkpt lat="43.34984" lon="5.78002">
        <ele>576.93</ele>
        <time>2018-05-25T10:51:17Z</time>
      </trkpt>
      <trkpt lat="43.3499" lon="5.78009">
        <ele>576.45</ele>
        <time>2018-05-25T10:51:18Z</time>
      </trkpt>
      <trkpt lat="43.34997" lon="5.78016">
        <ele>575.97</ele>
        <time>2018-05-25T10:51:19Z</time>
      </trkpt>
      <trkpt lat="43.35003" lon="5.78024">
        <ele>575.49</ele>
        <time>2018-05-25T10:51:20Z</time>
      </trkpt>
      <trkpt lat="43.35009" lon="5.78034">
        <ele>574.53</ele>
        <time>2018-05-25T10:51:21Z</time>
      </trkpt>
      <trkpt lat="43.35037" lon="5.78121">
        <ele>569.72</ele>
        <time>2018-05-25T10:51:28Z</time>
      </trkpt>
      <trkpt lat="43.35034" lon="5.78265">
        <ele>563.47</ele>
        <time>2018-05-25T10:51:38Z</time>
      </trkpt>
      <trkpt lat="43.35029" lon="5.78464">
        <ele>554.82</ele>
        <time>2018-05-25T10:51:51Z</time>
      </trkpt>
      <trkpt lat="43.35026" lon="5.78653">
        <ele>544.72</ele>
        <time>2018-05-25T10:52:04Z</time>
      </trkpt>
      <trkpt lat="43.35026" lon="5.78667">
        <ele>544.24</ele>
        <time>2018-05-25T10:52:05Z</time>
      </trkpt>
      <trkpt lat="43.35026" lon="5.78784">
        <ele>539.92</ele>
        <time>2018-05-25T10:52:14Z</time>
      </trkpt>
      <trkpt lat="43.35015" lon="5.78849">
        <ele>537.51</ele>
        <time>2018-05-25T10:52:20Z</time>
      </trkpt>
      <trkpt lat="43.35011" lon="5.78858">
        <ele>536.55</ele>
        <time>2018-05-25T10:52:21Z</time>
      </trkpt>
      <trkpt lat="43.35005" lon="5.78864">
        <ele>536.07</ele>
        <time>2018-05-25T10:52:22Z</time>
      </trkpt>
      <trkpt lat="43.34998" lon="5.78868">
        <ele>536.07</ele>
        <time>2018-05-25T10:52:23Z</time>
      </trkpt>
      <trkpt lat="43.34991" lon="5.78869">
        <ele>536.07</ele>
        <time>2018-05-25T10:52:24Z</time>
      </trkpt>
      <trkpt lat="43.34983" lon="5.78868">
        <ele>536.07</ele>
        <time>2018-05-25T10:52:25Z</time>
      </trkpt>
      <trkpt lat="43.34976" lon="5.78867">
        <ele>536.07</ele>
        <time>2018-05-25T10:52:26Z</time>
      </trkpt>
      <trkpt lat="43.34965" lon="5.78866">
        <ele>536.07</ele>
        <time>2018-05-25T10:52:28Z</time>
      </trkpt>
      <trkpt lat="43.34961" lon="5.7887">
        <ele>536.07</ele>
        <time>2018-05-25T10:52:29Z</time>
      </trkpt>
      <trkpt lat="43.34957" lon="5.78876">
        <ele>536.07</ele>
        <time>2018-05-25T10:52:30Z</time>
      </trkpt>
      <trkpt lat="43.34956" lon="5.78884">
        <ele>536.07</ele>
        <time>2018-05-25T10:52:31Z</time>
      </trkpt>
      <trkpt lat="43.34955" lon="5.78893">
        <ele>536.07</ele>
        <time>2018-05-25T10:52:32Z</time>
      </trkpt>
      <trkpt lat="43.34956" lon="5.78903">
        <ele>535.59</ele>
        <time>2018-05-25T10:52:33Z</time>
      </trkpt>
      <trkpt lat="43.34957" lon="5.78913">
        <ele>535.59</ele>
        <time>2018-05-25T10:52:34Z</time>
      </trkpt>
      <trkpt lat="43.34959" lon="5.78922">
        <ele>535.11</ele>
        <time>2018-05-25T10:52:35Z</time>
      </trkpt>
      <trkpt lat="43.34963" lon="5.78932">
        <ele>534.63</ele>
        <time>2018-05-25T10:52:36Z</time>
      </trkpt>
      <trkpt lat="43.34974" lon="5.78971">
        <ele>532.23</ele>
        <time>2018-05-25T10:52:40Z</time>
      </trkpt>
      <trkpt lat="43.34975" lon="5.78982">
        <ele>531.75</ele>
        <time>2018-05-25T10:52:41Z</time>
      </trkpt>
      <trkpt lat="43.34975" lon="5.79016">
        <ele>530.3</ele>
        <time>2018-05-25T10:52:44Z</time>
      </trkpt>
      <trkpt lat="43.34967" lon="5.7907">
        <ele>527.9</ele>
        <time>2018-05-25T10:52:49Z</time>
      </trkpt>
      <trkpt lat="43.34945" lon="5.79153">
        <ele>523.58</ele>
        <time>2018-05-25T10:52:58Z</time>
      </trkpt>
      <trkpt lat="43.34945" lon="5.79159">
        <ele>523.09</ele>
        <time>2018-05-25T10:52:59Z</time>
      </trkpt>
      <trkpt lat="43.34947" lon="5.79164">
        <ele>522.61</ele>
        <time>2018-05-25T10:53:00Z</time>
      </trkpt>
      <trkpt lat="43.34953" lon="5.79167">
        <ele>522.61</ele>
        <time>2018-05-25T10:53:01Z</time>
      </trkpt>
      <trkpt lat="43.3496" lon="5.79167">
        <ele>522.61</ele>
        <time>2018-05-25T10:53:02Z</time>
      </trkpt>
      <trkpt lat="43.34966" lon="5.79164">
        <ele>522.13</ele>
        <time>2018-05-25T10:53:03Z</time>
      </trkpt>
      <trkpt lat="43.34972" lon="5.7916">
        <ele>521.65</ele>
        <time>2018-05-25T10:53:04Z</time>
      </trkpt>
      <trkpt lat="43.34977" lon="5.79154">
        <ele>521.65</ele>
        <time>2018-05-25T10:53:05Z</time>
      </trkpt>
      <trkpt lat="43.34982" lon="5.79147">
        <ele>521.17</ele>
        <time>2018-05-25T10:53:06Z</time>
      </trkpt>
      <trkpt lat="43.34987" lon="5.7914">
        <ele>520.69</ele>
        <time>2018-05-25T10:53:07Z</time>
      </trkpt>
      <trkpt lat="43.34992" lon="5.79132">
        <ele>520.21</ele>
        <time>2018-05-25T10:53:08Z</time>
      </trkpt>
      <trkpt lat="43.35047" lon="5.79025">
        <ele>514.44</ele>
        <time>2018-05-25T10:53:19Z</time>
      </trkpt>
      <trkpt lat="43.35058" lon="5.79009">
        <ele>513.48</ele>
        <time>2018-05-25T10:53:21Z</time>
      </trkpt>
      <trkpt lat="43.35065" lon="5.79001">
        <ele>513</ele>
        <time>2018-05-25T10:53:22Z</time>
      </trkpt>
      <trkpt lat="43.35095" lon="5.78976">
        <ele>510.6</ele>
        <time>2018-05-25T10:53:26Z</time>
      </trkpt>
      <trkpt lat="43.35104" lon="5.78972">
        <ele>510.12</ele>
        <time>2018-05-25T10:53:27Z</time>
      </trkpt>
      <trkpt lat="43.35113" lon="5.78971">
        <ele>509.64</ele>
        <time>2018-05-25T10:53:28Z</time>
      </trkpt>
      <trkpt lat="43.35131" lon="5.7897">
        <ele>508.67</ele>
        <time>2018-05-25T10:53:30Z</time>
      </trkpt>
      <trkpt lat="43.3514" lon="5.78968">
        <ele>508.67</ele>
        <time>2018-05-25T10:53:31Z</time>
      </trkpt>
      <trkpt lat="43.35149" lon="5.78964">
        <ele>508.19</ele>
        <time>2018-05-25T10:53:32Z</time>
      </trkpt>
      <trkpt lat="43.35157" lon="5.78958">
        <ele>507.71</ele>
        <time>2018-05-25T10:53:33Z</time>
      </trkpt>
      <trkpt lat="43.35165" lon="5.78952">
        <ele>507.23</ele>
        <time>2018-05-25T10:53:34Z</time>
      </trkpt>
      <trkpt lat="43.35181" lon="5.78938">
        <ele>506.27</ele>
        <time>2018-05-25T10:53:36Z</time>
      </trkpt>
      <trkpt lat="43.35186" lon="5.78928">
        <ele>505.79</ele>
        <time>2018-05-25T10:53:37Z</time>
      </trkpt>
      <trkpt lat="43.35191" lon="5.78917">
        <ele>505.31</ele>
        <time>2018-05-25T10:53:38Z</time>
      </trkpt>
      <trkpt lat="43.352" lon="5.78893">
        <ele>503.87</ele>
        <time>2018-05-25T10:53:40Z</time>
      </trkpt>
      <trkpt lat="43.35204" lon="5.78881">
        <ele>503.39</ele>
        <time>2018-05-25T10:53:41Z</time>
      </trkpt>
      <trkpt lat="43.35216" lon="5.78843">
        <ele>500.98</ele>
        <time>2018-05-25T10:53:44Z</time>
      </trkpt>
      <trkpt lat="43.35218" lon="5.7883">
        <ele>500.5</ele>
        <time>2018-05-25T10:53:45Z</time>
      </trkpt>
      <trkpt lat="43.3522" lon="5.78816">
        <ele>499.54</ele>
        <time>2018-05-25T10:53:46Z</time>
      </trkpt>
      <trkpt lat="43.35223" lon="5.78758">
        <ele>495.7</ele>
        <time>2018-05-25T10:53:51Z</time>
      </trkpt>
      <trkpt lat="43.35225" lon="5.78749">
        <ele>494.74</ele>
        <time>2018-05-25T10:53:52Z</time>
      </trkpt>
      <trkpt lat="43.35229" lon="5.7874">
        <ele>494.26</ele>
        <time>2018-05-25T10:53:53Z</time>
      </trkpt>
      <trkpt lat="43.35233" lon="5.78732">
        <ele>493.29</ele>
        <time>2018-05-25T10:53:54Z</time>
      </trkpt>
      <trkpt lat="43.3524" lon="5.78726">
        <ele>492.81</ele>
        <time>2018-05-25T10:53:55Z</time>
      </trkpt>
      <trkpt lat="43.35247" lon="5.7872">
        <ele>491.85</ele>
        <time>2018-05-25T10:53:56Z</time>
      </trkpt>
      <trkpt lat="43.35254" lon="5.78715">
        <ele>491.37</ele>
        <time>2018-05-25T10:53:57Z</time>
      </trkpt>
      <trkpt lat="43.35259" lon="5.7871">
        <ele>490.89</ele>
        <time>2018-05-25T10:53:58Z</time>
      </trkpt>
      <trkpt lat="43.35263" lon="5.78703">
        <ele>490.41</ele>
        <time>2018-05-25T10:53:59Z</time>
      </trkpt>
      <trkpt lat="43.35266" lon="5.78695">
        <ele>489.93</ele>
        <time>2018-05-25T10:54:00Z</time>
      </trkpt>
      <trkpt lat="43.35266" lon="5.78685">
        <ele>489.93</ele>
        <time>2018-05-25T10:54:01Z</time>
      </trkpt>
      <trkpt lat="43.35264" lon="5.78676">
        <ele>489.45</ele>
        <time>2018-05-25T10:54:02Z</time>
      </trkpt>
      <trkpt lat="43.35262" lon="5.78666">
        <ele>488.97</ele>
        <time>2018-05-25T10:54:03Z</time>
      </trkpt>
      <trkpt lat="43.35248" lon="5.786">
        <ele>487.53</ele>
        <time>2018-05-25T10:54:09Z</time>
      </trkpt>
      <trkpt lat="43.35247" lon="5.78588">
        <ele>487.05</ele>
        <time>2018-05-25T10:54:10Z</time>
      </trkpt>
      <trkpt lat="43.35246" lon="5.7844">
        <ele>483.2</ele>
        <time>2018-05-25T10:54:22Z</time>
      </trkpt>
      <trkpt lat="43.35248" lon="5.78375">
        <ele>480.8</ele>
        <time>2018-05-25T10:54:28Z</time>
      </trkpt>
      <trkpt lat="43.3525" lon="5.78365">
        <ele>480.32</ele>
        <time>2018-05-25T10:54:29Z</time>
      </trkpt>
      <trkpt lat="43.35253" lon="5.78355">
        <ele>479.84</ele>
        <time>2018-05-25T10:54:30Z</time>
      </trkpt>
      <trkpt lat="43.35258" lon="5.78345">
        <ele>478.87</ele>
        <time>2018-05-25T10:54:31Z</time>
      </trkpt>
      <trkpt lat="43.35263" lon="5.78336">
        <ele>478.39</ele>
        <time>2018-05-25T10:54:32Z</time>
      </trkpt>
      <trkpt lat="43.35269" lon="5.78327">
        <ele>477.43</ele>
        <time>2018-05-25T10:54:33Z</time>
      </trkpt>
      <trkpt lat="43.35341" lon="5.78263">
        <ele>472.14</ele>
        <time>2018-05-25T10:54:42Z</time>
      </trkpt>
      <trkpt lat="43.3535" lon="5.7826">
        <ele>471.18</ele>
        <time>2018-05-25T10:54:43Z</time>
      </trkpt>
      <trkpt lat="43.35359" lon="5.78259">
        <ele>470.7</ele>
        <time>2018-05-25T10:54:44Z</time>
      </trkpt>
      <trkpt lat="43.35369" lon="5.7826">
        <ele>470.22</ele>
        <time>2018-05-25T10:54:45Z</time>
      </trkpt>
      <trkpt lat="43.35378" lon="5.78262">
        <ele>469.74</ele>
        <time>2018-05-25T10:54:46Z</time>
      </trkpt>
      <trkpt lat="43.35417" lon="5.78275">
        <ele>467.82</ele>
        <time>2018-05-25T10:54:50Z</time>
      </trkpt>
      <trkpt lat="43.35426" lon="5.78281">
        <ele>466.86</ele>
        <time>2018-05-25T10:54:51Z</time>
      </trkpt>
      <trkpt lat="43.35436" lon="5.78287">
        <ele>466.38</ele>
        <time>2018-05-25T10:54:52Z</time>
      </trkpt>
      <trkpt lat="43.35539" lon="5.78391">
        <ele>461.09</ele>
        <time>2018-05-25T10:55:05Z</time>
      </trkpt>
      <trkpt lat="43.3561" lon="5.78495">
        <ele>454.36</ele>
        <time>2018-05-25T10:55:17Z</time>
      </trkpt>
      <trkpt lat="43.35631" lon="5.78532">
        <ele>451.96</ele>
        <time>2018-05-25T10:55:21Z</time>
      </trkpt>
      <trkpt lat="43.35637" lon="5.78541">
        <ele>451.48</ele>
        <time>2018-05-25T10:55:22Z</time>
      </trkpt>
      <trkpt lat="43.35644" lon="5.78548">
        <ele>451</ele>
        <time>2018-05-25T10:55:23Z</time>
      </trkpt>
      <trkpt lat="43.35693" lon="5.78589">
        <ele>448.11</ele>
        <time>2018-05-25T10:55:30Z</time>
      </trkpt>
      <trkpt lat="43.35699" lon="5.78597">
        <ele>447.63</ele>
        <time>2018-05-25T10:55:31Z</time>
      </trkpt>
      <trkpt lat="43.35764" lon="5.78678">
        <ele>443.31</ele>
        <time>2018-05-25T10:55:41Z</time>
      </trkpt>
      <trkpt lat="43.35822" lon="5.78728">
        <ele>438.98</ele>
        <time>2018-05-25T10:55:50Z</time>
      </trkpt>
      <trkpt lat="43.35828" lon="5.78734">
        <ele>438.98</ele>
        <time>2018-05-25T10:55:51Z</time>
      </trkpt>
      <trkpt lat="43.35833" lon="5.78743">
        <ele>438.5</ele>
        <time>2018-05-25T10:55:52Z</time>
      </trkpt>
      <trkpt lat="43.35835" lon="5.78753">
        <ele>438.5</ele>
        <time>2018-05-25T10:55:53Z</time>
      </trkpt>
      <trkpt lat="43.35837" lon="5.78763">
        <ele>438.02</ele>
        <time>2018-05-25T10:55:54Z</time>
      </trkpt>
      <trkpt lat="43.35838" lon="5.78773">
        <ele>437.54</ele>
        <time>2018-05-25T10:55:55Z</time>
      </trkpt>
      <trkpt lat="43.35841" lon="5.78781">
        <ele>437.06</ele>
        <time>2018-05-25T10:55:56Z</time>
      </trkpt>
      <trkpt lat="43.35845" lon="5.78786">
        <ele>436.58</ele>
        <time>2018-05-25T10:55:57Z</time>
      </trkpt>
      <trkpt lat="43.3585" lon="5.78786">
        <ele>436.1</ele>
        <time>2018-05-25T10:55:58Z</time>
      </trkpt>
      <trkpt lat="43.35854" lon="5.78782">
        <ele>436.1</ele>
        <time>2018-05-25T10:55:59Z</time>
      </trkpt>
      <trkpt lat="43.35856" lon="5.78776">
        <ele>435.61</ele>
        <time>2018-05-25T10:56:00Z</time>
      </trkpt>
      <trkpt lat="43.35857" lon="5.78769">
        <ele>435.13</ele>
        <time>2018-05-25T10:56:01Z</time>
      </trkpt>
      <trkpt lat="43.35855" lon="5.78761">
        <ele>434.65</ele>
        <time>2018-05-25T10:56:02Z</time>
      </trkpt>
      <trkpt lat="43.35852" lon="5.78753">
        <ele>434.17</ele>
        <time>2018-05-25T10:56:03Z</time>
      </trkpt>
      <trkpt lat="43.35849" lon="5.78746">
        <ele>433.69</ele>
        <time>2018-05-25T10:56:04Z</time>
      </trkpt>
      <trkpt lat="43.35845" lon="5.78738">
        <ele>433.21</ele>
        <time>2018-05-25T10:56:05Z</time>
      </trkpt>
      <trkpt lat="43.35841" lon="5.78731">
        <ele>433.21</ele>
        <time>2018-05-25T10:56:06Z</time>
      </trkpt>
      <trkpt lat="43.35827" lon="5.7871">
        <ele>431.77</ele>
        <time>2018-05-25T10:56:09Z</time>
      </trkpt>
      <trkpt lat="43.35821" lon="5.78703">
        <ele>431.29</ele>
        <time>2018-05-25T10:56:10Z</time>
      </trkpt>
      <trkpt lat="43.35815" lon="5.78696">
        <ele>430.81</ele>
        <time>2018-05-25T10:56:11Z</time>
      </trkpt>
      <trkpt lat="43.35751" lon="5.78595">
        <ele>424.56</ele>
        <time>2018-05-25T10:56:22Z</time>
      </trkpt>
      <trkpt lat="43.3568" lon="5.7846">
        <ele>416.39</ele>
        <time>2018-05-25T10:56:34Z</time>
      </trkpt>
      <trkpt lat="43.35663" lon="5.78404">
        <ele>413.02</ele>
        <time>2018-05-25T10:56:40Z</time>
      </trkpt>
      <trkpt lat="43.35664" lon="5.78395">
        <ele>412.54</ele>
        <time>2018-05-25T10:56:41Z</time>
      </trkpt>
      <trkpt lat="43.35667" lon="5.78387">
        <ele>412.54</ele>
        <time>2018-05-25T10:56:42Z</time>
      </trkpt>
      <trkpt lat="43.35672" lon="5.78382">
        <ele>412.06</ele>
        <time>2018-05-25T10:56:43Z</time>
      </trkpt>
      <trkpt lat="43.35678" lon="5.7838">
        <ele>411.58</ele>
        <time>2018-05-25T10:56:44Z</time>
      </trkpt>
      <trkpt lat="43.35684" lon="5.78383">
        <ele>411.1</ele>
        <time>2018-05-25T10:56:45Z</time>
      </trkpt>
      <trkpt lat="43.35688" lon="5.78389">
        <ele>411.1</ele>
        <time>2018-05-25T10:56:46Z</time>
      </trkpt>
      <trkpt lat="43.35691" lon="5.78397">
        <ele>410.62</ele>
        <time>2018-05-25T10:56:47Z</time>
      </trkpt>
      <trkpt lat="43.35693" lon="5.78406">
        <ele>410.62</ele>
        <time>2018-05-25T10:56:48Z</time>
      </trkpt>
      <trkpt lat="43.35694" lon="5.78416">
        <ele>410.14</ele>
        <time>2018-05-25T10:56:49Z</time>
      </trkpt>
      <trkpt lat="43.35696" lon="5.78425">
        <ele>410.14</ele>
        <time>2018-05-25T10:56:50Z</time>
      </trkpt>
      <trkpt lat="43.35704" lon="5.78455">
        <ele>409.66</ele>
        <time>2018-05-25T10:56:53Z</time>
      </trkpt>
      <trkpt lat="43.35709" lon="5.78463">
        <ele>409.18</ele>
        <time>2018-05-25T10:56:54Z</time>
      </trkpt>
      <trkpt lat="43.35715" lon="5.7847">
        <ele>409.18</ele>
        <time>2018-05-25T10:56:55Z</time>
      </trkpt>
      <trkpt lat="43.35721" lon="5.78476">
        <ele>408.7</ele>
        <time>2018-05-25T10:56:56Z</time>
      </trkpt>
      <trkpt lat="43.35729" lon="5.78482">
        <ele>408.7</ele>
        <time>2018-05-25T10:56:57Z</time>
      </trkpt>
      <trkpt lat="43.35737" lon="5.78487">
        <ele>408.7</ele>
        <time>2018-05-25T10:56:58Z</time>
      </trkpt>
      <trkpt lat="43.35767" lon="5.78508">
        <ele>408.7</ele>
        <time>2018-05-25T10:57:02Z</time>
      </trkpt>
      <trkpt lat="43.35774" lon="5.78517">
        <ele>408.7</ele>
        <time>2018-05-25T10:57:03Z</time>
      </trkpt>
      <trkpt lat="43.35779" lon="5.78525">
        <ele>408.7</ele>
        <time>2018-05-25T10:57:04Z</time>
      </trkpt>
      <trkpt lat="43.35784" lon="5.78534">
        <ele>408.7</ele>
        <time>2018-05-25T10:57:05Z</time>
      </trkpt>
      <trkpt lat="43.35788" lon="5.78544">
        <ele>408.7</ele>
        <time>2018-05-25T10:57:06Z</time>
      </trkpt>
      <trkpt lat="43.35814" lon="5.786">
        <ele>407.74</ele>
        <time>2018-05-25T10:57:12Z</time>
      </trkpt>
      <trkpt lat="43.35819" lon="5.78607">
        <ele>407.74</ele>
        <time>2018-05-25T10:57:13Z</time>
      </trkpt>
      <trkpt lat="43.35825" lon="5.78613">
        <ele>407.74</ele>
        <time>2018-05-25T10:57:14Z</time>
      </trkpt>
      <trkpt lat="43.35831" lon="5.78617">
        <ele>407.74</ele>
        <time>2018-05-25T10:57:15Z</time>
      </trkpt>
      <trkpt lat="43.35838" lon="5.78621">
        <ele>407.74</ele>
        <time>2018-05-25T10:57:16Z</time>
      </trkpt>
      <trkpt lat="43.35847" lon="5.78624">
        <ele>407.74</ele>
        <time>2018-05-25T10:57:17Z</time>
      </trkpt>
      <trkpt lat="43.35859" lon="5.78626">
        <ele>407.26</ele>
        <time>2018-05-25T10:57:18Z</time>
      </trkpt>
      <trkpt lat="43.3592" lon="5.78641">
        <ele>407.26</ele>
        <time>2018-05-25T10:57:25Z</time>
      </trkpt>
      <trkpt lat="43.35929" lon="5.7864">
        <ele>407.26</ele>
        <time>2018-05-25T10:57:26Z</time>
      </trkpt>
      <trkpt lat="43.35936" lon="5.78638">
        <ele>407.26</ele>
        <time>2018-05-25T10:57:27Z</time>
      </trkpt>
      <trkpt lat="43.35944" lon="5.78634">
        <ele>407.26</ele>
        <time>2018-05-25T10:57:28Z</time>
      </trkpt>
      <trkpt lat="43.35951" lon="5.78628">
        <ele>407.26</ele>
        <time>2018-05-25T10:57:29Z</time>
      </trkpt>
      <trkpt lat="43.35958" lon="5.78622">
        <ele>407.26</ele>
        <time>2018-05-25T10:57:30Z</time>
      </trkpt>
      <trkpt lat="43.35965" lon="5.78614">
        <ele>407.26</ele>
        <time>2018-05-25T10:57:31Z</time>
      </trkpt>
      <trkpt lat="43.35971" lon="5.78606">
        <ele>407.26</ele>
        <time>2018-05-25T10:57:32Z</time>
      </trkpt>
      <trkpt lat="43.36054" lon="5.78503">
        <ele>404.85</ele>
        <time>2018-05-25T10:57:45Z</time>
      </trkpt>
      <trkpt lat="43.3608" lon="5.7847">
        <ele>403.41</ele>
        <time>2018-05-25T10:57:49Z</time>
      </trkpt>
      <trkpt lat="43.36085" lon="5.7846">
        <ele>402.93</ele>
        <time>2018-05-25T10:57:50Z</time>
      </trkpt>
      <trkpt lat="43.3609" lon="5.7845">
        <ele>402.45</ele>
        <time>2018-05-25T10:57:51Z</time>
      </trkpt>
      <trkpt lat="43.36114" lon="5.78396">
        <ele>399.08</ele>
        <time>2018-05-25T10:57:57Z</time>
      </trkpt>
      <trkpt lat="43.36119" lon="5.78389">
        <ele>398.6</ele>
        <time>2018-05-25T10:57:58Z</time>
      </trkpt>
      <trkpt lat="43.36123" lon="5.78385">
        <ele>398.6</ele>
        <time>2018-05-25T10:57:59Z</time>
      </trkpt>
      <trkpt lat="43.36128" lon="5.78382">
        <ele>398.12</ele>
        <time>2018-05-25T10:58:00Z</time>
      </trkpt>
      <trkpt lat="43.36134" lon="5.78383">
        <ele>397.64</ele>
        <time>2018-05-25T10:58:01Z</time>
      </trkpt>
      <trkpt lat="43.36139" lon="5.78385">
        <ele>397.16</ele>
        <time>2018-05-25T10:58:02Z</time>
      </trkpt>
      <trkpt lat="43.36144" lon="5.78389">
        <ele>396.68</ele>
        <time>2018-05-25T10:58:03Z</time>
      </trkpt>
      <trkpt lat="43.36149" lon="5.78393">
        <ele>396.68</ele>
        <time>2018-05-25T10:58:04Z</time>
      </trkpt>
      <trkpt lat="43.3616" lon="5.78401">
        <ele>396.2</ele>
        <time>2018-05-25T10:58:06Z</time>
      </trkpt>
      <trkpt lat="43.36249" lon="5.78477">
        <ele>393.32</ele>
        <time>2018-05-25T10:58:22Z</time>
      </trkpt>
      <trkpt lat="43.36372" lon="5.7858">
        <ele>391.39</ele>
        <time>2018-05-25T10:58:41Z</time>
      </trkpt>
      <trkpt lat="43.36379" lon="5.78583">
        <ele>391.39</ele>
        <time>2018-05-25T10:58:42Z</time>
      </trkpt>
      <trkpt lat="43.36385" lon="5.78584">
        <ele>391.39</ele>
        <time>2018-05-25T10:58:43Z</time>
      </trkpt>
      <trkpt lat="43.3647" lon="5.78588">
        <ele>394.76</ele>
        <time>2018-05-25T10:58:57Z</time>
      </trkpt>
      <trkpt lat="43.36475" lon="5.78589">
        <ele>395.24</ele>
        <time>2018-05-25T10:58:58Z</time>
      </trkpt>
      <trkpt lat="43.3648" lon="5.78591">
        <ele>395.24</ele>
        <time>2018-05-25T10:58:59Z</time>
      </trkpt>
      <trkpt lat="43.3649" lon="5.78596">
        <ele>396.2</ele>
        <time>2018-05-25T10:59:01Z</time>
      </trkpt>
      <trkpt lat="43.36495" lon="5.786">
        <ele>396.68</ele>
        <time>2018-05-25T10:59:02Z</time>
      </trkpt>
      <trkpt lat="43.36564" lon="5.7867">
        <ele>398.12</ele>
        <time>2018-05-25T10:59:16Z</time>
      </trkpt>
      <trkpt lat="43.36569" lon="5.78673">
        <ele>397.64</ele>
        <time>2018-05-25T10:59:17Z</time>
      </trkpt>
      <trkpt lat="43.36574" lon="5.78675">
        <ele>397.64</ele>
        <time>2018-05-25T10:59:18Z</time>
      </trkpt>
      <trkpt lat="43.3658" lon="5.78677">
        <ele>397.16</ele>
        <time>2018-05-25T10:59:19Z</time>
      </trkpt>
      <trkpt lat="43.36585" lon="5.78677">
        <ele>397.16</ele>
        <time>2018-05-25T10:59:20Z</time>
      </trkpt>
      <trkpt lat="43.3659" lon="5.78677">
        <ele>396.68</ele>
        <time>2018-05-25T10:59:21Z</time>
      </trkpt>
      <trkpt lat="43.36596" lon="5.78676">
        <ele>396.68</ele>
        <time>2018-05-25T10:59:22Z</time>
      </trkpt>
      <trkpt lat="43.36601" lon="5.78674">
        <ele>396.2</ele>
        <time>2018-05-25T10:59:23Z</time>
      </trkpt>
      <trkpt lat="43.36606" lon="5.78672">
        <ele>396.2</ele>
        <time>2018-05-25T10:59:24Z</time>
      </trkpt>
      <trkpt lat="43.36611" lon="5.78669">
        <ele>396.2</ele>
        <time>2018-05-25T10:59:25Z</time>
      </trkpt>
      <trkpt lat="43.36616" lon="5.78665">
        <ele>395.72</ele>
        <time>2018-05-25T10:59:26Z</time>
      </trkpt>
      <trkpt lat="43.36621" lon="5.78661">
        <ele>395.72</ele>
        <time>2018-05-25T10:59:27Z</time>
      </trkpt>
      <trkpt lat="43.36626" lon="5.78657">
        <ele>395.72</ele>
        <time>2018-05-25T10:59:28Z</time>
      </trkpt>
      <trkpt lat="43.36631" lon="5.78653">
        <ele>395.24</ele>
        <time>2018-05-25T10:59:29Z</time>
      </trkpt>
      <trkpt lat="43.36705" lon="5.7859">
        <ele>395.24</ele>
        <time>2018-05-25T10:59:44Z</time>
      </trkpt>
      <trkpt lat="43.36786" lon="5.78542">
        <ele>394.76</ele>
        <time>2018-05-25T11:00:00Z</time>
      </trkpt>
      <trkpt lat="43.36866" lon="5.78506">
        <ele>393.32</ele>
        <time>2018-05-25T11:00:15Z</time>
      </trkpt>
      <trkpt lat="43.36947" lon="5.7846">
        <ele>391.87</ele>
        <time>2018-05-25T11:00:31Z</time>
      </trkpt>
      <trkpt lat="43.36987" lon="5.78421">
        <ele>391.87</ele>
        <time>2018-05-25T11:00:41Z</time>
      </trkpt>
      <trkpt lat="43.36991" lon="5.78418">
        <ele>391.87</ele>
        <time>2018-05-25T11:00:42Z</time>
      </trkpt>
      <trkpt lat="43.36995" lon="5.78415">
        <ele>392.36</ele>
        <time>2018-05-25T11:00:43Z</time>
      </trkpt>
      <trkpt lat="43.36998" lon="5.78412">
        <ele>392.84</ele>
        <time>2018-05-25T11:00:44Z</time>
      </trkpt>
      <trkpt lat="43.37002" lon="5.78407">
        <ele>392.84</ele>
        <time>2018-05-25T11:00:45Z</time>
      </trkpt>
      <trkpt lat="43.37004" lon="5.78402">
        <ele>393.32</ele>
        <time>2018-05-25T11:00:46Z</time>
      </trkpt>
      <trkpt lat="43.37007" lon="5.78397">
        <ele>393.8</ele>
        <time>2018-05-25T11:00:47Z</time>
      </trkpt>
      <trkpt lat="43.37009" lon="5.78392">
        <ele>393.8</ele>
        <time>2018-05-25T11:00:48Z</time>
      </trkpt>
      <trkpt lat="43.37011" lon="5.78387">
        <ele>394.28</ele>
        <time>2018-05-25T11:00:49Z</time>
      </trkpt>
      <trkpt lat="43.37018" lon="5.78372">
        <ele>396.2</ele>
        <time>2018-05-25T11:00:53Z</time>
      </trkpt>
      <trkpt lat="43.37021" lon="5.78373">
        <ele>396.68</ele>
        <time>2018-05-25T11:00:54Z</time>
      </trkpt>
      <trkpt lat="43.37024" lon="5.78375">
        <ele>396.68</ele>
        <time>2018-05-25T11:00:55Z</time>
      </trkpt>
      <trkpt lat="43.37027" lon="5.78378">
        <ele>396.68</ele>
        <time>2018-05-25T11:00:56Z</time>
      </trkpt>
      <trkpt lat="43.3703" lon="5.78382">
        <ele>396.68</ele>
        <time>2018-05-25T11:00:57Z</time>
      </trkpt>
      <trkpt lat="43.37064" lon="5.78434">
        <ele>394.76</ele>
        <time>2018-05-25T11:01:08Z</time>
      </trkpt>
      <trkpt lat="43.37067" lon="5.7844">
        <ele>394.28</ele>
        <time>2018-05-25T11:01:09Z</time>
      </trkpt>
      <trkpt lat="43.3712" lon="5.78526">
        <ele>394.28</ele>
        <time>2018-05-25T11:01:24Z</time>
      </trkpt>
      <trkpt lat="43.37162" lon="5.78591">
        <ele>393.32</ele>
        <time>2018-05-25T11:01:36Z</time>
      </trkpt>
      <trkpt lat="43.37166" lon="5.78594">
        <ele>393.8</ele>
        <time>2018-05-25T11:01:37Z</time>
      </trkpt>
      <trkpt lat="43.37171" lon="5.78596">
        <ele>394.28</ele>
        <time>2018-05-25T11:01:38Z</time>
      </trkpt>
      <trkpt lat="43.37176" lon="5.78598">
        <ele>394.28</ele>
        <time>2018-05-25T11:01:39Z</time>
      </trkpt>
      <trkpt lat="43.37181" lon="5.78598">
        <ele>394.28</ele>
        <time>2018-05-25T11:01:40Z</time>
      </trkpt>
      <trkpt lat="43.37187" lon="5.78596">
        <ele>394.28</ele>
        <time>2018-05-25T11:01:41Z</time>
      </trkpt>
      <trkpt lat="43.37192" lon="5.78595">
        <ele>394.28</ele>
        <time>2018-05-25T11:01:42Z</time>
      </trkpt>
      <trkpt lat="43.37197" lon="5.78593">
        <ele>394.76</ele>
        <time>2018-05-25T11:01:43Z</time>
      </trkpt>
      <trkpt lat="43.37294" lon="5.78549">
        <ele>396.2</ele>
        <time>2018-05-25T11:02:01Z</time>
      </trkpt>
      <trkpt lat="43.37375" lon="5.78513">
        <ele>396.68</ele>
        <time>2018-05-25T11:02:17Z</time>
      </trkpt>
      <trkpt lat="43.37386" lon="5.7851">
        <ele>397.16</ele>
        <time>2018-05-25T11:02:19Z</time>
      </trkpt>
      <trkpt lat="43.37392" lon="5.7851">
        <ele>397.64</ele>
        <time>2018-05-25T11:02:20Z</time>
      </trkpt>
      <trkpt lat="43.37398" lon="5.78511">
        <ele>397.64</ele>
        <time>2018-05-25T11:02:21Z</time>
      </trkpt>
      <trkpt lat="43.37455" lon="5.7852">
        <ele>398.12</ele>
        <time>2018-05-25T11:02:31Z</time>
      </trkpt>
      <trkpt lat="43.3746" lon="5.78519">
        <ele>397.64</ele>
        <time>2018-05-25T11:02:32Z</time>
      </trkpt>
      <trkpt lat="43.37466" lon="5.78516">
        <ele>397.64</ele>
        <time>2018-05-25T11:02:33Z</time>
      </trkpt>
      <trkpt lat="43.37471" lon="5.78511">
        <ele>397.16</ele>
        <time>2018-05-25T11:02:34Z</time>
      </trkpt>
      <trkpt lat="43.37475" lon="5.78505">
        <ele>396.68</ele>
        <time>2018-05-25T11:02:35Z</time>
      </trkpt>
      <trkpt lat="43.37479" lon="5.78498">
        <ele>396.2</ele>
        <time>2018-05-25T11:02:36Z</time>
      </trkpt>
      <trkpt lat="43.37483" lon="5.78491">
        <ele>395.24</ele>
        <time>2018-05-25T11:02:37Z</time>
      </trkpt>
      <trkpt lat="43.37486" lon="5.78483">
        <ele>394.76</ele>
        <time>2018-05-25T11:02:38Z</time>
      </trkpt>
      <trkpt lat="43.3749" lon="5.78475">
        <ele>394.28</ele>
        <time>2018-05-25T11:02:39Z</time>
      </trkpt>
      <trkpt lat="43.37495" lon="5.78468">
        <ele>394.28</ele>
        <time>2018-05-25T11:02:40Z</time>
      </trkpt>
      <trkpt lat="43.37501" lon="5.78463">
        <ele>393.8</ele>
        <time>2018-05-25T11:02:41Z</time>
      </trkpt>
      <trkpt lat="43.37509" lon="5.78459">
        <ele>393.32</ele>
        <time>2018-05-25T11:02:42Z</time>
      </trkpt>
      <trkpt lat="43.37516" lon="5.78457">
        <ele>392.84</ele>
        <time>2018-05-25T11:02:43Z</time>
      </trkpt>
      <trkpt lat="43.37524" lon="5.78456">
        <ele>392.84</ele>
        <time>2018-05-25T11:02:44Z</time>
      </trkpt>
      <trkpt lat="43.37531" lon="5.78457">
        <ele>392.36</ele>
        <time>2018-05-25T11:02:45Z</time>
      </trkpt>
      <trkpt lat="43.37538" lon="5.78457">
        <ele>392.36</ele>
        <time>2018-05-25T11:02:46Z</time>
      </trkpt>
      <trkpt lat="43.37622" lon="5.78468">
        <ele>395.72</ele>
        <time>2018-05-25T11:03:00Z</time>
      </trkpt>
      <trkpt lat="43.3769" lon="5.78493">
        <ele>400.53</ele>
        <time>2018-05-25T11:03:14Z</time>
      </trkpt>
      <trkpt lat="43.37764" lon="5.78504">
        <ele>402.93</ele>
        <time>2018-05-25T11:03:29Z</time>
      </trkpt>
      <trkpt lat="43.3786" lon="5.78528">
        <ele>403.41</ele>
        <time>2018-05-25T11:03:47Z</time>
      </trkpt>
      <trkpt lat="43.37885" lon="5.78537">
        <ele>404.85</ele>
        <time>2018-05-25T11:03:52Z</time>
      </trkpt>
      <trkpt lat="43.37942" lon="5.7856">
        <ele>403.89</ele>
        <time>2018-05-25T11:04:03Z</time>
      </trkpt>
      <trkpt lat="43.38003" lon="5.78626">
        <ele>399.08</ele>
        <time>2018-05-25T11:04:14Z</time>
      </trkpt>
      <trkpt lat="43.38084" lon="5.78724">
        <ele>395.72</ele>
        <time>2018-05-25T11:04:29Z</time>
      </trkpt>
      <trkpt lat="43.38186" lon="5.78809">
        <ele>394.76</ele>
        <time>2018-05-25T11:04:46Z</time>
      </trkpt>
      <trkpt lat="43.38247" lon="5.78884">
        <ele>393.8</ele>
        <time>2018-05-25T11:04:57Z</time>
      </trkpt>
      <trkpt lat="43.38254" lon="5.7889">
        <ele>393.8</ele>
        <time>2018-05-25T11:04:58Z</time>
      </trkpt>
      <trkpt lat="43.38361" lon="5.78976">
        <ele>395.72</ele>
        <time>2018-05-25T11:05:14Z</time>
      </trkpt>
      <trkpt lat="43.38455" lon="5.79086">
        <ele>398.12</ele>
        <time>2018-05-25T11:05:33Z</time>
      </trkpt>
      <trkpt lat="43.38501" lon="5.79129">
        <ele>397.64</ele>
        <time>2018-05-25T11:05:42Z</time>
      </trkpt>
      <trkpt lat="43.38506" lon="5.79132">
        <ele>397.64</ele>
        <time>2018-05-25T11:05:43Z</time>
      </trkpt>
      <trkpt lat="43.38512" lon="5.79133">
        <ele>397.64</ele>
        <time>2018-05-25T11:05:44Z</time>
      </trkpt>
      <trkpt lat="43.38518" lon="5.79134">
        <ele>397.64</ele>
        <time>2018-05-25T11:05:45Z</time>
      </trkpt>
      <trkpt lat="43.38525" lon="5.79133">
        <ele>397.64</ele>
        <time>2018-05-25T11:05:46Z</time>
      </trkpt>
      <trkpt lat="43.3853" lon="5.79132">
        <ele>397.16</ele>
        <time>2018-05-25T11:05:47Z</time>
      </trkpt>
      <trkpt lat="43.38536" lon="5.79128">
        <ele>397.16</ele>
        <time>2018-05-25T11:05:48Z</time>
      </trkpt>
      <trkpt lat="43.38542" lon="5.79124">
        <ele>397.16</ele>
        <time>2018-05-25T11:05:49Z</time>
      </trkpt>
      <trkpt lat="43.38547" lon="5.7912">
        <ele>397.16</ele>
        <time>2018-05-25T11:05:50Z</time>
      </trkpt>
      <trkpt lat="43.38552" lon="5.79114">
        <ele>397.16</ele>
        <time>2018-05-25T11:05:51Z</time>
      </trkpt>
      <trkpt lat="43.38645" lon="5.79023">
        <ele>394.28</ele>
        <time>2018-05-25T11:06:09Z</time>
      </trkpt>
      <trkpt lat="43.38652" lon="5.79021">
        <ele>394.28</ele>
        <time>2018-05-25T11:06:10Z</time>
      </trkpt>
      <trkpt lat="43.38659" lon="5.79021">
        <ele>394.28</ele>
        <time>2018-05-25T11:06:11Z</time>
      </trkpt>
      <trkpt lat="43.38665" lon="5.79021">
        <ele>393.8</ele>
        <time>2018-05-25T11:06:12Z</time>
      </trkpt>
      <trkpt lat="43.38671" lon="5.79023">
        <ele>393.8</ele>
        <time>2018-05-25T11:06:13Z</time>
      </trkpt>
      <trkpt lat="43.38677" lon="5.79026">
        <ele>393.8</ele>
        <time>2018-05-25T11:06:14Z</time>
      </trkpt>
      <trkpt lat="43.38683" lon="5.7903">
        <ele>393.32</ele>
        <time>2018-05-25T11:06:15Z</time>
      </trkpt>
      <trkpt lat="43.38688" lon="5.79036">
        <ele>393.32</ele>
        <time>2018-05-25T11:06:16Z</time>
      </trkpt>
      <trkpt lat="43.38692" lon="5.79044">
        <ele>392.84</ele>
        <time>2018-05-25T11:06:17Z</time>
      </trkpt>
      <trkpt lat="43.38696" lon="5.79052">
        <ele>392.36</ele>
        <time>2018-05-25T11:06:18Z</time>
      </trkpt>
      <trkpt lat="43.38699" lon="5.79063">
        <ele>392.36</ele>
        <time>2018-05-25T11:06:19Z</time>
      </trkpt>
      <trkpt lat="43.38701" lon="5.79073">
        <ele>392.36</ele>
        <time>2018-05-25T11:06:20Z</time>
      </trkpt>
      <trkpt lat="43.38701" lon="5.79085">
        <ele>391.87</ele>
        <time>2018-05-25T11:06:21Z</time>
      </trkpt>
      <trkpt lat="43.387" lon="5.79097">
        <ele>391.39</ele>
        <time>2018-05-25T11:06:22Z</time>
      </trkpt>
      <trkpt lat="43.38702" lon="5.79146">
        <ele>390.43</ele>
        <time>2018-05-25T11:06:26Z</time>
      </trkpt>
      <trkpt lat="43.38705" lon="5.79158">
        <ele>389.95</ele>
        <time>2018-05-25T11:06:27Z</time>
      </trkpt>
      <trkpt lat="43.38709" lon="5.7917">
        <ele>389.47</ele>
        <time>2018-05-25T11:06:28Z</time>
      </trkpt>
      <trkpt lat="43.38714" lon="5.79181">
        <ele>388.99</ele>
        <time>2018-05-25T11:06:29Z</time>
      </trkpt>
      <trkpt lat="43.38719" lon="5.79192">
        <ele>388.51</ele>
        <time>2018-05-25T11:06:30Z</time>
      </trkpt>
      <trkpt lat="43.38756" lon="5.79271">
        <ele>385.15</ele>
        <time>2018-05-25T11:06:37Z</time>
      </trkpt>
      <trkpt lat="43.38763" lon="5.79282">
        <ele>384.66</ele>
        <time>2018-05-25T11:06:38Z</time>
      </trkpt>
      <trkpt lat="43.3877" lon="5.7929">
        <ele>384.18</ele>
        <time>2018-05-25T11:06:39Z</time>
      </trkpt>
      <trkpt lat="43.38845" lon="5.79388">
        <ele>380.34</ele>
        <time>2018-05-25T11:06:50Z</time>
      </trkpt>
      <trkpt lat="43.38941" lon="5.7951">
        <ele>375.05</ele>
        <time>2018-05-25T11:07:04Z</time>
      </trkpt>
      <trkpt lat="43.39047" lon="5.79576">
        <ele>374.57</ele>
        <time>2018-05-25T11:07:17Z</time>
      </trkpt>
      <trkpt lat="43.39145" lon="5.79603">
        <ele>374.57</ele>
        <time>2018-05-25T11:07:30Z</time>
      </trkpt>
      <trkpt lat="43.39251" lon="5.79624">
        <ele>370.24</ele>
        <time>2018-05-25T11:07:42Z</time>
      </trkpt>
      <trkpt lat="43.39258" lon="5.79627">
        <ele>369.76</ele>
        <time>2018-05-25T11:07:43Z</time>
      </trkpt>
      <trkpt lat="43.39263" lon="5.79631">
        <ele>369.28</ele>
        <time>2018-05-25T11:07:44Z</time>
      </trkpt>
      <trkpt lat="43.39268" lon="5.79636">
        <ele>368.8</ele>
        <time>2018-05-25T11:07:45Z</time>
      </trkpt>
      <trkpt lat="43.39272" lon="5.79644">
        <ele>368.8</ele>
        <time>2018-05-25T11:07:46Z</time>
      </trkpt>
      <trkpt lat="43.39274" lon="5.79653">
        <ele>368.8</ele>
        <time>2018-05-25T11:07:47Z</time>
      </trkpt>
      <trkpt lat="43.39274" lon="5.79663">
        <ele>368.8</ele>
        <time>2018-05-25T11:07:48Z</time>
      </trkpt>
      <trkpt lat="43.39274" lon="5.79674">
        <ele>368.32</ele>
        <time>2018-05-25T11:07:49Z</time>
      </trkpt>
      <trkpt lat="43.39275" lon="5.79728">
        <ele>367.84</ele>
        <time>2018-05-25T11:07:54Z</time>
      </trkpt>
      <trkpt lat="43.39273" lon="5.79738">
        <ele>367.84</ele>
        <time>2018-05-25T11:07:55Z</time>
      </trkpt>
      <trkpt lat="43.39266" lon="5.79754">
        <ele>367.84</ele>
        <time>2018-05-25T11:07:57Z</time>
      </trkpt>
      <trkpt lat="43.39265" lon="5.79764">
        <ele>367.36</ele>
        <time>2018-05-25T11:07:58Z</time>
      </trkpt>
      <trkpt lat="43.39265" lon="5.79772">
        <ele>367.36</ele>
        <time>2018-05-25T11:07:59Z</time>
      </trkpt>
      <trkpt lat="43.39266" lon="5.79781">
        <ele>366.88</ele>
        <time>2018-05-25T11:08:00Z</time>
      </trkpt>
      <trkpt lat="43.39266" lon="5.7979">
        <ele>366.88</ele>
        <time>2018-05-25T11:08:01Z</time>
      </trkpt>
      <trkpt lat="43.39264" lon="5.798">
        <ele>366.88</ele>
        <time>2018-05-25T11:08:02Z</time>
      </trkpt>
      <trkpt lat="43.3926" lon="5.79809">
        <ele>366.4</ele>
        <time>2018-05-25T11:08:03Z</time>
      </trkpt>
      <trkpt lat="43.39257" lon="5.79818">
        <ele>366.4</ele>
        <time>2018-05-25T11:08:04Z</time>
      </trkpt>
      <trkpt lat="43.39221" lon="5.79966">
        <ele>367.36</ele>
        <time>2018-05-25T11:08:20Z</time>
      </trkpt>
      <trkpt lat="43.39234" lon="5.80107">
        <ele>368.32</ele>
        <time>2018-05-25T11:08:36Z</time>
      </trkpt>
      <trkpt lat="43.39288" lon="5.8025">
        <ele>369.28</ele>
        <time>2018-05-25T11:08:54Z</time>
      </trkpt>
      <trkpt lat="43.39346" lon="5.80387">
        <ele>371.69</ele>
        <time>2018-05-25T11:09:11Z</time>
      </trkpt>
      <trkpt lat="43.39383" lon="5.80503">
        <ele>372.65</ele>
        <time>2018-05-25T11:09:25Z</time>
      </trkpt>
      <trkpt lat="43.39409" lon="5.80659">
        <ele>372.65</ele>
        <time>2018-05-25T11:09:44Z</time>
      </trkpt>
      <trkpt lat="43.39428" lon="5.80814">
        <ele>369.28</ele>
        <time>2018-05-25T11:10:00Z</time>
      </trkpt>
      <trkpt lat="43.39396" lon="5.80935">
        <ele>367.36</ele>
        <time>2018-05-25T11:10:12Z</time>
      </trkpt>
      <trkpt lat="43.39318" lon="5.8105">
        <ele>364.48</ele>
        <time>2018-05-25T11:10:25Z</time>
      </trkpt>
      <trkpt lat="43.39312" lon="5.81061">
        <ele>364</ele>
        <time>2018-05-25T11:10:26Z</time>
      </trkpt>
      <trkpt lat="43.39308" lon="5.81072">
        <ele>363.52</ele>
        <time>2018-05-25T11:10:27Z</time>
      </trkpt>
      <trkpt lat="43.39304" lon="5.81084">
        <ele>363.52</ele>
        <time>2018-05-25T11:10:28Z</time>
      </trkpt>
      <trkpt lat="43.39301" lon="5.81096">
        <ele>363.04</ele>
        <time>2018-05-25T11:10:29Z</time>
      </trkpt>
      <trkpt lat="43.39298" lon="5.81108">
        <ele>363.04</ele>
        <time>2018-05-25T11:10:30Z</time>
      </trkpt>
      <trkpt lat="43.39296" lon="5.8112">
        <ele>362.55</ele>
        <time>2018-05-25T11:10:31Z</time>
      </trkpt>
      <trkpt lat="43.39286" lon="5.81261">
        <ele>359.67</ele>
        <time>2018-05-25T11:10:42Z</time>
      </trkpt>
      <trkpt lat="43.39296" lon="5.81517">
        <ele>353.9</ele>
        <time>2018-05-25T11:11:01Z</time>
      </trkpt>
      <trkpt lat="43.39311" lon="5.81789">
        <ele>345.73</ele>
        <time>2018-05-25T11:11:20Z</time>
      </trkpt>
      <trkpt lat="43.39309" lon="5.81804">
        <ele>345.25</ele>
        <time>2018-05-25T11:11:21Z</time>
      </trkpt>
      <trkpt lat="43.39306" lon="5.81818">
        <ele>345.25</ele>
        <time>2018-05-25T11:11:22Z</time>
      </trkpt>
      <trkpt lat="43.39302" lon="5.81831">
        <ele>344.77</ele>
        <time>2018-05-25T11:11:23Z</time>
      </trkpt>
      <trkpt lat="43.39284" lon="5.81899">
        <ele>342.85</ele>
        <time>2018-05-25T11:11:28Z</time>
      </trkpt>
      <trkpt lat="43.39283" lon="5.81913">
        <ele>342.37</ele>
        <time>2018-05-25T11:11:29Z</time>
      </trkpt>
      <trkpt lat="43.39294" lon="5.82101">
        <ele>337.56</ele>
        <time>2018-05-25T11:11:42Z</time>
      </trkpt>
      <trkpt lat="43.39303" lon="5.82305">
        <ele>338.04</ele>
        <time>2018-05-25T11:11:58Z</time>
      </trkpt>
      <trkpt lat="43.39291" lon="5.82496">
        <ele>339</ele>
        <time>2018-05-25T11:12:15Z</time>
      </trkpt>
      <trkpt lat="43.39259" lon="5.82612">
        <ele>342.37</ele>
        <time>2018-05-25T11:12:29Z</time>
      </trkpt>
      <trkpt lat="43.39231" lon="5.8275">
        <ele>344.29</ele>
        <time>2018-05-25T11:12:47Z</time>
      </trkpt>
      <trkpt lat="43.39231" lon="5.8293">
        <ele>345.25</ele>
        <time>2018-05-25T11:13:09Z</time>
      </trkpt>
      <trkpt lat="43.39233" lon="5.8309">
        <ele>349.1</ele>
        <time>2018-05-25T11:13:29Z</time>
      </trkpt>
      <trkpt lat="43.39238" lon="5.83203">
        <ele>352.94</ele>
        <time>2018-05-25T11:13:44Z</time>
      </trkpt>
      <trkpt lat="43.3924" lon="5.83329">
        <ele>355.83</ele>
        <time>2018-05-25T11:14:02Z</time>
      </trkpt>
      <trkpt lat="43.39238" lon="5.83508">
        <ele>355.34</ele>
        <time>2018-05-25T11:14:22Z</time>
      </trkpt>
      <trkpt lat="43.39219" lon="5.83709">
        <ele>354.86</ele>
        <time>2018-05-25T11:14:41Z</time>
      </trkpt>
      <trkpt lat="43.39219" lon="5.8372">
        <ele>354.86</ele>
        <time>2018-05-25T11:14:42Z</time>
      </trkpt>
      <trkpt lat="43.39222" lon="5.8392">
        <ele>354.38</ele>
        <time>2018-05-25T11:15:02Z</time>
      </trkpt>
      <trkpt lat="43.39229" lon="5.84083">
        <ele>354.38</ele>
        <time>2018-05-25T11:15:19Z</time>
      </trkpt>
      <trkpt lat="43.39264" lon="5.84249">
        <ele>354.38</ele>
        <time>2018-05-25T11:15:36Z</time>
      </trkpt>
      <trkpt lat="43.39309" lon="5.84458">
        <ele>351.02</ele>
        <time>2018-05-25T11:15:55Z</time>
      </trkpt>
      <trkpt lat="43.39348" lon="5.8471">
        <ele>350.06</ele>
        <time>2018-05-25T11:16:18Z</time>
      </trkpt>
      <trkpt lat="43.39379" lon="5.84908">
        <ele>349.1</ele>
        <time>2018-05-25T11:16:36Z</time>
      </trkpt>
      <trkpt lat="43.39397" lon="5.85087">
        <ele>351.02</ele>
        <time>2018-05-25T11:16:54Z</time>
      </trkpt>
      <trkpt lat="43.3939" lon="5.85277">
        <ele>353.42</ele>
        <time>2018-05-25T11:17:15Z</time>
      </trkpt>
      <trkpt lat="43.39384" lon="5.85445">
        <ele>353.42</ele>
        <time>2018-05-25T11:17:33Z</time>
      </trkpt>
      <trkpt lat="43.39395" lon="5.8569">
        <ele>351.02</ele>
        <time>2018-05-25T11:17:56Z</time>
      </trkpt>
      <trkpt lat="43.39395" lon="5.85924">
        <ele>348.62</ele>
        <time>2018-05-25T11:18:16Z</time>
      </trkpt>
      <trkpt lat="43.39397" lon="5.85935">
        <ele>348.13</ele>
        <time>2018-05-25T11:18:17Z</time>
      </trkpt>
      <trkpt lat="43.39431" lon="5.86128">
        <ele>344.29</ele>
        <time>2018-05-25T11:18:32Z</time>
      </trkpt>
      <trkpt lat="43.39481" lon="5.86279">
        <ele>341.41</ele>
        <time>2018-05-25T11:18:44Z</time>
      </trkpt>
      <trkpt lat="43.3951" lon="5.86348">
        <ele>339.96</ele>
        <time>2018-05-25T11:18:50Z</time>
      </trkpt>
      <trkpt lat="43.39513" lon="5.86361">
        <ele>339.96</ele>
        <time>2018-05-25T11:18:51Z</time>
      </trkpt>
      <trkpt lat="43.39514" lon="5.86374">
        <ele>339.96</ele>
        <time>2018-05-25T11:18:52Z</time>
      </trkpt>
      <trkpt lat="43.39515" lon="5.86388">
        <ele>339.48</ele>
        <time>2018-05-25T11:18:53Z</time>
      </trkpt>
      <trkpt lat="43.39515" lon="5.86402">
        <ele>339.48</ele>
        <time>2018-05-25T11:18:54Z</time>
      </trkpt>
      <trkpt lat="43.39514" lon="5.86415">
        <ele>339.48</ele>
        <time>2018-05-25T11:18:55Z</time>
      </trkpt>
      <trkpt lat="43.39512" lon="5.86429">
        <ele>339</ele>
        <time>2018-05-25T11:18:56Z</time>
      </trkpt>
      <trkpt lat="43.3951" lon="5.86442">
        <ele>339</ele>
        <time>2018-05-25T11:18:57Z</time>
      </trkpt>
      <trkpt lat="43.39507" lon="5.86455">
        <ele>338.52</ele>
        <time>2018-05-25T11:18:58Z</time>
      </trkpt>
      <trkpt lat="43.39455" lon="5.8667">
        <ele>336.12</ele>
        <time>2018-05-25T11:19:15Z</time>
      </trkpt>
      <trkpt lat="43.39465" lon="5.86791">
        <ele>336.12</ele>
        <time>2018-05-25T11:19:25Z</time>
      </trkpt>
      <trkpt lat="43.39503" lon="5.86983">
        <ele>335.16</ele>
        <time>2018-05-25T11:19:42Z</time>
      </trkpt>
      <trkpt lat="43.39554" lon="5.87184">
        <ele>333.23</ele>
        <time>2018-05-25T11:20:00Z</time>
      </trkpt>
      <trkpt lat="43.39616" lon="5.8741">
        <ele>332.75</ele>
        <time>2018-05-25T11:20:21Z</time>
      </trkpt>
      <trkpt lat="43.39683" lon="5.87663">
        <ele>333.23</ele>
        <time>2018-05-25T11:20:45Z</time>
      </trkpt>
      <trkpt lat="43.3974" lon="5.87878">
        <ele>333.71</ele>
        <time>2018-05-25T11:21:06Z</time>
      </trkpt>
      <trkpt lat="43.39776" lon="5.88013">
        <ele>338.52</ele>
        <time>2018-05-25T11:21:21Z</time>
      </trkpt>
      <trkpt lat="43.39823" lon="5.88188">
        <ele>339.96</ele>
        <time>2018-05-25T11:21:43Z</time>
      </trkpt>
      <trkpt lat="43.39843" lon="5.88321">
        <ele>338.52</ele>
        <time>2018-05-25T11:21:58Z</time>
      </trkpt>
      <trkpt lat="43.39851" lon="5.884">
        <ele>337.08</ele>
        <time>2018-05-25T11:22:07Z</time>
      </trkpt>
      <trkpt lat="43.39849" lon="5.88408">
        <ele>336.6</ele>
        <time>2018-05-25T11:22:08Z</time>
      </trkpt>
      <trkpt lat="43.39846" lon="5.88415">
        <ele>337.08</ele>
        <time>2018-05-25T11:22:09Z</time>
      </trkpt>
      <trkpt lat="43.39841" lon="5.88419">
        <ele>337.08</ele>
        <time>2018-05-25T11:22:10Z</time>
      </trkpt>
      <trkpt lat="43.39836" lon="5.88421">
        <ele>337.56</ele>
        <time>2018-05-25T11:22:11Z</time>
      </trkpt>
      <trkpt lat="43.3983" lon="5.88422">
        <ele>337.56</ele>
        <time>2018-05-25T11:22:12Z</time>
      </trkpt>
      <trkpt lat="43.39782" lon="5.88433">
        <ele>339</ele>
        <time>2018-05-25T11:22:21Z</time>
      </trkpt>
      <trkpt lat="43.39776" lon="5.88433">
        <ele>339.48</ele>
        <time>2018-05-25T11:22:22Z</time>
      </trkpt>
      <trkpt lat="43.39764" lon="5.88436">
        <ele>339.48</ele>
        <time>2018-05-25T11:22:24Z</time>
      </trkpt>
      <trkpt lat="43.39759" lon="5.88438">
        <ele>339.96</ele>
        <time>2018-05-25T11:22:25Z</time>
      </trkpt>
      <trkpt lat="43.39677" lon="5.88487">
        <ele>340.44</ele>
        <time>2018-05-25T11:22:40Z</time>
      </trkpt>
      <trkpt lat="43.39616" lon="5.88517">
        <ele>342.37</ele>
        <time>2018-05-25T11:22:53Z</time>
      </trkpt>
      <trkpt lat="43.39562" lon="5.8856">
        <ele>344.77</ele>
        <time>2018-05-25T11:23:06Z</time>
      </trkpt>
      <trkpt lat="43.39495" lon="5.88618">
        <ele>348.13</ele>
        <time>2018-05-25T11:23:22Z</time>
      </trkpt>
      <trkpt lat="43.39422" lon="5.8868">
        <ele>349.58</ele>
        <time>2018-05-25T11:23:38Z</time>
      </trkpt>
      <trkpt lat="43.39375" lon="5.88728">
        <ele>353.9</ele>
        <time>2018-05-25T11:23:53Z</time>
      </trkpt>
      <trkpt lat="43.39372" lon="5.88732">
        <ele>354.38</ele>
        <time>2018-05-25T11:23:54Z</time>
      </trkpt>
      <trkpt lat="43.39369" lon="5.88737">
        <ele>354.38</ele>
        <time>2018-05-25T11:23:55Z</time>
      </trkpt>
      <trkpt lat="43.39355" lon="5.88762">
        <ele>355.83</ele>
        <time>2018-05-25T11:24:00Z</time>
      </trkpt>
      <trkpt lat="43.39326" lon="5.88843">
        <ele>360.15</ele>
        <time>2018-05-25T11:24:14Z</time>
      </trkpt>
      <trkpt lat="43.39324" lon="5.88849">
        <ele>360.63</ele>
        <time>2018-05-25T11:24:15Z</time>
      </trkpt>
      <trkpt lat="43.39322" lon="5.88855">
        <ele>360.63</ele>
        <time>2018-05-25T11:24:16Z</time>
      </trkpt>
      <trkpt lat="43.3932" lon="5.8886">
        <ele>360.63</ele>
        <time>2018-05-25T11:24:17Z</time>
      </trkpt>
      <trkpt lat="43.39318" lon="5.88866">
        <ele>361.11</ele>
        <time>2018-05-25T11:24:18Z</time>
      </trkpt>
      <trkpt lat="43.39312" lon="5.88883">
        <ele>361.59</ele>
        <time>2018-05-25T11:24:21Z</time>
      </trkpt>
      <trkpt lat="43.39309" lon="5.8889">
        <ele>362.07</ele>
        <time>2018-05-25T11:24:22Z</time>
      </trkpt>
      <trkpt lat="43.39307" lon="5.88896">
        <ele>362.07</ele>
        <time>2018-05-25T11:24:23Z</time>
      </trkpt>
      <trkpt lat="43.39304" lon="5.88902">
        <ele>362.07</ele>
        <time>2018-05-25T11:24:24Z</time>
      </trkpt>
      <trkpt lat="43.393" lon="5.88907">
        <ele>362.07</ele>
        <time>2018-05-25T11:24:25Z</time>
      </trkpt>
      <trkpt lat="43.39296" lon="5.88913">
        <ele>362.07</ele>
        <time>2018-05-25T11:24:26Z</time>
      </trkpt>
      <trkpt lat="43.39258" lon="5.8897">
        <ele>361.11</ele>
        <time>2018-05-25T11:24:37Z</time>
      </trkpt>
      <trkpt lat="43.39254" lon="5.88974">
        <ele>361.11</ele>
        <time>2018-05-25T11:24:38Z</time>
      </trkpt>
      <trkpt lat="43.3925" lon="5.88978">
        <ele>361.11</ele>
        <time>2018-05-25T11:24:39Z</time>
      </trkpt>
      <trkpt lat="43.39245" lon="5.88981">
        <ele>361.11</ele>
        <time>2018-05-25T11:24:40Z</time>
      </trkpt>
      <trkpt lat="43.3924" lon="5.88983">
        <ele>361.11</ele>
        <time>2018-05-25T11:24:41Z</time>
      </trkpt>
      <trkpt lat="43.39235" lon="5.88985">
        <ele>361.11</ele>
        <time>2018-05-25T11:24:42Z</time>
      </trkpt>
      <trkpt lat="43.39188" lon="5.88994">
        <ele>363.52</ele>
        <time>2018-05-25T11:24:52Z</time>
      </trkpt>
      <trkpt lat="43.39096" lon="5.89017">
        <ele>366.4</ele>
        <time>2018-05-25T11:25:10Z</time>
      </trkpt>
      <trkpt lat="43.3909" lon="5.89019">
        <ele>367.36</ele>
        <time>2018-05-25T11:25:11Z</time>
      </trkpt>
      <trkpt lat="43.39085" lon="5.8902">
        <ele>367.36</ele>
        <time>2018-05-25T11:25:12Z</time>
      </trkpt>
      <trkpt lat="43.3908" lon="5.89021">
        <ele>367.84</ele>
        <time>2018-05-25T11:25:13Z</time>
      </trkpt>
      <trkpt lat="43.38998" lon="5.89016">
        <ele>370.73</ele>
        <time>2018-05-25T11:25:27Z</time>
      </trkpt>
      <trkpt lat="43.38922" lon="5.89008">
        <ele>371.69</ele>
        <time>2018-05-25T11:25:43Z</time>
      </trkpt>
      <trkpt lat="43.38858" lon="5.88999">
        <ele>373.61</ele>
        <time>2018-05-25T11:25:57Z</time>
      </trkpt>
      <trkpt lat="43.38778" lon="5.88983">
        <ele>375.05</ele>
        <time>2018-05-25T11:26:14Z</time>
      </trkpt>
      <trkpt lat="43.38707" lon="5.88967">
        <ele>377.45</ele>
        <time>2018-05-25T11:26:29Z</time>
      </trkpt>
      <trkpt lat="43.38702" lon="5.88968">
        <ele>377.45</ele>
        <time>2018-05-25T11:26:30Z</time>
      </trkpt>
      <trkpt lat="43.38698" lon="5.88969">
        <ele>377.45</ele>
        <time>2018-05-25T11:26:31Z</time>
      </trkpt>
      <trkpt lat="43.38693" lon="5.88971">
        <ele>377.45</ele>
        <time>2018-05-25T11:26:32Z</time>
      </trkpt>
      <trkpt lat="43.38688" lon="5.88974">
        <ele>377.45</ele>
        <time>2018-05-25T11:26:33Z</time>
      </trkpt>
      <trkpt lat="43.38684" lon="5.88977">
        <ele>377.45</ele>
        <time>2018-05-25T11:26:34Z</time>
      </trkpt>
      <trkpt lat="43.38667" lon="5.88992">
        <ele>377.45</ele>
        <time>2018-05-25T11:26:38Z</time>
      </trkpt>
      <trkpt lat="43.38664" lon="5.88997">
        <ele>377.45</ele>
        <time>2018-05-25T11:26:39Z</time>
      </trkpt>
      <trkpt lat="43.38645" lon="5.89018">
        <ele>377.45</ele>
        <time>2018-05-25T11:26:44Z</time>
      </trkpt>
      <trkpt lat="43.38641" lon="5.89023">
        <ele>377.45</ele>
        <time>2018-05-25T11:26:45Z</time>
      </trkpt>
      <trkpt lat="43.38577" lon="5.89098">
        <ele>377.45</ele>
        <time>2018-05-25T11:27:00Z</time>
      </trkpt>
      <trkpt lat="43.38543" lon="5.89136">
        <ele>379.38</ele>
        <time>2018-05-25T11:27:09Z</time>
      </trkpt>
      <trkpt lat="43.3854" lon="5.8914">
        <ele>379.38</ele>
        <time>2018-05-25T11:27:10Z</time>
      </trkpt>
      <trkpt lat="43.38504" lon="5.89187">
        <ele>382.26</ele>
        <time>2018-05-25T11:27:23Z</time>
      </trkpt>
      <trkpt lat="43.38494" lon="5.89198">
        <ele>382.74</ele>
        <time>2018-05-25T11:27:26Z</time>
      </trkpt>
      <trkpt lat="43.38471" lon="5.89221">
        <ele>383.7</ele>
        <time>2018-05-25T11:27:32Z</time>
      </trkpt>
      <trkpt lat="43.38415" lon="5.89286">
        <ele>386.11</ele>
        <time>2018-05-25T11:27:48Z</time>
      </trkpt>
      <trkpt lat="43.3835" lon="5.89356">
        <ele>387.07</ele>
        <time>2018-05-25T11:28:06Z</time>
      </trkpt>
      <trkpt lat="43.38311" lon="5.89413">
        <ele>389.47</ele>
        <time>2018-05-25T11:28:19Z</time>
      </trkpt>
      <trkpt lat="43.38287" lon="5.89489">
        <ele>394.28</ele>
        <time>2018-05-25T11:28:36Z</time>
      </trkpt>
      <trkpt lat="43.3827" lon="5.89563">
        <ele>397.16</ele>
        <time>2018-05-25T11:28:51Z</time>
      </trkpt>
      <trkpt lat="43.38277" lon="5.89655">
        <ele>399.57</ele>
        <time>2018-05-25T11:29:09Z</time>
      </trkpt>
      <trkpt lat="43.38286" lon="5.89742">
        <ele>401.49</ele>
        <time>2018-05-25T11:29:26Z</time>
      </trkpt>
      <trkpt lat="43.38295" lon="5.89822">
        <ele>402.93</ele>
        <time>2018-05-25T11:29:41Z</time>
      </trkpt>
      <trkpt lat="43.38289" lon="5.89904">
        <ele>405.33</ele>
        <time>2018-05-25T11:29:57Z</time>
      </trkpt>
      <trkpt lat="43.38265" lon="5.899">
        <ele>407.74</ele>
        <time>2018-05-25T11:30:05Z</time>
      </trkpt>
      <trkpt lat="43.38235" lon="5.89836">
        <ele>416.39</ele>
        <time>2018-05-25T11:30:23Z</time>
      </trkpt>
      <trkpt lat="43.3822" lon="5.89772">
        <ele>421.19</ele>
        <time>2018-05-25T11:30:38Z</time>
      </trkpt>
      <trkpt lat="43.38205" lon="5.89713">
        <ele>425.52</ele>
        <time>2018-05-25T11:30:53Z</time>
      </trkpt>
      <trkpt lat="43.38176" lon="5.89659">
        <ele>429.37</ele>
        <time>2018-05-25T11:31:09Z</time>
      </trkpt>
      <trkpt lat="43.38135" lon="5.89617">
        <ele>429.85</ele>
        <time>2018-05-25T11:31:24Z</time>
      </trkpt>
      <trkpt lat="43.38077" lon="5.89588">
        <ele>430.33</ele>
        <time>2018-05-25T11:31:41Z</time>
      </trkpt>
      <trkpt lat="43.3803" lon="5.89566">
        <ele>432.25</ele>
        <time>2018-05-25T11:31:55Z</time>
      </trkpt>
      <trkpt lat="43.38008" lon="5.89519">
        <ele>438.98</ele>
        <time>2018-05-25T11:32:09Z</time>
      </trkpt>
      <trkpt lat="43.38003" lon="5.89461">
        <ele>443.31</ele>
        <time>2018-05-25T11:32:23Z</time>
      </trkpt>
      <trkpt lat="43.38001" lon="5.89458">
        <ele>442.82</ele>
        <time>2018-05-25T11:32:24Z</time>
      </trkpt>
      <trkpt lat="43.37999" lon="5.89457">
        <ele>441.86</ele>
        <time>2018-05-25T11:32:25Z</time>
      </trkpt>
      <trkpt lat="43.37996" lon="5.89456">
        <ele>441.38</ele>
        <time>2018-05-25T11:32:26Z</time>
      </trkpt>
      <trkpt lat="43.37993" lon="5.89456">
        <ele>440.9</ele>
        <time>2018-05-25T11:32:27Z</time>
      </trkpt>
      <trkpt lat="43.37991" lon="5.89456">
        <ele>440.42</ele>
        <time>2018-05-25T11:32:28Z</time>
      </trkpt>
      <trkpt lat="43.37988" lon="5.89458">
        <ele>440.42</ele>
        <time>2018-05-25T11:32:29Z</time>
      </trkpt>
      <trkpt lat="43.37986" lon="5.8946">
        <ele>440.42</ele>
        <time>2018-05-25T11:32:30Z</time>
      </trkpt>
      <trkpt lat="43.37984" lon="5.89462">
        <ele>440.42</ele>
        <time>2018-05-25T11:32:31Z</time>
      </trkpt>
      <trkpt lat="43.37982" lon="5.89465">
        <ele>440.42</ele>
        <time>2018-05-25T11:32:32Z</time>
      </trkpt>
      <trkpt lat="43.3798" lon="5.89467">
        <ele>440.42</ele>
        <time>2018-05-25T11:32:33Z</time>
      </trkpt>
      <trkpt lat="43.3796" lon="5.89525">
        <ele>440.9</ele>
        <time>2018-05-25T11:32:47Z</time>
      </trkpt>
      <trkpt lat="43.37936" lon="5.89599">
        <ele>443.31</ele>
        <time>2018-05-25T11:33:01Z</time>
      </trkpt>
      <trkpt lat="43.37896" lon="5.89681">
        <ele>441.38</ele>
        <time>2018-05-25T11:33:18Z</time>
      </trkpt>
      <trkpt lat="43.37834" lon="5.89753">
        <ele>438.5</ele>
        <time>2018-05-25T11:33:33Z</time>
      </trkpt>
      <trkpt lat="43.37757" lon="5.8984">
        <ele>439.94</ele>
        <time>2018-05-25T11:33:49Z</time>
      </trkpt>
      <trkpt lat="43.37671" lon="5.89938">
        <ele>444.27</ele>
        <time>2018-05-25T11:34:05Z</time>
      </trkpt>
      <trkpt lat="43.37603" lon="5.89999">
        <ele>441.86</ele>
        <time>2018-05-25T11:34:17Z</time>
      </trkpt>
      <trkpt lat="43.37592" lon="5.90012">
        <ele>441.38</ele>
        <time>2018-05-25T11:34:19Z</time>
      </trkpt>
      <trkpt lat="43.37586" lon="5.90016">
        <ele>440.9</ele>
        <time>2018-05-25T11:34:20Z</time>
      </trkpt>
      <trkpt lat="43.37578" lon="5.90018">
        <ele>440.42</ele>
        <time>2018-05-25T11:34:21Z</time>
      </trkpt>
      <trkpt lat="43.3757" lon="5.90017">
        <ele>440.42</ele>
        <time>2018-05-25T11:34:22Z</time>
      </trkpt>
      <trkpt lat="43.37562" lon="5.90013">
        <ele>439.94</ele>
        <time>2018-05-25T11:34:23Z</time>
      </trkpt>
      <trkpt lat="43.37555" lon="5.90006">
        <ele>439.46</ele>
        <time>2018-05-25T11:34:24Z</time>
      </trkpt>
      <trkpt lat="43.37551" lon="5.89996">
        <ele>438.98</ele>
        <time>2018-05-25T11:34:25Z</time>
      </trkpt>
      <trkpt lat="43.3755" lon="5.89986">
        <ele>438.98</ele>
        <time>2018-05-25T11:34:26Z</time>
      </trkpt>
      <trkpt lat="43.37551" lon="5.89975">
        <ele>438.5</ele>
        <time>2018-05-25T11:34:27Z</time>
      </trkpt>
      <trkpt lat="43.37551" lon="5.89964">
        <ele>438.02</ele>
        <time>2018-05-25T11:34:28Z</time>
      </trkpt>
      <trkpt lat="43.37553" lon="5.8993">
        <ele>436.58</ele>
        <time>2018-05-25T11:34:31Z</time>
      </trkpt>
      <trkpt lat="43.37551" lon="5.89919">
        <ele>436.58</ele>
        <time>2018-05-25T11:34:32Z</time>
      </trkpt>
      <trkpt lat="43.37547" lon="5.89909">
        <ele>436.1</ele>
        <time>2018-05-25T11:34:33Z</time>
      </trkpt>
      <trkpt lat="43.37541" lon="5.89902">
        <ele>435.13</ele>
        <time>2018-05-25T11:34:34Z</time>
      </trkpt>
      <trkpt lat="43.37535" lon="5.89897">
        <ele>434.65</ele>
        <time>2018-05-25T11:34:35Z</time>
      </trkpt>
      <trkpt lat="43.37527" lon="5.89894">
        <ele>434.17</ele>
        <time>2018-05-25T11:34:36Z</time>
      </trkpt>
      <trkpt lat="43.37519" lon="5.89892">
        <ele>434.17</ele>
        <time>2018-05-25T11:34:37Z</time>
      </trkpt>
      <trkpt lat="43.37511" lon="5.89892">
        <ele>433.69</ele>
        <time>2018-05-25T11:34:38Z</time>
      </trkpt>
      <trkpt lat="43.37503" lon="5.89891">
        <ele>433.21</ele>
        <time>2018-05-25T11:34:39Z</time>
      </trkpt>
      <trkpt lat="43.37495" lon="5.89893">
        <ele>432.73</ele>
        <time>2018-05-25T11:34:40Z</time>
      </trkpt>
      <trkpt lat="43.37487" lon="5.89897">
        <ele>432.25</ele>
        <time>2018-05-25T11:34:41Z</time>
      </trkpt>
      <trkpt lat="43.3748" lon="5.89903">
        <ele>431.77</ele>
        <time>2018-05-25T11:34:42Z</time>
      </trkpt>
      <trkpt lat="43.37473" lon="5.89911">
        <ele>431.29</ele>
        <time>2018-05-25T11:34:43Z</time>
      </trkpt>
      <trkpt lat="43.37468" lon="5.89921">
        <ele>430.81</ele>
        <time>2018-05-25T11:34:44Z</time>
      </trkpt>
      <trkpt lat="43.37462" lon="5.8993">
        <ele>430.33</ele>
        <time>2018-05-25T11:34:45Z</time>
      </trkpt>
      <trkpt lat="43.37416" lon="5.89998">
        <ele>427.44</ele>
        <time>2018-05-25T11:34:52Z</time>
      </trkpt>
      <trkpt lat="43.37408" lon="5.90005">
        <ele>427.44</ele>
        <time>2018-05-25T11:34:53Z</time>
      </trkpt>
      <trkpt lat="43.37399" lon="5.9001">
        <ele>426.96</ele>
        <time>2018-05-25T11:34:54Z</time>
      </trkpt>
      <trkpt lat="43.37389" lon="5.90014">
        <ele>426.48</ele>
        <time>2018-05-25T11:34:55Z</time>
      </trkpt>
      <trkpt lat="43.3738" lon="5.90014">
        <ele>426</ele>
        <time>2018-05-25T11:34:56Z</time>
      </trkpt>
      <trkpt lat="43.3737" lon="5.90014">
        <ele>425.52</ele>
        <time>2018-05-25T11:34:57Z</time>
      </trkpt>
      <trkpt lat="43.3736" lon="5.90012">
        <ele>425.04</ele>
        <time>2018-05-25T11:34:58Z</time>
      </trkpt>
      <trkpt lat="43.3735" lon="5.9001">
        <ele>424.56</ele>
        <time>2018-05-25T11:34:59Z</time>
      </trkpt>
      <trkpt lat="43.37342" lon="5.90006">
        <ele>424.08</ele>
        <time>2018-05-25T11:35:00Z</time>
      </trkpt>
      <trkpt lat="43.37334" lon="5.90001">
        <ele>423.6</ele>
        <time>2018-05-25T11:35:01Z</time>
      </trkpt>
      <trkpt lat="43.37327" lon="5.89995">
        <ele>423.12</ele>
        <time>2018-05-25T11:35:02Z</time>
      </trkpt>
      <trkpt lat="43.3732" lon="5.89991">
        <ele>422.64</ele>
        <time>2018-05-25T11:35:03Z</time>
      </trkpt>
      <trkpt lat="43.37314" lon="5.89988">
        <ele>422.64</ele>
        <time>2018-05-25T11:35:04Z</time>
      </trkpt>
      <trkpt lat="43.37307" lon="5.89988">
        <ele>422.16</ele>
        <time>2018-05-25T11:35:05Z</time>
      </trkpt>
      <trkpt lat="43.37301" lon="5.89991">
        <ele>421.68</ele>
        <time>2018-05-25T11:35:06Z</time>
      </trkpt>
      <trkpt lat="43.37296" lon="5.89997">
        <ele>421.68</ele>
        <time>2018-05-25T11:35:07Z</time>
      </trkpt>
      <trkpt lat="43.37291" lon="5.90004">
        <ele>421.19</ele>
        <time>2018-05-25T11:35:08Z</time>
      </trkpt>
      <trkpt lat="43.37288" lon="5.90013">
        <ele>421.19</ele>
        <time>2018-05-25T11:35:09Z</time>
      </trkpt>
      <trkpt lat="43.37284" lon="5.90022">
        <ele>420.71</ele>
        <time>2018-05-25T11:35:10Z</time>
      </trkpt>
      <trkpt lat="43.37281" lon="5.90031">
        <ele>420.23</ele>
        <time>2018-05-25T11:35:11Z</time>
      </trkpt>
      <trkpt lat="43.37279" lon="5.90042">
        <ele>419.75</ele>
        <time>2018-05-25T11:35:12Z</time>
      </trkpt>
      <trkpt lat="43.37279" lon="5.90053">
        <ele>419.27</ele>
        <time>2018-05-25T11:35:13Z</time>
      </trkpt>
      <trkpt lat="43.37282" lon="5.90063">
        <ele>418.79</ele>
        <time>2018-05-25T11:35:14Z</time>
      </trkpt>
      <trkpt lat="43.37287" lon="5.90072">
        <ele>418.31</ele>
        <time>2018-05-25T11:35:15Z</time>
      </trkpt>
      <trkpt lat="43.37293" lon="5.90078">
        <ele>417.83</ele>
        <time>2018-05-25T11:35:16Z</time>
      </trkpt>
      <trkpt lat="43.37301" lon="5.90083">
        <ele>417.35</ele>
        <time>2018-05-25T11:35:17Z</time>
      </trkpt>
      <trkpt lat="43.37309" lon="5.90086">
        <ele>416.87</ele>
        <time>2018-05-25T11:35:18Z</time>
      </trkpt>
      <trkpt lat="43.37316" lon="5.90091">
        <ele>416.39</ele>
        <time>2018-05-25T11:35:19Z</time>
      </trkpt>
      <trkpt lat="43.37322" lon="5.90099">
        <ele>415.91</ele>
        <time>2018-05-25T11:35:20Z</time>
      </trkpt>
      <trkpt lat="43.37325" lon="5.90108">
        <ele>415.43</ele>
        <time>2018-05-25T11:35:21Z</time>
      </trkpt>
      <trkpt lat="43.37326" lon="5.9012">
        <ele>414.95</ele>
        <time>2018-05-25T11:35:22Z</time>
      </trkpt>
      <trkpt lat="43.37325" lon="5.90131">
        <ele>414.47</ele>
        <time>2018-05-25T11:35:23Z</time>
      </trkpt>
      <trkpt lat="43.3732" lon="5.90141">
        <ele>413.98</ele>
        <time>2018-05-25T11:35:24Z</time>
      </trkpt>
      <trkpt lat="43.37315" lon="5.90151">
        <ele>413.5</ele>
        <time>2018-05-25T11:35:25Z</time>
      </trkpt>
      <trkpt lat="43.37304" lon="5.90171">
        <ele>412.54</ele>
        <time>2018-05-25T11:35:27Z</time>
      </trkpt>
      <trkpt lat="43.373" lon="5.90181">
        <ele>412.06</ele>
        <time>2018-05-25T11:35:28Z</time>
      </trkpt>
      <trkpt lat="43.37296" lon="5.90193">
        <ele>411.58</ele>
        <time>2018-05-25T11:35:29Z</time>
      </trkpt>
      <trkpt lat="43.37294" lon="5.90205">
        <ele>411.1</ele>
        <time>2018-05-25T11:35:30Z</time>
      </trkpt>
      <trkpt lat="43.37292" lon="5.90218">
        <ele>410.62</ele>
        <time>2018-05-25T11:35:31Z</time>
      </trkpt>
      <trkpt lat="43.37292" lon="5.90231">
        <ele>410.14</ele>
        <time>2018-05-25T11:35:32Z</time>
      </trkpt>
      <trkpt lat="43.37292" lon="5.90381">
        <ele>405.33</ele>
        <time>2018-05-25T11:35:43Z</time>
      </trkpt>
      <trkpt lat="43.3729" lon="5.90395">
        <ele>404.37</ele>
        <time>2018-05-25T11:35:44Z</time>
      </trkpt>
      <trkpt lat="43.37286" lon="5.90409">
        <ele>403.89</ele>
        <time>2018-05-25T11:35:45Z</time>
      </trkpt>
      <trkpt lat="43.37281" lon="5.90421">
        <ele>403.89</ele>
        <time>2018-05-25T11:35:46Z</time>
      </trkpt>
      <trkpt lat="43.37275" lon="5.90433">
        <ele>403.41</ele>
        <time>2018-05-25T11:35:47Z</time>
      </trkpt>
      <trkpt lat="43.37269" lon="5.90445">
        <ele>402.93</ele>
        <time>2018-05-25T11:35:48Z</time>
      </trkpt>
      <trkpt lat="43.37164" lon="5.90607">
        <ele>397.64</ele>
        <time>2018-05-25T11:36:03Z</time>
      </trkpt>
      <trkpt lat="43.37072" lon="5.90716">
        <ele>395.24</ele>
        <time>2018-05-25T11:36:17Z</time>
      </trkpt>
      <trkpt lat="43.36999" lon="5.90779">
        <ele>392.84</ele>
        <time>2018-05-25T11:36:28Z</time>
      </trkpt>
      <trkpt lat="43.36991" lon="5.90782">
        <ele>392.36</ele>
        <time>2018-05-25T11:36:29Z</time>
      </trkpt>
      <trkpt lat="43.36923" lon="5.90814">
        <ele>387.55</ele>
        <time>2018-05-25T11:36:37Z</time>
      </trkpt>
      <trkpt lat="43.36915" lon="5.90822">
        <ele>386.59</ele>
        <time>2018-05-25T11:36:38Z</time>
      </trkpt>
      <trkpt lat="43.36823" lon="5.9091">
        <ele>379.38</ele>
        <time>2018-05-25T11:36:49Z</time>
      </trkpt>
      <trkpt lat="43.36815" lon="5.90918">
        <ele>378.9</ele>
        <time>2018-05-25T11:36:50Z</time>
      </trkpt>
      <trkpt lat="43.36807" lon="5.90927">
        <ele>377.94</ele>
        <time>2018-05-25T11:36:51Z</time>
      </trkpt>
      <trkpt lat="43.36708" lon="5.9105">
        <ele>372.65</ele>
        <time>2018-05-25T11:37:05Z</time>
      </trkpt>
      <trkpt lat="43.36616" lon="5.9117">
        <ele>369.76</ele>
        <time>2018-05-25T11:37:20Z</time>
      </trkpt>
      <trkpt lat="43.36555" lon="5.91282">
        <ele>364</ele>
        <time>2018-05-25T11:37:31Z</time>
      </trkpt>
      <trkpt lat="43.36547" lon="5.91291">
        <ele>363.52</ele>
        <time>2018-05-25T11:37:32Z</time>
      </trkpt>
      <trkpt lat="43.36538" lon="5.91297">
        <ele>363.04</ele>
        <time>2018-05-25T11:37:33Z</time>
      </trkpt>
      <trkpt lat="43.36529" lon="5.91302">
        <ele>362.55</ele>
        <time>2018-05-25T11:37:34Z</time>
      </trkpt>
      <trkpt lat="43.36519" lon="5.91307">
        <ele>362.07</ele>
        <time>2018-05-25T11:37:35Z</time>
      </trkpt>
      <trkpt lat="43.36351" lon="5.91398">
        <ele>359.67</ele>
        <time>2018-05-25T11:37:53Z</time>
      </trkpt>
      <trkpt lat="43.36299" lon="5.91428">
        <ele>360.15</ele>
        <time>2018-05-25T11:37:59Z</time>
      </trkpt>
      <trkpt lat="43.36203" lon="5.91481">
        <ele>365.44</ele>
        <time>2018-05-25T11:38:12Z</time>
      </trkpt>
      <trkpt lat="43.36153" lon="5.91491">
        <ele>371.69</ele>
        <time>2018-05-25T11:38:20Z</time>
      </trkpt>
      <trkpt lat="43.36113" lon="5.91487">
        <ele>376.01</ele>
        <time>2018-05-25T11:38:28Z</time>
      </trkpt>
      <trkpt lat="43.36109" lon="5.91486">
        <ele>376.49</ele>
        <time>2018-05-25T11:38:29Z</time>
      </trkpt>
      <trkpt lat="43.36036" lon="5.91473">
        <ele>373.61</ele>
        <time>2018-05-25T11:38:43Z</time>
      </trkpt>
      <trkpt lat="43.35932" lon="5.91454">
        <ele>369.76</ele>
        <time>2018-05-25T11:38:57Z</time>
      </trkpt>
      <trkpt lat="43.35823" lon="5.91434">
        <ele>371.21</ele>
        <time>2018-05-25T11:39:15Z</time>
      </trkpt>
      <trkpt lat="43.35759" lon="5.91421">
        <ele>372.65</ele>
        <time>2018-05-25T11:39:29Z</time>
      </trkpt>
      <trkpt lat="43.35671" lon="5.91405">
        <ele>375.53</ele>
        <time>2018-05-25T11:39:50Z</time>
      </trkpt>
      <trkpt lat="43.35593" lon="5.9139">
        <ele>377.94</ele>
        <time>2018-05-25T11:40:09Z</time>
      </trkpt>
      <trkpt lat="43.3552" lon="5.91377">
        <ele>379.86</ele>
        <time>2018-05-25T11:40:26Z</time>
      </trkpt>
      <trkpt lat="43.35448" lon="5.91365">
        <ele>382.74</ele>
        <time>2018-05-25T11:40:43Z</time>
      </trkpt>
      <trkpt lat="43.35396" lon="5.91347">
        <ele>385.63</ele>
        <time>2018-05-25T11:40:56Z</time>
      </trkpt>
      <trkpt lat="43.35392" lon="5.91343">
        <ele>385.63</ele>
        <time>2018-05-25T11:40:57Z</time>
      </trkpt>
      <trkpt lat="43.3536" lon="5.91314">
        <ele>385.63</ele>
        <time>2018-05-25T11:41:06Z</time>
      </trkpt>
      <trkpt lat="43.35308" lon="5.91292">
        <ele>388.03</ele>
        <time>2018-05-25T11:41:18Z</time>
      </trkpt>
      <trkpt lat="43.35303" lon="5.91293">
        <ele>388.03</ele>
        <time>2018-05-25T11:41:19Z</time>
      </trkpt>
      <trkpt lat="43.35299" lon="5.91295">
        <ele>388.03</ele>
        <time>2018-05-25T11:41:20Z</time>
      </trkpt>
      <trkpt lat="43.3525" lon="5.91321">
        <ele>386.59</ele>
        <time>2018-05-25T11:41:30Z</time>
      </trkpt>
      <trkpt lat="43.35164" lon="5.91383">
        <ele>385.15</ele>
        <time>2018-05-25T11:41:45Z</time>
      </trkpt>
      <trkpt lat="43.35134" lon="5.91393">
        <ele>386.11</ele>
        <time>2018-05-25T11:41:50Z</time>
      </trkpt>
      <trkpt lat="43.35128" lon="5.91397">
        <ele>386.11</ele>
        <time>2018-05-25T11:41:51Z</time>
      </trkpt>
      <trkpt lat="43.35123" lon="5.91403">
        <ele>386.11</ele>
        <time>2018-05-25T11:41:52Z</time>
      </trkpt>
      <trkpt lat="43.3512" lon="5.91408">
        <ele>386.11</ele>
        <time>2018-05-25T11:41:53Z</time>
      </trkpt>
      <trkpt lat="43.35117" lon="5.91416">
        <ele>386.11</ele>
        <time>2018-05-25T11:41:54Z</time>
      </trkpt>
      <trkpt lat="43.35115" lon="5.91422">
        <ele>386.11</ele>
        <time>2018-05-25T11:41:55Z</time>
      </trkpt>
      <trkpt lat="43.35112" lon="5.91429">
        <ele>386.11</ele>
        <time>2018-05-25T11:41:56Z</time>
      </trkpt>
      <trkpt lat="43.35109" lon="5.91436">
        <ele>386.11</ele>
        <time>2018-05-25T11:41:57Z</time>
      </trkpt>
      <trkpt lat="43.3506" lon="5.91538">
        <ele>390.43</ele>
        <time>2018-05-25T11:42:15Z</time>
      </trkpt>
      <trkpt lat="43.35019" lon="5.91624">
        <ele>395.24</ele>
        <time>2018-05-25T11:42:33Z</time>
      </trkpt>
      <trkpt lat="43.34976" lon="5.91716">
        <ele>396.2</ele>
        <time>2018-05-25T11:42:53Z</time>
      </trkpt>
      <trkpt lat="43.34936" lon="5.91813">
        <ele>395.72</ele>
        <time>2018-05-25T11:43:09Z</time>
      </trkpt>
      <trkpt lat="43.34888" lon="5.91924">
        <ele>395.72</ele>
        <time>2018-05-25T11:43:25Z</time>
      </trkpt>
      <trkpt lat="43.34867" lon="5.91981">
        <ele>397.16</ele>
        <time>2018-05-25T11:43:34Z</time>
      </trkpt>
      <trkpt lat="43.3486" lon="5.91996">
        <ele>398.6</ele>
        <time>2018-05-25T11:43:37Z</time>
      </trkpt>
      <trkpt lat="43.3485" lon="5.92023">
        <ele>399.57</ele>
        <time>2018-05-25T11:43:42Z</time>
      </trkpt>
      <trkpt lat="43.34847" lon="5.92028">
        <ele>400.05</ele>
        <time>2018-05-25T11:43:43Z</time>
      </trkpt>
      <trkpt lat="43.34825" lon="5.92089">
        <ele>407.74</ele>
        <time>2018-05-25T11:43:56Z</time>
      </trkpt>
      <trkpt lat="43.34802" lon="5.92135">
        <ele>415.43</ele>
        <time>2018-05-25T11:44:08Z</time>
      </trkpt>
      <trkpt lat="43.34764" lon="5.92164">
        <ele>418.79</ele>
        <time>2018-05-25T11:44:20Z</time>
      </trkpt>
      <trkpt lat="43.34734" lon="5.92193">
        <ele>416.87</ele>
        <time>2018-05-25T11:44:31Z</time>
      </trkpt>
      <trkpt lat="43.34732" lon="5.92198">
        <ele>416.39</ele>
        <time>2018-05-25T11:44:32Z</time>
      </trkpt>
      <trkpt lat="43.34732" lon="5.92204">
        <ele>415.91</ele>
        <time>2018-05-25T11:44:33Z</time>
      </trkpt>
      <trkpt lat="43.34732" lon="5.9221">
        <ele>415.91</ele>
        <time>2018-05-25T11:44:34Z</time>
      </trkpt>
      <trkpt lat="43.34732" lon="5.92214">
        <ele>415.43</ele>
        <time>2018-05-25T11:44:35Z</time>
      </trkpt>
      <trkpt lat="43.34732" lon="5.9222">
        <ele>415.43</ele>
        <time>2018-05-25T11:44:36Z</time>
      </trkpt>
      <trkpt lat="43.34731" lon="5.92224">
        <ele>415.43</ele>
        <time>2018-05-25T11:44:37Z</time>
      </trkpt>
      <trkpt lat="43.34732" lon="5.92228">
        <ele>415.43</ele>
        <time>2018-05-25T11:44:38Z</time>
      </trkpt>
      <trkpt lat="43.34732" lon="5.92233">
        <ele>414.95</ele>
        <time>2018-05-25T11:44:39Z</time>
      </trkpt>
      <trkpt lat="43.34734" lon="5.92238">
        <ele>414.95</ele>
        <time>2018-05-25T11:44:40Z</time>
      </trkpt>
      <trkpt lat="43.34737" lon="5.92258">
        <ele>413.98</ele>
        <time>2018-05-25T11:44:45Z</time>
      </trkpt>
      <trkpt lat="43.34737" lon="5.92262">
        <ele>413.02</ele>
        <time>2018-05-25T11:44:46Z</time>
      </trkpt>
      <trkpt lat="43.3474" lon="5.92269">
        <ele>411.58</ele>
        <time>2018-05-25T11:44:48Z</time>
      </trkpt>
      <trkpt lat="43.3476" lon="5.92278">
        <ele>404.37</ele>
        <time>2018-05-25T11:44:54Z</time>
      </trkpt>
      <trkpt lat="43.34764" lon="5.92281">
        <ele>403.89</ele>
        <time>2018-05-25T11:44:55Z</time>
      </trkpt>
      <trkpt lat="43.34768" lon="5.92283">
        <ele>403.41</ele>
        <time>2018-05-25T11:44:56Z</time>
      </trkpt>
      <trkpt lat="43.34803" lon="5.92289">
        <ele>403.89</ele>
        <time>2018-05-25T11:45:04Z</time>
      </trkpt>
      <trkpt lat="43.34812" lon="5.92292">
        <ele>403.89</ele>
        <time>2018-05-25T11:45:06Z</time>
      </trkpt>
      <trkpt lat="43.34816" lon="5.92293">
        <ele>403.89</ele>
        <time>2018-05-25T11:45:07Z</time>
      </trkpt>
      <trkpt lat="43.34858" lon="5.92305">
        <ele>404.37</ele>
        <time>2018-05-25T11:45:19Z</time>
      </trkpt>
      <trkpt lat="43.34897" lon="5.92318">
        <ele>402.45</ele>
        <time>2018-05-25T11:45:31Z</time>
      </trkpt>
      <trkpt lat="43.34913" lon="5.92344">
        <ele>410.14</ele>
        <time>2018-05-25T11:45:41Z</time>
      </trkpt>
      <trkpt lat="43.34921" lon="5.92384">
        <ele>416.87</ele>
        <time>2018-05-25T11:45:54Z</time>
      </trkpt>
      <trkpt lat="43.34949" lon="5.92401">
        <ele>421.68</ele>
        <time>2018-05-25T11:46:06Z</time>
      </trkpt>
      <trkpt lat="43.34979" lon="5.92411">
        <ele>427.92</ele>
        <time>2018-05-25T11:46:18Z</time>
      </trkpt>
      <trkpt lat="43.35009" lon="5.9244">
        <ele>429.85</ele>
        <time>2018-05-25T11:46:31Z</time>
      </trkpt>
      <trkpt lat="43.35009" lon="5.92444">
        <ele>429.85</ele>
        <time>2018-05-25T11:46:32Z</time>
      </trkpt>
      <trkpt lat="43.35008" lon="5.92447">
        <ele>430.33</ele>
        <time>2018-05-25T11:46:33Z</time>
      </trkpt>
      <trkpt lat="43.35007" lon="5.92449">
        <ele>430.33</ele>
        <time>2018-05-25T11:46:34Z</time>
      </trkpt>
      <trkpt lat="43.35005" lon="5.92451">
        <ele>430.33</ele>
        <time>2018-05-25T11:46:35Z</time>
      </trkpt>
      <trkpt lat="43.35003" lon="5.92451">
        <ele>430.81</ele>
        <time>2018-05-25T11:46:36Z</time>
      </trkpt>
      <trkpt lat="43.35001" lon="5.92449">
        <ele>431.29</ele>
        <time>2018-05-25T11:46:37Z</time>
      </trkpt>
      <trkpt lat="43.34998" lon="5.92447">
        <ele>431.29</ele>
        <time>2018-05-25T11:46:38Z</time>
      </trkpt>
      <trkpt lat="43.34968" lon="5.92442">
        <ele>433.21</ele>
        <time>2018-05-25T11:46:50Z</time>
      </trkpt>
      <trkpt lat="43.34968" lon="5.92446">
        <ele>433.69</ele>
        <time>2018-05-25T11:46:51Z</time>
      </trkpt>
      <trkpt lat="43.34969" lon="5.9245">
        <ele>433.69</ele>
        <time>2018-05-25T11:46:52Z</time>
      </trkpt>
      <trkpt lat="43.34971" lon="5.92453">
        <ele>434.17</ele>
        <time>2018-05-25T11:46:53Z</time>
      </trkpt>
      <trkpt lat="43.34974" lon="5.92456">
        <ele>434.65</ele>
        <time>2018-05-25T11:46:54Z</time>
      </trkpt>
      <trkpt lat="43.34977" lon="5.92458">
        <ele>435.13</ele>
        <time>2018-05-25T11:46:55Z</time>
      </trkpt>
      <trkpt lat="43.3498" lon="5.9246">
        <ele>435.13</ele>
        <time>2018-05-25T11:46:56Z</time>
      </trkpt>
      <trkpt lat="43.34983" lon="5.92462">
        <ele>435.61</ele>
        <time>2018-05-25T11:46:57Z</time>
      </trkpt>
      <trkpt lat="43.35013" lon="5.92486">
        <ele>437.06</ele>
        <time>2018-05-25T11:47:06Z</time>
      </trkpt>
      <trkpt lat="43.35016" lon="5.92489">
        <ele>436.58</ele>
        <time>2018-05-25T11:47:07Z</time>
      </trkpt>
      <trkpt lat="43.35039" lon="5.92516">
        <ele>436.58</ele>
        <time>2018-05-25T11:47:16Z</time>
      </trkpt>
      <trkpt lat="43.35038" lon="5.9252">
        <ele>437.06</ele>
        <time>2018-05-25T11:47:17Z</time>
      </trkpt>
      <trkpt lat="43.35036" lon="5.92522">
        <ele>437.54</ele>
        <time>2018-05-25T11:47:18Z</time>
      </trkpt>
      <trkpt lat="43.35034" lon="5.92524">
        <ele>438.02</ele>
        <time>2018-05-25T11:47:19Z</time>
      </trkpt>
      <trkpt lat="43.35032" lon="5.92524">
        <ele>438.02</ele>
        <time>2018-05-25T11:47:20Z</time>
      </trkpt>
      <trkpt lat="43.35029" lon="5.92523">
        <ele>438.02</ele>
        <time>2018-05-25T11:47:21Z</time>
      </trkpt>
      <trkpt lat="43.35026" lon="5.9252">
        <ele>438.02</ele>
        <time>2018-05-25T11:47:22Z</time>
      </trkpt>
      <trkpt lat="43.35023" lon="5.92518">
        <ele>438.5</ele>
        <time>2018-05-25T11:47:23Z</time>
      </trkpt>
      <trkpt lat="43.3502" lon="5.92516">
        <ele>438.5</ele>
        <time>2018-05-25T11:47:24Z</time>
      </trkpt>
      <trkpt lat="43.35016" lon="5.92514">
        <ele>438.5</ele>
        <time>2018-05-25T11:47:25Z</time>
      </trkpt>
      <trkpt lat="43.35013" lon="5.92512">
        <ele>438.5</ele>
        <time>2018-05-25T11:47:26Z</time>
      </trkpt>
      <trkpt lat="43.3501" lon="5.9251">
        <ele>438.5</ele>
        <time>2018-05-25T11:47:27Z</time>
      </trkpt>
      <trkpt lat="43.35007" lon="5.92508">
        <ele>438.98</ele>
        <time>2018-05-25T11:47:28Z</time>
      </trkpt>
      <trkpt lat="43.35003" lon="5.92506">
        <ele>438.98</ele>
        <time>2018-05-25T11:47:29Z</time>
      </trkpt>
      <trkpt lat="43.35" lon="5.92504">
        <ele>438.98</ele>
        <time>2018-05-25T11:47:30Z</time>
      </trkpt>
      <trkpt lat="43.34997" lon="5.92502">
        <ele>438.98</ele>
        <time>2018-05-25T11:47:31Z</time>
      </trkpt>
      <trkpt lat="43.34965" lon="5.92487">
        <ele>444.27</ele>
        <time>2018-05-25T11:47:43Z</time>
      </trkpt>
      <trkpt lat="43.34933" lon="5.92475">
        <ele>448.59</ele>
        <time>2018-05-25T11:47:56Z</time>
      </trkpt>
      <trkpt lat="43.34906" lon="5.92456">
        <ele>453.4</ele>
        <time>2018-05-25T11:48:07Z</time>
      </trkpt>
      <trkpt lat="43.3487" lon="5.92435">
        <ele>457.72</ele>
        <time>2018-05-25T11:48:20Z</time>
      </trkpt>
      <trkpt lat="43.34827" lon="5.92448">
        <ele>462.53</ele>
        <time>2018-05-25T11:48:35Z</time>
      </trkpt>
      <trkpt lat="43.34792" lon="5.92458">
        <ele>464.93</ele>
        <time>2018-05-25T11:48:48Z</time>
      </trkpt>
      <trkpt lat="43.34782" lon="5.92497">
        <ele>465.42</ele>
        <time>2018-05-25T11:49:00Z</time>
      </trkpt>
      <trkpt lat="43.34797" lon="5.92543">
        <ele>465.9</ele>
        <time>2018-05-25T11:49:13Z</time>
      </trkpt>
      <trkpt lat="43.34801" lon="5.92598">
        <ele>467.34</ele>
        <time>2018-05-25T11:49:25Z</time>
      </trkpt>
      <trkpt lat="43.34797" lon="5.9268">
        <ele>470.22</ele>
        <time>2018-05-25T11:49:42Z</time>
      </trkpt>
      <trkpt lat="43.34808" lon="5.92744">
        <ele>473.59</ele>
        <time>2018-05-25T11:49:57Z</time>
      </trkpt>
      <trkpt lat="43.34816" lon="5.92801">
        <ele>476.47</ele>
        <time>2018-05-25T11:50:10Z</time>
      </trkpt>
      <trkpt lat="43.34815" lon="5.92874">
        <ele>479.35</ele>
        <time>2018-05-25T11:50:24Z</time>
      </trkpt>
      <trkpt lat="43.34806" lon="5.92919">
        <ele>484.16</ele>
        <time>2018-05-25T11:50:35Z</time>
      </trkpt>
      <trkpt lat="43.34768" lon="5.92946">
        <ele>491.85</ele>
        <time>2018-05-25T11:50:50Z</time>
      </trkpt>
      <trkpt lat="43.34747" lon="5.9299">
        <ele>496.18</ele>
        <time>2018-05-25T11:51:02Z</time>
      </trkpt>
      <trkpt lat="43.34723" lon="5.93059">
        <ele>499.06</ele>
        <time>2018-05-25T11:51:18Z</time>
      </trkpt>
      <trkpt lat="43.34704" lon="5.93112">
        <ele>502.91</ele>
        <time>2018-05-25T11:51:32Z</time>
      </trkpt>
      <trkpt lat="43.34697" lon="5.93143">
        <ele>502.91</ele>
        <time>2018-05-25T11:51:37Z</time>
      </trkpt>
      <trkpt lat="43.34696" lon="5.93151">
        <ele>502.91</ele>
        <time>2018-05-25T11:51:38Z</time>
      </trkpt>
      <trkpt lat="43.34696" lon="5.93159">
        <ele>502.91</ele>
        <time>2018-05-25T11:51:39Z</time>
      </trkpt>
      <trkpt lat="43.34697" lon="5.93166">
        <ele>502.91</ele>
        <time>2018-05-25T11:51:40Z</time>
      </trkpt>
      <trkpt lat="43.34698" lon="5.93173">
        <ele>502.43</ele>
        <time>2018-05-25T11:51:41Z</time>
      </trkpt>
      <trkpt lat="43.34701" lon="5.9318">
        <ele>502.43</ele>
        <time>2018-05-25T11:51:42Z</time>
      </trkpt>
      <trkpt lat="43.34704" lon="5.93188">
        <ele>501.95</ele>
        <time>2018-05-25T11:51:43Z</time>
      </trkpt>
      <trkpt lat="43.34706" lon="5.93196">
        <ele>500.98</ele>
        <time>2018-05-25T11:51:44Z</time>
      </trkpt>
      <trkpt lat="43.34707" lon="5.93205">
        <ele>500.5</ele>
        <time>2018-05-25T11:51:45Z</time>
      </trkpt>
      <trkpt lat="43.34706" lon="5.93215">
        <ele>500.02</ele>
        <time>2018-05-25T11:51:46Z</time>
      </trkpt>
      <trkpt lat="43.34702" lon="5.93223">
        <ele>499.54</ele>
        <time>2018-05-25T11:51:47Z</time>
      </trkpt>
      <trkpt lat="43.34697" lon="5.93229">
        <ele>499.06</ele>
        <time>2018-05-25T11:51:48Z</time>
      </trkpt>
      <trkpt lat="43.34692" lon="5.93235">
        <ele>498.58</ele>
        <time>2018-05-25T11:51:49Z</time>
      </trkpt>
      <trkpt lat="43.34683" lon="5.93244">
        <ele>497.62</ele>
        <time>2018-05-25T11:51:51Z</time>
      </trkpt>
      <trkpt lat="43.34642" lon="5.93276">
        <ele>494.26</ele>
        <time>2018-05-25T11:51:58Z</time>
      </trkpt>
      <trkpt lat="43.34637" lon="5.93282">
        <ele>493.77</ele>
        <time>2018-05-25T11:51:59Z</time>
      </trkpt>
      <trkpt lat="43.34633" lon="5.93291">
        <ele>493.29</ele>
        <time>2018-05-25T11:52:00Z</time>
      </trkpt>
      <trkpt lat="43.3463" lon="5.93301">
        <ele>492.81</ele>
        <time>2018-05-25T11:52:01Z</time>
      </trkpt>
      <trkpt lat="43.34627" lon="5.93312">
        <ele>491.85</ele>
        <time>2018-05-25T11:52:02Z</time>
      </trkpt>
      <trkpt lat="43.34625" lon="5.93322">
        <ele>491.37</ele>
        <time>2018-05-25T11:52:03Z</time>
      </trkpt>
      <trkpt lat="43.34623" lon="5.93332">
        <ele>490.41</ele>
        <time>2018-05-25T11:52:04Z</time>
      </trkpt>
      <trkpt lat="43.34611" lon="5.93424">
        <ele>483.2</ele>
        <time>2018-05-25T11:52:12Z</time>
      </trkpt>
      <trkpt lat="43.34611" lon="5.93591">
        <ele>471.18</ele>
        <time>2018-05-25T11:52:24Z</time>
      </trkpt>
      <trkpt lat="43.34608" lon="5.93634">
        <ele>467.82</ele>
        <time>2018-05-25T11:52:27Z</time>
      </trkpt>
      <trkpt lat="43.34604" lon="5.93646">
        <ele>466.86</ele>
        <time>2018-05-25T11:52:28Z</time>
      </trkpt>
      <trkpt lat="43.34598" lon="5.93655">
        <ele>465.9</ele>
        <time>2018-05-25T11:52:29Z</time>
      </trkpt>
      <trkpt lat="43.3459" lon="5.93662">
        <ele>464.93</ele>
        <time>2018-05-25T11:52:30Z</time>
      </trkpt>
      <trkpt lat="43.34582" lon="5.93669">
        <ele>463.97</ele>
        <time>2018-05-25T11:52:31Z</time>
      </trkpt>
      <trkpt lat="43.34575" lon="5.93676">
        <ele>463.01</ele>
        <time>2018-05-25T11:52:32Z</time>
      </trkpt>
      <trkpt lat="43.34569" lon="5.93686">
        <ele>462.05</ele>
        <time>2018-05-25T11:52:33Z</time>
      </trkpt>
      <trkpt lat="43.34564" lon="5.93696">
        <ele>461.09</ele>
        <time>2018-05-25T11:52:34Z</time>
      </trkpt>
      <trkpt lat="43.34545" lon="5.93755">
        <ele>456.76</ele>
        <time>2018-05-25T11:52:42Z</time>
      </trkpt>
      <trkpt lat="43.34532" lon="5.93798">
        <ele>455.8</ele>
        <time>2018-05-25T11:52:49Z</time>
      </trkpt>
      <trkpt lat="43.34495" lon="5.93905">
        <ele>449.55</ele>
        <time>2018-05-25T11:52:59Z</time>
      </trkpt>
      <trkpt lat="43.34448" lon="5.94034">
        <ele>444.75</ele>
        <time>2018-05-25T11:53:09Z</time>
      </trkpt>
      <trkpt lat="43.34441" lon="5.94046">
        <ele>443.79</ele>
        <time>2018-05-25T11:53:10Z</time>
      </trkpt>
      <trkpt lat="43.34434" lon="5.94057">
        <ele>443.31</ele>
        <time>2018-05-25T11:53:11Z</time>
      </trkpt>
      <trkpt lat="43.34425" lon="5.94067">
        <ele>442.34</ele>
        <time>2018-05-25T11:53:12Z</time>
      </trkpt>
      <trkpt lat="43.34416" lon="5.94077">
        <ele>441.86</ele>
        <time>2018-05-25T11:53:13Z</time>
      </trkpt>
      <trkpt lat="43.34408" lon="5.94089">
        <ele>441.38</ele>
        <time>2018-05-25T11:53:14Z</time>
      </trkpt>
      <trkpt lat="43.344" lon="5.94102">
        <ele>440.42</ele>
        <time>2018-05-25T11:53:15Z</time>
      </trkpt>
      <trkpt lat="43.34393" lon="5.94116">
        <ele>439.94</ele>
        <time>2018-05-25T11:53:16Z</time>
      </trkpt>
      <trkpt lat="43.34387" lon="5.9413">
        <ele>439.46</ele>
        <time>2018-05-25T11:53:17Z</time>
      </trkpt>
      <trkpt lat="43.34382" lon="5.94144">
        <ele>438.98</ele>
        <time>2018-05-25T11:53:18Z</time>
      </trkpt>
      <trkpt lat="43.34338" lon="5.94244">
        <ele>436.58</ele>
        <time>2018-05-25T11:53:26Z</time>
      </trkpt>
      <trkpt lat="43.34332" lon="5.94251">
        <ele>436.58</ele>
        <time>2018-05-25T11:53:27Z</time>
      </trkpt>
      <trkpt lat="43.34325" lon="5.94255">
        <ele>435.61</ele>
        <time>2018-05-25T11:53:28Z</time>
      </trkpt>
      <trkpt lat="43.34317" lon="5.94256">
        <ele>435.13</ele>
        <time>2018-05-25T11:53:29Z</time>
      </trkpt>
      <trkpt lat="43.34308" lon="5.94257">
        <ele>434.65</ele>
        <time>2018-05-25T11:53:30Z</time>
      </trkpt>
      <trkpt lat="43.34298" lon="5.9426">
        <ele>433.69</ele>
        <time>2018-05-25T11:53:31Z</time>
      </trkpt>
      <trkpt lat="43.3429" lon="5.94265">
        <ele>433.21</ele>
        <time>2018-05-25T11:53:32Z</time>
      </trkpt>
      <trkpt lat="43.34282" lon="5.94273">
        <ele>433.21</ele>
        <time>2018-05-25T11:53:33Z</time>
      </trkpt>
      <trkpt lat="43.34275" lon="5.94281">
        <ele>432.73</ele>
        <time>2018-05-25T11:53:34Z</time>
      </trkpt>
      <trkpt lat="43.3427" lon="5.94291">
        <ele>432.73</ele>
        <time>2018-05-25T11:53:35Z</time>
      </trkpt>
      <trkpt lat="43.34266" lon="5.94302">
        <ele>433.21</ele>
        <time>2018-05-25T11:53:36Z</time>
      </trkpt>
      <trkpt lat="43.34264" lon="5.94313">
        <ele>433.69</ele>
        <time>2018-05-25T11:53:37Z</time>
      </trkpt>
      <trkpt lat="43.34263" lon="5.94324">
        <ele>434.17</ele>
        <time>2018-05-25T11:53:38Z</time>
      </trkpt>
      <trkpt lat="43.34264" lon="5.94335">
        <ele>434.65</ele>
        <time>2018-05-25T11:53:39Z</time>
      </trkpt>
      <trkpt lat="43.34265" lon="5.94346">
        <ele>435.13</ele>
        <time>2018-05-25T11:53:40Z</time>
      </trkpt>
      <trkpt lat="43.34267" lon="5.94356">
        <ele>435.13</ele>
        <time>2018-05-25T11:53:41Z</time>
      </trkpt>
      <trkpt lat="43.3427" lon="5.94464">
        <ele>436.58</ele>
        <time>2018-05-25T11:53:52Z</time>
      </trkpt>
      <trkpt lat="43.34269" lon="5.94614">
        <ele>432.73</ele>
        <time>2018-05-25T11:54:07Z</time>
      </trkpt>
      <trkpt lat="43.34233" lon="5.94734">
        <ele>424.08</ele>
        <time>2018-05-25T11:54:16Z</time>
      </trkpt>
      <trkpt lat="43.34207" lon="5.948">
        <ele>420.23</ele>
        <time>2018-05-25T11:54:21Z</time>
      </trkpt>
      <trkpt lat="43.342" lon="5.94811">
        <ele>420.23</ele>
        <time>2018-05-25T11:54:22Z</time>
      </trkpt>
      <trkpt lat="43.34193" lon="5.94821">
        <ele>419.75</ele>
        <time>2018-05-25T11:54:23Z</time>
      </trkpt>
      <trkpt lat="43.34185" lon="5.94829">
        <ele>419.75</ele>
        <time>2018-05-25T11:54:24Z</time>
      </trkpt>
      <trkpt lat="43.34177" lon="5.94836">
        <ele>419.75</ele>
        <time>2018-05-25T11:54:25Z</time>
      </trkpt>
      <trkpt lat="43.34096" lon="5.94928">
        <ele>419.75</ele>
        <time>2018-05-25T11:54:38Z</time>
      </trkpt>
      <trkpt lat="43.34081" lon="5.94959">
        <ele>419.27</ele>
        <time>2018-05-25T11:54:42Z</time>
      </trkpt>
      <trkpt lat="43.34063" lon="5.95019">
        <ele>417.83</ele>
        <time>2018-05-25T11:54:49Z</time>
      </trkpt>
      <trkpt lat="43.34062" lon="5.95028">
        <ele>417.35</ele>
        <time>2018-05-25T11:54:50Z</time>
      </trkpt>
      <trkpt lat="43.34062" lon="5.95037">
        <ele>416.87</ele>
        <time>2018-05-25T11:54:51Z</time>
      </trkpt>
      <trkpt lat="43.34053" lon="5.95161">
        <ele>411.58</ele>
        <time>2018-05-25T11:55:02Z</time>
      </trkpt>
      <trkpt lat="43.34036" lon="5.95298">
        <ele>410.14</ele>
        <time>2018-05-25T11:55:13Z</time>
      </trkpt>
      <trkpt lat="43.34027" lon="5.95474">
        <ele>408.22</ele>
        <time>2018-05-25T11:55:29Z</time>
      </trkpt>
      <trkpt lat="43.34014" lon="5.95629">
        <ele>406.77</ele>
        <time>2018-05-25T11:55:45Z</time>
      </trkpt>
      <trkpt lat="43.34013" lon="5.95692">
        <ele>405.33</ele>
        <time>2018-05-25T11:55:52Z</time>
      </trkpt>
      <trkpt lat="43.34011" lon="5.95702">
        <ele>404.85</ele>
        <time>2018-05-25T11:55:53Z</time>
      </trkpt>
      <trkpt lat="43.34008" lon="5.95713">
        <ele>404.37</ele>
        <time>2018-05-25T11:55:54Z</time>
      </trkpt>
      <trkpt lat="43.33982" lon="5.95799">
        <ele>402.45</ele>
        <time>2018-05-25T11:56:03Z</time>
      </trkpt>
      <trkpt lat="43.33977" lon="5.95807">
        <ele>401.97</ele>
        <time>2018-05-25T11:56:04Z</time>
      </trkpt>
      <trkpt lat="43.33971" lon="5.95813">
        <ele>401.97</ele>
        <time>2018-05-25T11:56:05Z</time>
      </trkpt>
      <trkpt lat="43.33965" lon="5.95819">
        <ele>401.49</ele>
        <time>2018-05-25T11:56:06Z</time>
      </trkpt>
      <trkpt lat="43.33958" lon="5.95825">
        <ele>401.01</ele>
        <time>2018-05-25T11:56:07Z</time>
      </trkpt>
      <trkpt lat="43.33924" lon="5.95855">
        <ele>399.57</ele>
        <time>2018-05-25T11:56:12Z</time>
      </trkpt>
      <trkpt lat="43.33918" lon="5.95863">
        <ele>399.57</ele>
        <time>2018-05-25T11:56:13Z</time>
      </trkpt>
      <trkpt lat="43.33914" lon="5.95872">
        <ele>399.08</ele>
        <time>2018-05-25T11:56:14Z</time>
      </trkpt>
      <trkpt lat="43.33912" lon="5.95882">
        <ele>398.6</ele>
        <time>2018-05-25T11:56:15Z</time>
      </trkpt>
      <trkpt lat="43.33912" lon="5.95893">
        <ele>398.6</ele>
        <time>2018-05-25T11:56:16Z</time>
      </trkpt>
      <trkpt lat="43.33913" lon="5.95903">
        <ele>398.6</ele>
        <time>2018-05-25T11:56:17Z</time>
      </trkpt>
      <trkpt lat="43.33914" lon="5.95913">
        <ele>398.6</ele>
        <time>2018-05-25T11:56:18Z</time>
      </trkpt>
      <trkpt lat="43.3392" lon="5.95943">
        <ele>398.12</ele>
        <time>2018-05-25T11:56:21Z</time>
      </trkpt>
      <trkpt lat="43.33953" lon="5.96021">
        <ele>395.72</ele>
        <time>2018-05-25T11:56:30Z</time>
      </trkpt>
      <trkpt lat="43.33957" lon="5.96024">
        <ele>395.24</ele>
        <time>2018-05-25T11:56:31Z</time>
      </trkpt>
      <trkpt lat="43.33964" lon="5.9602">
        <ele>395.72</ele>
        <time>2018-05-25T11:56:32Z</time>
      </trkpt>
      <trkpt lat="43.33968" lon="5.96021">
        <ele>395.72</ele>
        <time>2018-05-25T11:56:33Z</time>
      </trkpt>
      <trkpt lat="43.33973" lon="5.96019">
        <ele>395.72</ele>
        <time>2018-05-25T11:56:34Z</time>
      </trkpt>
      <trkpt lat="43.33982" lon="5.96014">
        <ele>395.72</ele>
        <time>2018-05-25T11:56:35Z</time>
      </trkpt>
      <trkpt lat="43.33993" lon="5.96011">
        <ele>395.72</ele>
        <time>2018-05-25T11:56:36Z</time>
      </trkpt>
      <trkpt lat="43.34002" lon="5.9601">
        <ele>395.72</ele>
        <time>2018-05-25T11:56:37Z</time>
      </trkpt>
      <trkpt lat="43.34011" lon="5.96011">
        <ele>395.72</ele>
        <time>2018-05-25T11:56:38Z</time>
      </trkpt>
      <trkpt lat="43.34021" lon="5.96012">
        <ele>396.2</ele>
        <time>2018-05-25T11:56:39Z</time>
      </trkpt>
      <trkpt lat="43.34029" lon="5.96016">
        <ele>396.2</ele>
        <time>2018-05-25T11:56:40Z</time>
      </trkpt>
      <trkpt lat="43.34036" lon="5.96021">
        <ele>396.2</ele>
        <time>2018-05-25T11:56:41Z</time>
      </trkpt>
      <trkpt lat="43.34042" lon="5.96027">
        <ele>396.2</ele>
        <time>2018-05-25T11:56:42Z</time>
      </trkpt>
      <trkpt lat="43.34097" lon="5.96131">
        <ele>392.84</ele>
        <time>2018-05-25T11:56:54Z</time>
      </trkpt>
      <trkpt lat="43.34152" lon="5.96206">
        <ele>391.87</ele>
        <time>2018-05-25T11:57:04Z</time>
      </trkpt>
      <trkpt lat="43.34156" lon="5.96215">
        <ele>391.87</ele>
        <time>2018-05-25T11:57:05Z</time>
      </trkpt>
      <trkpt lat="43.34159" lon="5.96224">
        <ele>391.87</ele>
        <time>2018-05-25T11:57:06Z</time>
      </trkpt>
      <trkpt lat="43.34176" lon="5.96299">
        <ele>390.91</ele>
        <time>2018-05-25T11:57:14Z</time>
      </trkpt>
      <trkpt lat="43.34176" lon="5.96309">
        <ele>390.91</ele>
        <time>2018-05-25T11:57:15Z</time>
      </trkpt>
      <trkpt lat="43.34175" lon="5.96318">
        <ele>390.43</ele>
        <time>2018-05-25T11:57:16Z</time>
      </trkpt>
      <trkpt lat="43.34174" lon="5.96328">
        <ele>390.43</ele>
        <time>2018-05-25T11:57:17Z</time>
      </trkpt>
      <trkpt lat="43.34172" lon="5.96337">
        <ele>390.43</ele>
        <time>2018-05-25T11:57:18Z</time>
      </trkpt>
      <trkpt lat="43.34169" lon="5.96347">
        <ele>390.43</ele>
        <time>2018-05-25T11:57:19Z</time>
      </trkpt>
      <trkpt lat="43.34167" lon="5.96356">
        <ele>390.43</ele>
        <time>2018-05-25T11:57:20Z</time>
      </trkpt>
      <trkpt lat="43.34164" lon="5.96365">
        <ele>390.43</ele>
        <time>2018-05-25T11:57:21Z</time>
      </trkpt>
      <trkpt lat="43.34163" lon="5.96374">
        <ele>390.43</ele>
        <time>2018-05-25T11:57:22Z</time>
      </trkpt>
      <trkpt lat="43.34157" lon="5.9646">
        <ele>388.99</ele>
        <time>2018-05-25T11:57:32Z</time>
      </trkpt>
      <trkpt lat="43.34172" lon="5.9659">
        <ele>387.07</ele>
        <time>2018-05-25T11:57:46Z</time>
      </trkpt>
      <trkpt lat="43.34213" lon="5.9669">
        <ele>385.63</ele>
        <time>2018-05-25T11:57:59Z</time>
      </trkpt>
      <trkpt lat="43.34226" lon="5.96738">
        <ele>386.11</ele>
        <time>2018-05-25T11:58:05Z</time>
      </trkpt>
      <trkpt lat="43.34226" lon="5.96746">
        <ele>386.11</ele>
        <time>2018-05-25T11:58:06Z</time>
      </trkpt>
      <trkpt lat="43.34226" lon="5.96754">
        <ele>386.11</ele>
        <time>2018-05-25T11:58:07Z</time>
      </trkpt>
      <trkpt lat="43.34225" lon="5.96762">
        <ele>386.11</ele>
        <time>2018-05-25T11:58:08Z</time>
      </trkpt>
      <trkpt lat="43.34225" lon="5.9677">
        <ele>386.11</ele>
        <time>2018-05-25T11:58:09Z</time>
      </trkpt>
      <trkpt lat="43.34224" lon="5.96777">
        <ele>386.11</ele>
        <time>2018-05-25T11:58:10Z</time>
      </trkpt>
      <trkpt lat="43.34222" lon="5.96784">
        <ele>386.11</ele>
        <time>2018-05-25T11:58:11Z</time>
      </trkpt>
      <trkpt lat="43.3422" lon="5.9679">
        <ele>386.59</ele>
        <time>2018-05-25T11:58:12Z</time>
      </trkpt>
      <trkpt lat="43.34218" lon="5.96796">
        <ele>386.59</ele>
        <time>2018-05-25T11:58:13Z</time>
      </trkpt>
      <trkpt lat="43.34212" lon="5.96813">
        <ele>386.59</ele>
        <time>2018-05-25T11:58:16Z</time>
      </trkpt>
      <trkpt lat="43.3417" lon="5.96888">
        <ele>386.11</ele>
        <time>2018-05-25T11:58:29Z</time>
      </trkpt>
      <trkpt lat="43.34134" lon="5.9698">
        <ele>380.34</ele>
        <time>2018-05-25T11:58:44Z</time>
      </trkpt>
      <trkpt lat="43.34118" lon="5.97045">
        <ele>376.97</ele>
        <time>2018-05-25T11:58:52Z</time>
      </trkpt>
      <trkpt lat="43.34117" lon="5.97054">
        <ele>376.49</ele>
        <time>2018-05-25T11:58:53Z</time>
      </trkpt>
      <trkpt lat="43.34111" lon="5.97201">
        <ele>371.69</ele>
        <time>2018-05-25T11:59:08Z</time>
      </trkpt>
      <trkpt lat="43.34084" lon="5.97285">
        <ele>371.21</ele>
        <time>2018-05-25T11:59:19Z</time>
      </trkpt>
      <trkpt lat="43.34081" lon="5.9729">
        <ele>371.21</ele>
        <time>2018-05-25T11:59:20Z</time>
      </trkpt>
      <trkpt lat="43.34073" lon="5.97301">
        <ele>371.21</ele>
        <time>2018-05-25T11:59:22Z</time>
      </trkpt>
      <trkpt lat="43.34071" lon="5.97307">
        <ele>371.21</ele>
        <time>2018-05-25T11:59:23Z</time>
      </trkpt>
      <trkpt lat="43.3407" lon="5.97314">
        <ele>371.21</ele>
        <time>2018-05-25T11:59:24Z</time>
      </trkpt>
      <trkpt lat="43.34071" lon="5.97321">
        <ele>371.21</ele>
        <time>2018-05-25T11:59:25Z</time>
      </trkpt>
      <trkpt lat="43.34074" lon="5.97326">
        <ele>371.21</ele>
        <time>2018-05-25T11:59:26Z</time>
      </trkpt>
      <trkpt lat="43.3408" lon="5.97329">
        <ele>370.73</ele>
        <time>2018-05-25T11:59:27Z</time>
      </trkpt>
      <trkpt lat="43.34085" lon="5.9733">
        <ele>370.73</ele>
        <time>2018-05-25T11:59:28Z</time>
      </trkpt>
      <trkpt lat="43.34092" lon="5.97329">
        <ele>370.73</ele>
        <time>2018-05-25T11:59:29Z</time>
      </trkpt>
      <trkpt lat="43.34098" lon="5.97327">
        <ele>370.73</ele>
        <time>2018-05-25T11:59:30Z</time>
      </trkpt>
      <trkpt lat="43.34105" lon="5.97325">
        <ele>370.73</ele>
        <time>2018-05-25T11:59:31Z</time>
      </trkpt>
      <trkpt lat="43.34111" lon="5.97324">
        <ele>371.21</ele>
        <time>2018-05-25T11:59:32Z</time>
      </trkpt>
      <trkpt lat="43.34117" lon="5.97323">
        <ele>371.21</ele>
        <time>2018-05-25T11:59:33Z</time>
      </trkpt>
      <trkpt lat="43.34233" lon="5.97324">
        <ele>372.17</ele>
        <time>2018-05-25T11:59:49Z</time>
      </trkpt>
      <trkpt lat="43.3435" lon="5.97325">
        <ele>373.13</ele>
        <time>2018-05-25T12:00:06Z</time>
      </trkpt>
      <trkpt lat="43.34381" lon="5.97326">
        <ele>373.61</ele>
        <time>2018-05-25T12:00:11Z</time>
      </trkpt>
      <trkpt lat="43.34385" lon="5.97323">
        <ele>373.61</ele>
        <time>2018-05-25T12:00:12Z</time>
      </trkpt>
      <trkpt lat="43.34387" lon="5.97318">
        <ele>373.61</ele>
        <time>2018-05-25T12:00:13Z</time>
      </trkpt>
      <trkpt lat="43.34388" lon="5.97312">
        <ele>373.61</ele>
        <time>2018-05-25T12:00:14Z</time>
      </trkpt>
      <trkpt lat="43.34387" lon="5.97306">
        <ele>374.09</ele>
        <time>2018-05-25T12:00:15Z</time>
      </trkpt>
      <trkpt lat="43.34385" lon="5.97299">
        <ele>374.09</ele>
        <time>2018-05-25T12:00:16Z</time>
      </trkpt>
      <trkpt lat="43.34361" lon="5.97215">
        <ele>374.57</ele>
        <time>2018-05-25T12:00:28Z</time>
      </trkpt>
      <trkpt lat="43.34349" lon="5.97165">
        <ele>374.09</ele>
        <time>2018-05-25T12:00:35Z</time>
      </trkpt>
      <trkpt lat="43.34346" lon="5.97158">
        <ele>374.09</ele>
        <time>2018-05-25T12:00:36Z</time>
      </trkpt>
      <trkpt lat="43.34325" lon="5.97113">
        <ele>374.09</ele>
        <time>2018-05-25T12:00:43Z</time>
      </trkpt>
      <trkpt lat="43.34322" lon="5.97108">
        <ele>374.09</ele>
        <time>2018-05-25T12:00:44Z</time>
      </trkpt>
      <trkpt lat="43.34315" lon="5.97096">
        <ele>374.09</ele>
        <time>2018-05-25T12:00:46Z</time>
      </trkpt>
      <trkpt lat="43.34312" lon="5.97091">
        <ele>374.09</ele>
        <time>2018-05-25T12:00:47Z</time>
      </trkpt>
      <trkpt lat="43.34273" lon="5.9704">
        <ele>376.01</ele>
        <time>2018-05-25T12:00:57Z</time>
      </trkpt>
      <trkpt lat="43.3427" lon="5.97037">
        <ele>376.49</ele>
        <time>2018-05-25T12:00:58Z</time>
      </trkpt>
      <trkpt lat="43.34251" lon="5.9702">
        <ele>377.45</ele>
        <time>2018-05-25T12:01:08Z</time>
      </trkpt>
      <trkpt lat="43.34251" lon="5.97018">
        <ele>377.45</ele>
        <time>2018-05-25T12:01:19Z</time>
      </trkpt>
    </trkseg>
  </trk>
</gpx>